[[{"header":{"parameterUnit":"m.s-1","parameterCategory":1,"la1":31.0,"la2":29.5877,"lo1":-88.7671,"lo2":-86.6584,"dx":0.0162,"dy":0.0185,"nx":115,"ny":88,"refTime":"2022-11-11T18:00:00:Z","depth":0,"parameterNumber":2,"parameterNumberName":"U-component_of_WINDS"},"data":[0.0,0.0,0.0,0.0,0.0,0.0,0.0,0.0,0.0,0.0,0.0,0.0,0.0,0.0,0.0,0.0,0.0,0.0,0.0,0.0,0.0,0.0,0.0,0.0,0.0,0.0,0.0,0.0,0.0,0.0,0.0,0.0,0.0,0.0,0.0,0.0,0.0,0.0,0.0,0.0,0.0,0.0,0.0,0.0,0.0,0.0,0.0,0.0,0.0,0.0,0.0,0.0,0.0,0.0,0.0,0.0,0.0,0.0,0.0,0.0,0.0,0.0,0.0,0.0,0.0,0.0,0.0,0.0,0.0,0.0,0.0,0.0,0.0,0.0,0.0,0.0,0.0,0.0,0.0,0.0,0.0,0.0,0.0,0.0,0.0,0.0,0.0,0.0,0.0,0.0,0.0,0.0,0.0,0.0,0.0,0.0,0.0,0.0,0.0,0.0,0.0,0.0,0.0,0.0,0.0,0.0,0.0,0.0,0.0,0.0,0.0,0.0,0.0,0.0,0.0,0.0,0.0,0.0,0.0,0.0,0.0,0.0,0.0,0.0,0.0,0.0,0.0,0.0,0.0,0.0,0.0,0.0,0.0,0.0,0.0,0.0,0.0,0.0,0.0,0.0,0.0,0.0,0.0,0.0,0.0,0.0,0.0,0.0,0.0,0.0,0.0,0.0,0.0,0.0,0.0,0.0,0.0,0.0,0.0,0.0,0.0,0.0,0.0,0.0,0.0,0.0,0.0,0.0,0.0,0.0,0.0,0.0,0.0,0.0,0.0,0.0,0.0,0.0,0.0,0.0,0.0,0.0,0.0,0.0,0.0,0.0,0.0,0.0,0.0,0.0,0.0,0.0,0.0,0.0,0.0,0.0,0.0,0.0,0.0,0.0,0.0,0.0,0.0,0.0,0.0,0.0,0.0,0.0,0.0,0.0,0.0,0.0,0.0,0.0,0.0,0.0,0.0,0.0,0.0,0.0,0.0,0.0,0.0,0.0,0.0,0.0,0.0,0.0,0.0,0.0,0.0,0.0,0.0,0.0,0.0,0.0,0.0,0.0,0.0,0.0,0.0,0.0,0.0,0.0,0.0,0.0,0.0,0.0,0.0,0.0,0.0,0.0,0.0,0.0,0.0,0.0,0.0,0.0,0.0,0.0,0.0,0.0,0.0,0.0,0.0,0.0,0.0,0.0,0.0,0.0,0.0,0.0,0.0,0.0,0.0,0.0,0.0,0.0,0.0,0.0,0.0,0.0,0.0,0.0,0.0,0.0,0.0,0.0,0.0,0.0,0.0,0.0,0.0,0.0,0.0,0.0,0.0,0.0,0.0,0.0,0.0,0.0,0.0,0.0,0.0,0.0,0.0,0.0,0.0,0.0,0.0,0.0,0.0,0.0,0.0,0.0,0.0,0.0,0.0,0.0,0.0,0.0,0.0,0.0,0.0,0.0,0.0,0.0,0.0,0.0,0.0,0.0,0.0,0.0,0.0,0.0,0.0,0.0,0.0,0.0,0.0,0.0,0.0,0.0,0.0,0.0,0.0,0.0,0.0,0.0,0.0,0.0,0.0,0.0,0.0,0.0,0.0,0.0,0.0,0.0,0.0,0.0,0.0,0.0,0.0,0.0,0.0,0.0,0.0,0.0,0.0,0.0,0.0,0.0,0.0,0.0,0.0,0.0,0.0,0.0,0.0,0.0,0.0,0.0,0.0,0.0,0.0,0.0,0.0,0.0,0.0,0.0,0.0,0.0,0.0,0.0,0.0,0.0,0.0,0.0,0.0,0.0,0.0,0.0,0.0,0.0,0.0,0.0,0.0,0.0,0.0,0.0,0.0,0.0,0.0,0.0,0.0,0.0,0.0,0.0,0.0,0.0,0.0,0.0,0.0,0.0,0.0,0.0,0.0,0.0,0.0,0.0,0.0,0.0,0.0,0.0,0.0,0.0,0.0,0.0,0.0,0.0,0.0,0.0,0.0,0.0,0.0,0.0,0.0,0.0,0.0,0.0,0.0,0.0,0.0,0.0,0.0,0.0,0.0,0.0,0.0,0.0,0.0,0.0,0.0,0.0,0.0,0.0,0.0,0.0,0.0,0.0,0.0,0.0,0.0,0.0,0.0,0.0,0.0,0.0,0.0,0.0,0.0,0.0,0.0,0.0,0.0,0.0,0.0,0.0,0.0,0.0,0.0,0.0,0.0,0.0,0.0,0.0,0.0,0.0,0.0,0.0,0.0,0.0,0.0,0.0,0.0,0.0,0.0,0.0,0.0,0.0,0.0,0.0,0.0,0.0,0.0,0.0,0.0,0.0,0.0,0.0,0.0,0.0,0.0,0.0,0.0,0.0,0.0,0.0,0.0,0.0,0.0,0.0,0.0,0.0,0.0,0.0,0.0,0.0,0.0,0.0,0.0,0.0,0.0,0.0,0.0,0.0,0.0,0.0,0.0,0.0,0.0,0.0,0.0,0.0,0.0,0.0,0.0,0.0,0.0,0.0,0.0,0.0,0.0,0.0,0.0,0.0,0.0,0.0,0.0,0.0,0.0,0.0,0.0,0.0,0.0,0.0,0.0,0.0,0.0,0.0,0.0,0.0,0.0,0.0,0.0,0.0,0.0,0.0,0.0,0.0,0.0,0.0,0.0,0.0,0.0,0.0,0.0,0.0,0.0,0.0,0.0,0.0,0.0,0.0,0.0,0.0,0.0,0.0,0.0,0.0,0.0,0.0,0.0,0.0,0.0,0.0,0.0,0.0,0.0,0.0,0.0,0.0,0.0,0.0,0.0,0.0,0.0,0.0,0.0,0.0,0.0,0.0,0.0,0.0,0.0,0.0,0.0,0.0,0.0,0.0,0.0,0.0,0.0,0.0,0.0,0.0,0.0,0.0,0.0,0.0,0.0,0.0,0.0,0.0,0.0,0.0,0.0,0.0,0.0,0.0,0.0,0.0,0.0,0.0,0.0,0.0,0.0,0.0,0.0,0.0,0.0,0.0,0.0,0.0,0.0,0.0,0.0,0.0,0.0,0.0,0.0,0.0,0.0,0.0,0.0,0.0,0.0,0.0,0.0,0.0,0.0,0.0,0.0,0.0,0.0,0.0,0.0,0.0,0.0,0.0,0.0,0.0,0.0,0.0,0.0,0.0,0.0,0.0,0.0,0.0,0.0,0.0,0.0,0.0,0.0,0.0,0.0,0.0,0.0,0.0,0.0,0.0,0.0,0.0,0.0,0.0,0.0,0.0,0.0,0.0,0.0,0.0,0.0,0.0,0.0,0.0,0.0,0.0,0.0,0.0,0.0,0.0,0.0,0.0,0.0,0.0,0.0,0.0,0.0,0.0,0.0,0.0,0.0,0.0,0.0,0.0,0.0,0.0,0.0,0.0,0.0,0.0,0.0,0.0,0.0,0.0,0.0,0.0,0.0,0.0,0.0,0.0,0.0,0.0,0.0,0.0,0.0,0.0,0.0,0.0,0.0,0.0,0.0,0.0,0.0,0.0,0.0,0.0,0.0,0.0,0.0,0.0,0.0,0.0,0.0,0.0,0.0,0.0,0.0,0.0,0.0,0.0,0.0,0.0,0.0,0.0,0.0,0.0,0.0,0.0,0.0,0.0,0.0,0.0,0.0,0.0,0.0,0.0,0.0,0.0,0.0,0.0,0.0,0.0,0.0,0.0,0.0,0.0,0.0,0.0,0.0,0.0,0.0,0.0,0.0,0.0,0.0,0.0,0.0,0.0,0.0,0.0,0.0,0.0,0.0,0.0,0.0,0.0,0.0,0.0,0.0,0.0,0.0,0.0,0.0,0.0,0.0,0.0,0.0,0.0,0.0,0.0,0.0,0.0,0.0,0.0,0.0,0.0,0.0,0.0,0.0,0.0,0.0,0.0,0.0,0.0,0.0,0.0,0.0,0.0,0.0,0.0,0.0,0.0,0.0,0.0,0.0,0.0,0.0,0.0,0.0,0.0,0.0,0.0,0.0,0.0,0.0,0.0,0.0,0.0,0.0,0.0,0.0,0.0,0.0,0.0,0.0,0.0,0.0,0.0,0.0,0.0,0.0,0.0,0.0,0.0,0.0,0.0,0.0,0.0,0.0,0.0,0.0,0.0,0.0,0.0,0.0,0.0,0.0,0.0,0.0,0.0,0.0,0.0,0.0,0.0,0.0,0.0,0.0,0.0,0.0,0.0,0.0,0.0,0.0,0.0,0.0,0.0,0.0,0.0,0.0,0.0,0.0,0.0,0.0,0.0,0.0,0.0,0.0,0.0,2.7648,0.0,0.0,0.0,2.7885,0.0,0.0,0.0,0.0,0.0,0.0,0.0,0.0,0.0,0.0,0.0,0.0,0.0,0.0,0.0,0.0,0.0,0.0,0.0,0.0,0.0,0.0,0.0,0.0,0.0,0.0,0.0,0.0,0.0,0.0,0.0,0.0,0.0,0.0,0.0,0.0,0.0,0.0,0.0,0.0,0.0,0.0,0.0,0.0,0.0,0.0,0.0,0.0,0.0,0.0,0.0,0.0,0.0,0.0,0.0,0.0,0.0,0.0,0.0,0.0,0.0,0.0,0.0,0.0,0.0,0.0,0.0,0.0,0.0,0.0,0.0,0.0,0.0,0.0,0.0,0.0,0.0,0.0,0.0,0.0,0.0,0.0,0.0,0.0,0.0,0.0,0.0,0.0,0.0,0.0,0.0,0.0,0.0,0.0,0.0,0.0,0.0,0.0,0.0,0.0,0.0,0.0,0.0,0.0,0.0,0.0,0.0,0.0,0.0,0.0,2.8377,2.9236,2.847,2.8414,2.927,0.0,0.0,0.0,0.0,0.0,0.0,0.0,0.0,0.0,0.0,0.0,0.0,0.0,0.0,0.0,0.0,0.0,0.0,0.0,0.0,0.0,0.0,0.0,0.0,0.0,0.0,0.0,0.0,0.0,0.0,0.0,0.0,0.0,0.0,0.0,0.0,0.0,0.0,0.0,0.0,0.0,0.0,0.0,0.0,0.0,0.0,0.0,0.0,0.0,0.0,0.0,0.0,0.0,0.0,0.0,0.0,0.0,0.0,0.0,0.0,0.0,0.0,0.0,0.0,0.0,0.0,0.0,0.0,0.0,0.0,0.0,0.0,0.0,0.0,0.0,0.0,0.0,0.0,0.0,0.0,0.0,0.0,0.0,0.0,0.0,0.0,0.0,0.0,0.0,0.0,0.0,0.0,0.0,0.0,0.0,0.0,0.0,0.0,0.0,0.0,0.0,0.0,0.0,0.0,0.0,0.0,0.0,0.0,0.0,0.0,0.0,0.0,2.9298,2.9234,3.0441,0.0,0.0,0.0,0.0,0.0,0.0,0.0,0.0,0.0,0.0,0.0,0.0,0.0,0.0,0.0,0.0,0.0,0.0,0.0,0.0,0.0,0.0,0.0,0.0,0.0,0.0,0.0,0.0,0.0,0.0,0.0,0.0,0.0,0.0,0.0,0.0,0.0,0.0,0.0,0.0,0.0,0.0,0.0,0.0,0.0,0.0,0.0,0.0,0.0,0.0,0.0,0.0,0.0,0.0,0.0,0.0,0.0,0.0,0.0,0.0,0.0,0.0,0.0,0.0,0.0,0.0,0.0,0.0,0.0,0.0,0.0,0.0,0.0,0.0,0.0,0.0,0.0,0.0,0.0,0.0,0.0,0.0,0.0,0.0,0.0,0.0,0.0,0.0,0.0,0.0,0.0,0.0,0.0,0.0,0.0,0.0,0.0,0.0,0.0,0.0,0.0,0.0,0.0,0.0,0.0,0.0,0.0,0.0,0.0,0.0,3.0432,3.0586,3.0436,0.0,3.0568,0.0,0.0,0.0,0.0,0.0,0.0,0.0,0.0,0.0,0.0,0.0,0.0,0.0,0.0,0.0,0.0,0.0,0.0,0.0,0.0,0.0,0.0,0.0,0.0,0.0,0.0,0.0,0.0,0.0,0.0,0.0,0.0,0.0,0.0,0.0,0.0,0.0,0.0,0.0,0.0,0.0,0.0,0.0,0.0,0.0,0.0,0.0,0.0,0.0,0.0,0.0,0.0,0.0,0.0,0.0,0.0,0.0,0.0,0.0,0.0,0.0,0.0,0.0,0.0,0.0,0.0,0.0,0.0,0.0,0.0,0.0,0.0,0.0,0.0,0.0,0.0,0.0,0.0,0.0,0.0,0.0,0.0,0.0,0.0,0.0,0.0,0.0,0.0,0.0,0.0,0.0,0.0,0.0,0.0,0.0,0.0,0.0,0.0,0.0,0.0,0.0,0.0,0.0,0.0,0.0,0.0,0.0,0.0,0.0,0.0,3.0658,3.0657,3.0657,3.0672,0.0,0.0,0.0,0.0,0.0,0.0,0.0,0.0,0.0,0.0,0.0,0.0,0.0,0.0,0.0,0.0,0.0,0.0,0.0,0.0,0.0,0.0,0.0,0.0,0.0,0.0,0.0,0.0,0.0,0.0,0.0,0.0,0.0,0.0,0.0,0.0,0.0,0.0,0.0,0.0,0.0,0.0,0.0,0.0,0.0,0.0,0.0,0.0,0.0,0.0,0.0,0.0,0.0,0.0,0.0,0.0,0.0,0.0,0.0,0.0,0.0,0.0,0.0,0.0,0.0,0.0,0.0,0.0,0.0,0.0,0.0,0.0,0.0,0.0,0.0,0.0,0.0,0.0,0.0,0.0,0.0,0.0,0.0,0.0,0.0,0.0,0.0,0.0,0.0,0.0,0.0,0.0,0.0,0.0,0.0,0.0,0.0,0.0,0.0,0.0,0.0,0.0,0.0,0.0,0.0,0.0,0.0,0.0,0.0,0.0,3.0998,3.1441,3.1424,3.1426,3.1348,3.1114,0.0,0.0,0.0,0.0,0.0,0.0,0.0,0.0,0.0,0.0,0.0,0.0,0.0,0.0,0.0,0.0,0.0,0.0,0.0,0.0,0.0,0.0,0.0,0.0,0.0,0.0,0.0,0.0,0.0,0.0,0.0,0.0,0.0,0.0,0.0,0.0,0.0,0.0,0.0,0.0,0.0,0.0,0.0,0.0,0.0,0.0,0.0,0.0,0.0,0.0,0.0,0.0,0.0,0.0,0.0,0.0,0.0,0.0,0.0,0.0,0.0,0.0,0.0,0.0,0.0,0.0,0.0,0.0,0.0,0.0,0.0,0.0,0.0,0.0,0.0,0.0,0.0,0.0,0.0,0.0,0.0,0.0,0.0,0.0,0.0,0.0,0.0,0.0,0.0,0.0,0.0,0.0,0.0,0.0,0.0,0.0,0.0,0.0,0.0,0.0,0.0,0.0,0.0,0.0,0.0,0.0,0.0,0.0,3.1967,3.2829,3.3258,3.3222,3.3261,3.2873,0.0,0.0,0.0,0.0,0.0,0.0,0.0,0.0,0.0,0.0,0.0,0.0,0.0,0.0,0.0,0.0,0.0,0.0,0.0,0.0,0.0,0.0,0.0,0.0,0.0,0.0,0.0,0.0,0.0,0.0,0.0,0.0,0.0,0.0,0.0,0.0,0.0,0.0,0.0,0.0,0.0,0.0,0.0,0.0,0.0,0.0,0.0,0.0,0.0,0.0,0.0,0.0,0.0,0.0,0.0,0.0,0.0,0.0,0.0,0.0,0.0,0.0,0.0,0.0,0.0,0.0,0.0,0.0,0.0,0.0,0.0,0.0,0.0,0.0,0.0,0.0,0.0,0.0,0.0,0.0,0.0,0.0,0.0,0.0,0.0,0.0,0.0,0.0,0.0,0.0,0.0,0.0,0.0,0.0,0.0,0.0,0.0,0.0,0.0,0.0,0.0,0.0,0.0,0.0,0.0,0.0,0.0,0.0,0.0,3.2907,3.3258,3.3375,3.3378,3.3378,3.3261,0.0,0.0,0.0,0.0,0.0,0.0,0.0,0.0,0.0,0.0,0.0,0.0,0.0,0.0,0.0,0.0,0.0,0.0,0.0,0.0,0.0,0.0,0.0,0.0,0.0,0.0,0.0,0.0,0.0,0.0,0.0,0.0,0.0,0.0,0.0,0.0,0.0,0.0,0.0,0.0,0.0,0.0,0.0,0.0,0.0,0.0,0.0,0.0,0.0,0.0,0.0,0.0,0.0,0.0,0.0,0.0,0.0,0.0,0.0,0.0,0.0,0.0,0.0,0.0,0.0,0.0,0.0,0.0,0.0,0.0,0.0,0.0,0.0,0.0,0.0,0.0,0.0,0.0,0.0,0.0,0.0,0.0,0.0,0.0,0.0,0.0,0.0,0.0,0.0,0.0,0.0,0.0,0.0,0.0,0.0,0.0,0.0,0.0,0.0,0.0,0.0,0.0,0.0,0.0,0.0,0.0,0.0,0.0,0.0,3.5054,3.5093,3.5093,3.5096,3.5096,3.4822,0.0,0.0,0.0,0.0,0.0,0.0,0.0,0.0,0.0,0.0,0.0,0.0,0.0,0.0,0.0,0.0,0.0,0.0,0.0,0.0,0.0,0.0,0.0,0.0,0.0,0.0,0.0,0.0,0.0,0.0,0.0,0.0,0.0,0.0,0.0,0.0,0.0,0.0,0.0,0.0,0.0,0.0,0.0,0.0,0.0,0.0,0.0,0.0,0.0,0.0,0.0,0.0,0.0,0.0,0.0,0.0,0.0,0.0,0.0,0.0,0.0,0.0,0.0,0.0,0.0,0.0,0.0,0.0,0.0,0.0,0.0,0.0,0.0,0.0,0.0,0.0,0.0,0.0,0.0,0.0,0.0,0.0,0.0,0.0,0.0,0.0,0.0,0.0,0.0,0.0,0.0,0.0,0.0,0.0,0.0,0.0,0.0,0.0,0.0,0.0,0.0,0.0,0.0,0.0,0.0,0.0,0.0,0.0,3.6852,3.8453,3.8495,3.8378,3.8573,3.8453,3.7711,0.0,0.0,0.0,0.0,0.0,0.0,0.0,0.0,0.0,0.0,0.0,0.0,0.0,0.0,0.0,0.0,0.0,0.0,0.0,0.0,0.0,0.0,0.0,0.0,0.0,0.0,0.0,0.0,0.0,0.0,0.0,0.0,0.0,0.0,0.0,0.0,0.0,0.0,0.0,0.0,0.0,0.0,0.0,0.0,0.0,0.0,0.0,0.0,0.0,0.0,0.0,0.0,0.0,0.0,0.0,0.0,0.0,0.0,0.0,0.0,0.0,0.0,0.0,0.0,0.0,0.0,0.0,0.0,0.0,0.0,0.0,0.0,0.0,0.0,0.0,0.0,0.0,0.0,0.0,0.0,0.0,0.0,0.0,0.0,0.0,0.0,0.0,0.0,0.0,0.0,0.0,0.0,0.0,0.0,0.0,0.0,0.0,0.0,0.0,0.0,0.0,0.0,0.0,0.0,0.0,0.0,0.0,0.0,0.0,3.8612,3.8586,3.8588,3.8612,3.8609,3.8375,0.0,0.0,0.0,0.0,0.0,0.0,0.0,0.0,0.0,0.0,0.0,0.0,0.0,0.0,0.0,0.0,0.0,0.0,0.0,0.0,0.0,0.0,0.0,0.0,0.0,0.0,0.0,0.0,0.0,0.0,0.0,0.0,0.0,0.0,0.0,0.0,0.0,0.0,0.0,0.0,0.0,0.0,0.0,0.0,0.0,0.0,0.0,0.0,0.0,0.0,0.0,0.0,0.0,0.0,0.0,0.0,0.0,0.0,0.0,0.0,0.0,0.0,0.0,0.0,0.0,0.0,0.0,0.0,0.0,0.0,0.0,0.0,0.0,0.0,0.0,0.0,0.0,0.0,0.0,0.0,0.0,0.0,0.0,0.0,0.0,0.0,0.0,0.0,0.0,0.0,0.0,0.0,0.0,0.0,0.0,0.0,0.0,0.0,0.0,0.0,0.0,0.0,0.0,0.0,0.0,0.0,0.0,0.0,0.0,4.2017,4.1947,4.1792,4.1476,4.1789,4.1043,3.9159,0.0,0.0,0.0,0.0,0.0,0.0,0.0,0.0,0.0,0.0,0.0,0.0,0.0,0.0,0.0,0.0,0.0,0.0,0.0,0.0,0.0,0.0,0.0,0.0,0.0,0.0,0.0,0.0,0.0,0.0,0.0,0.0,0.0,0.0,0.0,0.0,0.0,0.0,0.0,0.0,0.0,0.0,0.0,0.0,0.0,0.0,0.0,0.0,0.0,0.0,0.0,0.0,0.0,0.0,0.0,0.0,0.0,0.0,0.0,0.0,0.0,0.0,0.0,0.0,0.0,0.0,0.0,0.0,0.0,0.0,0.0,0.0,0.0,0.0,0.0,0.0,0.0,0.0,0.0,0.0,0.0,0.0,0.0,0.0,0.0,0.0,0.0,0.0,0.0,0.0,0.0,0.0,0.0,0.0,0.0,0.0,0.0,0.0,0.0,0.0,0.0,0.0,0.0,0.0,0.0,0.0,0.0,0.0,4.7963,4.8072,4.7647,4.6601,4.7148,4.5272,0.0,0.0,0.0,0.0,0.0,0.0,0.0,0.0,0.0,0.0,0.0,0.0,0.0,0.0,0.0,0.0,0.0,0.0,0.0,0.0,0.0,0.0,0.0,0.0,0.0,0.0,0.0,0.0,0.0,0.0,0.0,0.0,0.0,0.0,0.0,0.0,0.0,0.0,0.0,0.0,0.0,0.0,0.0,0.0,0.0,0.0,0.0,0.0,0.0,0.0,0.0,0.0,0.0,0.0,0.0,0.0,0.0,0.0,0.0,0.0,0.0,0.0,0.0,0.0,0.0,0.0,0.0,0.0,0.0,0.0,0.0,0.0,0.0,0.0,0.0,0.0,0.0,0.0,0.0,0.0,0.0,0.0,0.0,0.0,0.0,0.0,0.0,0.0,0.0,0.0,0.0,0.0,0.0,0.0,0.0,0.0,0.0,0.0,0.0,0.0,0.0,0.0,0.0,0.0,0.0,0.0,0.0,0.0,0.0,5.2248,5.4214,5.3551,5.0186,4.8475,4.6679,0.0,0.0,0.0,0.0,0.0,0.0,0.0,0.0,0.0,0.0,0.0,0.0,0.0,0.0,0.0,0.0,0.0,0.0,0.0,0.0,0.0,0.0,0.0,0.0,0.0,0.0,0.0,0.0,0.0,0.0,0.0,0.0,0.0,0.0,0.0,0.0,0.0,0.0,0.0,0.0,0.0,0.0,0.0,0.0,0.0,0.0,0.0,0.0,0.0,0.0,0.0,0.0,0.0,0.0,0.0,0.0,0.0,0.0,0.0,0.0,0.0,0.0,0.0,0.0,0.0,0.0,0.0,0.0,0.0,0.0,0.0,0.0,0.0,0.0,0.0,0.0,0.0,0.0,0.0,0.0,0.0,0.0,0.0,0.0,0.0,0.0,0.0,0.0,0.0,0.0,0.0,0.0,0.0,0.0,0.0,0.0,0.0,0.0,0.0,0.0,0.0,0.0,0.0,0.0,0.0,0.0,0.0,0.0,5.198,5.4002,5.7614,5.8281,5.5815,5.2226,4.918,0.0,0.0,0.0,0.0,0.0,0.0,0.0,0.0,0.0,0.0,0.0,0.0,0.0,0.0,0.0,0.0,0.0,0.0,0.0,0.0,0.0,0.0,0.0,0.0,0.0,0.0,0.0,0.0,0.0,0.0,0.0,0.0,0.0,0.0,0.0,0.0,0.0,0.0,0.0,0.0,0.0,0.0,0.0,0.0,0.0,0.0,0.0,0.0,0.0,0.0,0.0,0.0,0.0,0.0,0.0,0.0,0.0,0.0,0.0,0.0,0.0,0.0,0.0,0.0,0.0,0.0,0.0,0.0,0.0,0.0,0.0,0.0,0.0,0.0,0.0,0.0,0.0,0.0,0.0,0.0,0.0,0.0,0.0,0.0,0.0,0.0,0.0,0.0,0.0,0.0,0.0,0.0,0.0,0.0,0.0,0.0,0.0,0.0,0.0,0.0,0.0,0.0,0.0,0.0,0.0,0.0,0.0,0.0,5.4295,5.4591,5.9412,6.1914,6.168,5.6758,5.2187,0.0,0.0,0.0,0.0,0.0,0.0,0.0,0.0,0.0,0.0,0.0,0.0,0.0,0.0,0.0,0.0,0.0,0.0,0.0,0.0,0.0,0.0,0.0,0.0,0.0,0.0,0.0,0.0,0.0,0.0,0.0,0.0,0.0,0.0,0.0,0.0,0.0,0.0,0.0,0.0,0.0,0.0,0.0,0.0,0.0,0.0,0.0,0.0,0.0,0.0,0.0,0.0,0.0,0.0,0.0,0.0,0.0,0.0,0.0,0.0,0.0,0.0,0.0,0.0,0.0,0.0,0.0,0.0,0.0,0.0,0.0,0.0,0.0,0.0,0.0,0.0,0.0,0.0,0.0,0.0,0.0,0.0,0.0,0.0,0.0,0.0,0.0,0.0,0.0,0.0,0.0,0.0,0.0,0.0,0.0,0.0,0.0,0.0,0.0,0.0,0.0,0.0,0.0,0.0,0.0,0.0,0.0,0.0,5.6015,5.8085,6.1797,6.3398,6.2695,5.707,5.3242,0.0,0.0,0.0,0.0,0.0,0.0,0.0,0.0,0.0,0.0,0.0,0.0,0.0,0.0,0.0,0.0,0.0,0.0,0.0,0.0,0.0,0.0,0.0,0.0,0.0,0.0,0.0,0.0,0.0,0.0,0.0,0.0,0.0,0.0,0.0,0.0,0.0,0.0,0.0,0.0,0.0,0.0,0.0,0.0,0.0,0.0,0.0,0.0,4.1235,0.0,0.0,0.0,0.0,0.0,0.0,0.0,0.0,0.0,0.0,0.0,0.0,0.0,0.0,0.0,0.0,0.0,0.0,0.0,0.0,0.0,0.0,0.0,0.0,0.0,0.0,0.0,0.0,0.0,0.0,0.0,0.0,0.0,0.0,0.0,0.0,0.0,0.0,0.0,0.0,0.0,0.0,0.0,0.0,0.0,0.0,0.0,0.0,0.0,0.0,0.0,0.0,0.0,0.0,0.0,0.0,0.0,0.0,0.0,5.6758,5.9726,6.2734,6.4062,6.3476,5.8945,5.5469,0.0,0.0,0.0,0.0,0.0,0.0,0.0,0.0,0.0,0.0,0.0,0.0,0.0,0.0,0.0,0.0,0.0,0.0,0.0,0.0,0.0,0.0,0.0,0.0,0.0,0.0,0.0,0.0,0.0,0.0,0.0,0.0,0.0,0.0,0.0,0.0,0.0,0.0,0.0,0.0,0.0,0.0,0.0,0.0,0.0,0.0,0.0,0.0,0.0,0.0,0.0,0.0,0.0,0.0,0.0,0.0,0.0,0.0,0.0,0.0,0.0,0.0,0.0,0.0,0.0,0.0,0.0,0.0,0.0,0.0,0.0,0.0,0.0,0.0,0.0,0.0,0.0,0.0,0.0,0.0,0.0,0.0,0.0,0.0,0.0,0.0,0.0,0.0,0.0,0.0,0.0,0.0,0.0,0.0,0.0,0.0,0.0,0.0,0.0,0.0,0.0,0.0,0.0,0.0,0.0,0.0,0.0,5.4453,5.7578,6.1289,6.3555,6.4687,6.4648,6.1367,5.789,5.4297,0.0,0.0,0.0,0.0,0.0,0.0,0.0,0.0,0.0,0.0,0.0,0.0,0.0,0.0,0.0,0.0,0.0,0.0,0.0,0.0,0.0,0.0,0.0,0.0,0.0,0.0,0.0,0.0,0.0,0.0,0.0,0.0,0.0,0.0,0.0,0.0,0.0,0.0,3.7627,3.8204,0.0,0.0,0.0,0.0,0.0,0.0,0.0,0.0,4.3916,0.0,0.0,0.0,0.0,0.0,0.0,0.0,0.0,0.0,0.0,0.0,0.0,0.0,0.0,0.0,0.0,0.0,0.0,0.0,0.0,0.0,0.0,0.0,0.0,0.0,0.0,0.0,0.0,0.0,0.0,0.0,0.0,0.0,0.0,0.0,0.0,0.0,0.0,0.0,0.0,0.0,0.0,0.0,0.0,0.0,0.0,0.0,0.0,0.0,0.0,0.0,0.0,0.0,0.0,0.0,0.0,5.4609,5.6523,6.0195,6.5664,6.625,6.6484,6.6406,6.3086,5.9336,5.5234,0.0,0.0,0.0,0.0,0.0,0.0,0.0,0.0,0.0,0.0,0.0,0.0,0.0,0.0,0.0,0.0,0.0,0.0,0.0,0.0,0.0,0.0,0.0,0.0,0.0,0.0,0.0,0.0,0.0,0.0,0.0,0.0,0.0,0.0,0.0,0.0,0.0,0.0,0.0,4.1557,4.1777,0.0,0.0,0.0,0.0,0.0,0.0,0.0,0.0,4.6173,0.0,0.0,0.0,0.0,0.0,0.0,0.0,0.0,0.0,0.0,0.0,0.0,0.0,0.0,0.0,0.0,0.0,0.0,0.0,0.0,0.0,0.0,0.0,0.0,0.0,0.0,0.0,0.0,0.0,0.0,0.0,0.0,0.0,0.0,0.0,0.0,0.0,0.0,0.0,0.0,0.0,0.0,0.0,0.0,0.0,0.0,0.0,0.0,0.0,0.0,0.0,0.0,0.0,0.0,0.0,5.6523,5.9219,6.3047,6.8047,6.8203,6.8203,6.8125,6.4414,6.0586,0.0,0.0,0.0,0.0,0.0,0.0,0.0,0.0,0.0,0.0,0.0,0.0,0.0,0.0,0.0,0.0,0.0,0.0,0.0,0.0,0.0,0.0,0.0,0.0,0.0,0.0,0.0,0.0,0.0,0.0,0.0,0.0,0.0,0.0,0.0,0.0,0.0,0.0,0.0,0.0,4.4239,4.5399,4.9276,0.0,0.0,0.0,0.0,0.0,0.0,4.9292,4.7903,0.0,0.0,0.0,0.0,0.0,0.0,0.0,0.0,0.0,0.0,0.0,0.0,0.0,0.0,0.0,0.0,0.0,0.0,0.0,0.0,0.0,0.0,0.0,0.0,0.0,0.0,0.0,0.0,0.0,0.0,0.0,0.0,0.0,0.0,0.0,0.0,0.0,0.0,0.0,0.0,0.0,0.0,0.0,0.0,0.0,0.0,0.0,0.0,0.0,0.0,0.0,0.0,0.0,0.0,0.0,5.8086,6.1719,6.5625,6.9765,6.9609,6.957,6.9805,6.5273,6.1289,0.0,0.0,0.0,0.0,0.0,0.0,0.0,0.0,0.0,0.0,0.0,0.0,0.0,0.0,0.0,0.0,0.0,0.0,0.0,0.0,0.0,0.0,0.0,0.0,0.0,0.0,0.0,0.0,0.0,0.0,0.0,0.0,0.0,0.0,0.0,0.0,0.0,0.0,0.0,0.0,0.0,4.8716,5.2305,5.1292,0.0,0.0,0.0,0.0,5.1615,5.1039,0.0,0.0,0.0,0.0,0.0,0.0,0.0,0.0,0.0,0.0,0.0,0.0,0.0,0.0,0.0,0.0,0.0,0.0,0.0,0.0,0.0,0.0,0.0,0.0,0.0,0.0,0.0,0.0,0.0,0.0,0.0,0.0,0.0,0.0,0.0,0.0,0.0,0.0,0.0,0.0,0.0,0.0,0.0,0.0,0.0,0.0,0.0,0.0,0.0,0.0,0.0,0.0,0.0,0.0,0.0,0.0,5.9062,6.3164,6.7383,7.1406,7.0195,7.0117,7.1562,6.5312,6.0976,0.0,0.0,0.0,0.0,0.0,0.0,0.0,0.0,0.0,0.0,0.0,0.0,0.0,0.0,0.0,0.0,0.0,0.0,0.0,0.0,0.0,0.0,0.0,0.0,0.0,0.0,0.0,0.0,0.0,0.0,0.0,0.0,0.0,0.0,0.0,0.0,0.0,0.0,0.0,0.0,0.0,4.9897,5.4159,5.274,5.144,0.0,0.0,5.6163,5.6792,5.7456,0.0,0.0,0.0,0.0,0.0,0.0,0.0,0.0,0.0,0.0,0.0,0.0,0.0,0.0,0.0,0.0,0.0,0.0,0.0,0.0,0.0,0.0,0.0,0.0,0.0,0.0,0.0,0.0,0.0,0.0,0.0,0.0,0.0,0.0,0.0,0.0,0.0,0.0,0.0,0.0,0.0,0.0,0.0,0.0,0.0,0.0,0.0,0.0,0.0,0.0,0.0,0.0,0.0,0.0,0.0,5.7656,6.0703,6.6289,7.0351,7.2617,7.1992,7.1719,7.1992,6.5781,6.1875,0.0,0.0,0.0,0.0,0.0,0.0,0.0,0.0,0.0,0.0,0.0,0.0,0.0,0.0,0.0,0.0,0.0,0.0,0.0,0.0,0.0,0.0,0.0,0.0,0.0,0.0,0.0,0.0,0.0,0.0,0.0,0.0,0.0,0.0,0.0,0.0,0.0,0.0,0.0,0.0,0.0,0.0,5.4869,5.5134,0.0,0.0,0.0,5.805,5.5977,0.0,0.0,0.0,0.0,0.0,0.0,0.0,0.0,0.0,0.0,0.0,0.0,0.0,0.0,0.0,0.0,0.0,0.0,0.0,0.0,0.0,0.0,0.0,0.0,0.0,0.0,0.0,0.0,0.0,0.0,0.0,0.0,0.0,0.0,0.0,0.0,0.0,0.0,0.0,0.0,0.0,0.0,0.0,0.0,0.0,0.0,0.0,0.0,0.0,0.0,0.0,0.0,0.0,0.0,0.0,0.0,0.0,6.2422,6.8945,7.2734,7.3594,7.3203,7.2773,7.2265,6.7305,0.0,0.0,0.0,0.0,0.0,0.0,0.0,0.0,0.0,0.0,0.0,0.0,0.0,0.0,0.0,0.0,0.0,0.0,0.0,0.0,0.0,0.0,0.0,0.0,0.0,0.0,0.0,3.1856,0.0,0.0,0.0,0.0,0.0,0.0,0.0,0.0,0.0,0.0,0.0,0.0,0.0,0.0,5.4818,5.5804,5.7259,5.8233,0.0,0.0,5.9777,5.7031,6.0349,6.133,0.0,0.0,0.0,0.0,0.0,0.0,0.0,0.0,0.0,0.0,0.0,0.0,0.0,0.0,0.0,0.0,0.0,0.0,0.0,0.0,0.0,0.0,0.0,0.0,0.0,0.0,0.0,0.0,0.0,0.0,0.0,0.0,0.0,0.0,0.0,0.0,0.0,0.0,0.0,0.0,0.0,0.0,0.0,0.0,0.0,0.0,0.0,0.0,0.0,0.0,0.0,0.0,0.0,0.0,6.2305,6.4258,7.0117,7.3633,7.4414,7.293,7.2461,7.3164,7.0469,6.7031,0.0,0.0,0.0,0.0,0.0,0.0,0.0,0.0,0.0,0.0,0.0,0.0,0.0,0.0,0.0,0.0,0.0,0.0,0.0,0.0,0.0,0.0,0.0,0.0,0.0,0.0,0.0,0.0,0.0,0.0,0.0,0.0,0.0,0.0,0.0,0.0,0.0,0.0,0.0,0.0,0.0,5.6572,5.7586,5.8512,5.9959,0.0,6.2016,6.2058,6.3364,6.5858,6.5897,6.0705,0.0,0.0,0.0,0.0,0.0,0.0,0.0,0.0,0.0,0.0,0.0,0.0,0.0,0.0,0.0,0.0,0.0,0.0,0.0,0.0,0.0,0.0,0.0,0.0,0.0,0.0,0.0,0.0,0.0,0.0,0.0,0.0,0.0,0.0,0.0,0.0,0.0,0.0,0.0,0.0,0.0,0.0,0.0,0.0,0.0,0.0,0.0,0.0,0.0,0.0,0.0,0.0,0.0,6.3633,6.5937,7.1289,7.4258,7.4531,7.3437,7.2695,7.25,7.0,6.7383,0.0,0.0,0.0,0.0,0.0,0.0,0.0,0.0,0.0,0.0,0.0,0.0,0.0,0.0,0.0,0.0,0.0,0.0,0.0,0.0,0.0,0.0,0.0,0.0,0.0,0.0,0.0,0.0,4.444,4.5486,4.5597,0.0,0.0,0.0,0.0,0.0,0.0,0.0,0.0,0.0,0.0,5.8226,6.0675,6.1793,0.0,0.0,6.519,6.5307,6.4447,6.6429,6.634,6.1225,6.0124,0.0,0.0,0.0,0.0,0.0,0.0,0.0,0.0,0.0,0.0,0.0,0.0,0.0,0.0,0.0,0.0,0.0,0.0,0.0,0.0,0.0,0.0,0.0,0.0,0.0,0.0,0.0,0.0,0.0,0.0,0.0,0.0,0.0,0.0,0.0,0.0,0.0,0.0,0.0,0.0,0.0,0.0,0.0,0.0,0.0,0.0,0.0,0.0,0.0,0.0,0.0,0.0,6.5195,6.7305,7.2383,7.4961,7.5,7.414,7.3398,7.2773,7.1055,6.9062,0.0,0.0,0.0,0.0,0.0,0.0,0.0,0.0,0.0,0.0,0.0,0.0,0.0,0.0,0.0,0.0,0.0,0.0,0.0,0.0,0.0,0.0,0.0,0.0,0.0,0.0,0.0,0.0,4.7807,4.8658,4.806,0.0,0.0,0.0,0.0,0.0,0.0,0.0,0.0,0.0,0.0,6.0604,6.2719,6.3742,6.4605,6.5465,6.6127,6.6205,6.5234,6.6599,6.651,6.2947,0.0,0.0,0.0,0.0,0.0,0.0,0.0,0.0,0.0,0.0,0.0,0.0,0.0,0.0,0.0,0.0,0.0,0.0,0.0,0.0,0.0,0.0,0.0,0.0,0.0,0.0,0.0,4.1094,0.0,0.0,4.1094,0.0,0.0,0.0,0.0,0.0,0.0,0.0,0.0,0.0,0.0,0.0,0.0,0.0,0.0,0.0,0.0,0.0,0.0,0.0,0.0,0.0,0.0,6.7265,6.8242,7.3203,7.5859,7.582,7.5,7.4531,7.4492,7.4453,7.2851,6.9453,0.0,0.0,0.0,0.0,0.0,0.0,0.0,0.0,0.0,0.0,0.0,0.0,0.0,0.0,0.0,0.0,0.0,0.0,0.0,0.0,0.0,0.0,0.0,0.0,0.0,0.0,4.0781,4.5427,4.8938,0.0,0.0,0.0,0.0,0.0,0.0,0.0,0.0,0.0,0.0,6.0952,6.3852,6.3163,6.3777,6.4692,6.559,6.4317,6.4057,6.6484,6.6914,6.6872,0.0,0.0,0.0,0.0,0.0,0.0,0.0,0.0,0.0,0.0,0.0,0.0,0.0,0.0,0.0,0.0,0.0,0.0,0.0,0.0,0.0,0.0,0.0,0.0,0.0,0.0,0.0,4.4196,4.375,0.0,0.0,0.0,0.0,0.0,0.0,0.0,0.0,0.0,0.0,0.0,5.914,6.0,0.0,0.0,0.0,0.0,0.0,0.0,0.0,0.0,0.0,0.0,0.0,0.0,6.8164,6.918,7.3555,7.5898,7.5898,7.5039,7.457,7.457,7.457,7.3242,7.039,0.0,0.0,0.0,0.0,0.0,0.0,0.0,0.0,0.0,0.0,0.0,0.0,0.0,0.0,0.0,0.0,0.0,0.0,0.0,0.0,0.0,0.0,0.0,0.0,0.0,4.6405,0.0,0.0,0.0,0.0,0.0,0.0,0.0,0.0,0.0,0.0,0.0,5.8492,6.1342,6.2217,6.3124,6.4531,6.4959,6.6047,0.0,0.0,0.0,0.0,0.0,0.0,0.0,0.0,0.0,0.0,0.0,0.0,0.0,0.0,6.0457,5.6473,5.7098,5.8267,5.8258,0.0,0.0,0.0,0.0,0.0,0.0,0.0,0.0,0.0,0.0,0.0,0.0,0.0,0.0,5.0235,0.0,4.9419,0.0,0.0,0.0,0.0,0.0,0.0,0.0,0.0,6.0944,6.2851,6.3906,6.4531,6.4805,0.0,6.3867,6.0962,0.0,0.0,0.0,0.0,0.0,0.0,0.0,0.0,6.9765,7.0469,7.4883,7.7226,7.7187,7.668,7.6394,7.6349,7.577,7.4609,7.2851,6.9258,6.6211,0.0,0.0,0.0,0.0,0.0,0.0,0.0,0.0,0.0,0.0,0.0,0.0,0.0,0.0,0.0,0.0,0.0,0.0,0.0,0.0,0.0,0.0,0.0,5.0898,0.0,0.0,0.0,0.0,0.0,0.0,0.0,0.0,0.0,5.7633,5.9546,6.2013,6.4831,6.4725,6.4687,6.5469,0.0,0.0,0.0,0.0,0.0,0.0,0.0,6.7066,6.6246,6.691,6.7691,6.8238,6.8547,6.8694,6.8683,0.0,0.0,6.2146,6.238,6.3512,6.3506,6.3966,6.4353,6.4362,6.4799,6.5544,0.0,0.0,0.0,0.0,0.0,0.0,0.0,0.0,5.8845,5.876,0.0,5.6263,0.0,0.0,0.0,0.0,5.6992,6.0742,0.0,0.0,6.9489,7.1172,6.832,6.8398,6.8476,6.8281,6.5976,6.509,6.5599,6.5012,0.0,0.0,0.0,0.0,0.0,0.0,7.207,7.2305,7.7109,7.9726,7.9687,7.9765,7.9729,7.9648,7.7979,7.6953,7.668,7.2851,7.0586,7.0312,6.3437,0.0,0.0,0.0,0.0,0.0,0.0,0.0,0.0,0.0,0.0,0.0,0.0,0.0,0.0,0.0,0.0,0.0,0.0,0.0,0.0,5.2695,0.0,0.0,0.0,0.0,0.0,0.0,0.0,0.0,0.0,0.0,5.994,6.2322,6.4987,6.664,0.0,0.0,0.0,0.0,6.8515,6.6328,6.5193,6.5026,6.6063,6.7464,6.9277,7.164,0.0,0.0,7.582,7.3828,7.2303,7.228,7.4251,7.418,6.8437,6.7539,6.7539,6.7539,6.7687,6.7395,6.7399,6.7963,6.8281,6.3571,0.0,0.0,0.0,0.0,6.021,6.0847,6.15,6.2105,6.2007,6.1408,6.1328,0.0,0.0,0.0,0.0,0.0,0.0,6.4001,6.6484,6.9661,7.1544,7.2461,7.3715,7.4023,7.3362,7.2635,7.2412,7.2617,7.3129,7.0169,6.4101,0.0,0.0,0.0,0.0,7.3555,7.4922,7.8633,8.0625,8.0625,8.125,8.1243,8.0634,7.8985,7.8025,7.8021,7.6738,7.4567,7.1542,6.9234,0.0,0.0,0.0,0.0,0.0,0.0,0.0,0.0,0.0,0.0,0.0,0.0,0.0,0.0,0.0,0.0,0.0,0.0,0.0,5.3711,5.7265,5.8515,0.0,0.0,0.0,0.0,0.0,0.0,0.0,0.0,0.0,6.654,6.5734,6.5663,0.0,0.0,6.5742,6.5625,6.7265,6.914,7.0859,7.0898,0.0,7.4411,7.3669,7.3006,7.375,7.5,7.5898,7.5898,7.6758,7.75,7.7461,7.8085,7.7969,7.6562,7.6015,7.5976,7.6055,7.6054,7.6014,7.6014,7.6054,7.6094,6.8966,6.5715,6.4018,6.3497,6.3863,6.4381,6.5114,6.6028,6.6569,6.6492,6.5951,6.5448,6.5216,6.5097,6.4984,0.0,0.0,0.0,6.8034,7.1324,7.2368,7.3488,7.4694,7.576,7.5817,7.5044,7.4983,7.5322,7.5927,7.5873,7.3812,7.0001,0.0,0.0,7.082,7.414,7.6523,7.8008,8.0976,8.2539,8.2539,8.3047,8.3047,8.2461,8.0768,7.9813,7.9772,7.8725,7.6898,7.4239,7.2515,6.9382,0.0,0.0,0.0,0.0,0.0,0.0,0.0,0.0,0.0,0.0,0.0,4.8516,4.7148,0.0,0.0,0.0,5.6055,5.7656,5.9687,6.1328,0.0,0.0,0.0,0.0,0.0,0.0,0.0,6.1875,6.6513,7.0054,7.0341,6.9412,6.9101,7.0312,6.957,6.8984,6.914,0.0,7.2383,7.4101,7.4023,7.4531,7.6601,7.6523,7.6484,7.75,7.8086,7.8437,7.8515,7.9765,8.0664,8.0742,8.0742,8.0742,8.0742,8.0742,8.0586,8.0273,8.0508,8.0742,8.0742,8.0742,8.082,7.2684,7.2375,6.8429,6.7191,6.781,6.7926,6.9357,7.1485,7.164,7.1717,7.1523,6.9241,6.8734,6.9517,6.8043,0.0,7.2059,7.1949,7.3463,7.6488,7.6604,7.6211,7.5407,7.5639,7.5368,7.4572,7.4595,7.5407,7.6761,7.533,7.5372,7.6962,7.738,7.6638,7.5039,7.8008,8.0156,8.1172,8.3594,8.5,8.5273,8.5231,8.5073,8.4875,8.3163,8.207,8.1732,7.9588,7.8183,7.7827,7.4247,7.1703,7.039,0.0,0.0,0.0,0.0,0.0,0.0,0.0,0.0,0.0,0.0,0.0,0.0,0.0,0.0,0.0,6.2265,0.0,6.6953,6.5039,0.0,0.0,0.0,6.4805,6.8047,6.8594,6.8945,6.9531,0.0,0.0,7.2422,7.3281,7.4492,7.6367,7.6133,7.5586,7.5,7.6211,7.7148,7.6601,7.5937,7.5547,7.6601,7.8047,7.9961,8.1836,8.25,8.2344,8.2344,8.2422,8.25,8.25,8.25,8.25,8.25,8.2578,8.2344,8.1679,8.1875,8.2265,8.2344,8.2304,8.2578,7.3612,7.3496,7.2491,7.1407,7.0518,7.1833,7.2723,7.338,7.4618,7.5198,7.5121,7.4541,7.4773,7.56,7.519,7.5484,7.6204,7.5531,7.5321,7.5553,7.6831,7.6978,7.6248,7.7534,7.8061,7.7867,7.7867,7.837,7.9299,7.9028,7.9409,8.0429,8.0689,7.9273,7.6484,7.8359,8.0469,8.2656,8.4062,8.6054,8.8672,8.8052,8.7308,8.6612,8.5449,8.4177,8.2893,8.2161,8.115,7.9821,7.8237,7.6088,7.3219,6.8665,0.0,0.0,0.0,0.0,0.0,0.0,0.0,0.0,0.0,5.539,5.3164,0.0,5.9531,0.0,6.4922,6.8398,6.9687,6.9219,0.0,0.0,6.789,6.8476,6.9961,7.1875,7.2617,7.1523,7.3905,7.5976,7.6836,7.7656,7.9336,8.2187,7.8203,7.5547,7.7226,7.8437,7.9531,8.0586,8.1562,8.2695,8.3047,8.3906,8.4219,8.4258,8.4258,8.4297,8.4297,8.4297,8.4297,8.4297,8.4258,8.4297,8.4258,8.4804,8.5156,8.4883,8.3594,8.25,8.3125,8.332,8.3554,7.5585,7.5546,7.516,7.4231,7.3032,7.3651,7.3883,7.3999,7.4889,7.5276,7.5314,7.6088,7.6668,7.7171,7.7945,7.8293,7.8216,7.7775,7.7311,7.6924,7.8224,7.8564,7.8142,7.9481,8.0125,8.0125,8.0111,8.0536,8.131,8.1426,8.1929,8.278,8.3192,8.228,8.0179,8.0708,8.1967,8.3849,8.5101,8.7065,8.9678,8.9274,8.84,8.7139,8.6121,8.4637,8.2625,8.1723,8.0648,7.9283,7.8535,7.7038,7.4587,7.1009,6.7986,0.0,0.0,0.0,0.0,0.0,0.0,0.0,0.0,0.0,0.0,0.0,6.3867,6.3906,6.793,7.043,7.0156,7.0469,7.0781,7.1015,7.1797,7.293,7.4531,7.6015,7.664,7.6094,7.8047,7.9961,8.1172,8.1719,8.2969,8.5664,8.2109,7.9844,8.1484,8.2031,8.25,8.3828,8.4531,8.5039,8.5586,8.5625,8.5469,8.5,8.4883,8.4883,8.4883,8.4883,8.4883,8.4883,8.4883,8.4883,8.4922,8.5273,8.5703,8.5937,8.5078,8.4492,8.5156,8.5312,8.5586,7.8216,7.8099,7.7365,7.6591,7.5895,7.516,7.4579,7.4038,7.4154,7.427,7.4502,7.6165,7.69,7.6978,7.8718,7.9492,7.9492,7.9569,7.9569,7.9531,8.0314,8.0662,8.055,8.1414,8.1839,8.1839,8.1826,8.2238,8.2935,8.2973,8.336,8.4121,8.492,8.4959,8.4301,8.3745,8.3924,8.48,8.6473,8.8057,8.9567,8.9353,8.8478,8.688,8.5925,8.4391,8.2096,8.0512,7.9185,7.8239,7.7471,7.6704,7.5739,7.2562,7.0129,0.0,6.5537,0.0,0.0,0.0,0.0,0.0,0.0,0.0,0.0,6.7969,6.8672,6.8984,7.1015,7.1875,7.082,7.1328,7.2656,7.4961,7.6015,7.75,7.9687,8.0117,8.0547,8.1406,8.2148,8.3281,8.4687,8.5078,8.5703,8.7148,8.6211,8.5351,8.6328,8.5742,8.5429,8.6406,8.5976,8.6015,8.5937,8.5781,8.582,8.582,8.6015,8.5781,8.6172,8.6133,8.6015,8.6054,8.625,8.6133,8.5898,8.6015,8.6289,8.7187,8.7226,8.7304,8.7617,8.7734,8.8125,8.0769,8.0769,8.0614,8.0459,8.0266,8.015,7.8099,7.4928,7.5624,7.632,7.7094,7.8733,7.9467,7.9608,8.131,8.2084,8.2122,8.2805,8.2767,8.2109,8.2985,8.296,8.2393,8.3218,8.3618,8.3618,8.3605,8.3708,8.3863,8.3863,8.394,8.4134,8.4895,8.5282,8.5204,0.0,0.0,0.0,8.773,8.9159,8.9499,8.812,8.688,8.5901,8.5526,0.0,8.3695,8.265,8.1693,8.0826,7.9463,0.0,0.0,0.0,0.0,0.0,0.0,0.0,0.0,0.0,0.0,0.0,7.0117,6.9453,6.8125,6.9336,7.1094,7.3164,7.3828,7.5117,7.75,7.7305,7.7461,7.8594,7.9531,8.0508,8.1679,8.2422,8.3203,8.4062,8.4297,8.4804,8.582,8.5937,8.664,8.8164,8.8203,8.8359,8.9101,8.789,8.7344,8.8047,8.8437,8.8945,8.9023,8.8945,8.9023,8.9883,9.0078,9.0234,9.0703,9.0898,9.1015,9.0937,9.1133,9.1015,9.1015,9.1172,9.0898,9.1289,9.1328,9.1015,8.9804,8.957,8.9961,8.278,8.278,8.278,8.2548,0.0,8.2161,8.0691,7.8293,7.8718,7.9183,7.9647,8.0937,8.1478,8.1542,8.2393,8.278,8.278,8.2819,8.2819,8.2819,8.3283,8.367,8.4057,8.4495,8.492,8.5345,8.5333,8.5333,8.5372,8.5759,8.5991,8.5991,8.6404,8.6829,8.7332,8.724,8.6865,8.6103,8.734,8.8478,8.9306,8.8481,8.7371,8.6172,8.6416,0.0,0.0,0.0,0.0,0.0,0.0,0.0,0.0,0.0,0.0,7.7102,7.515,7.4414,7.536,7.5899,7.6388,7.6953,7.7031,7.5625,7.2265,7.3945,7.5859,7.7578,7.7773,7.8633,8.0703,8.0976,8.1172,8.1601,8.2422,8.3125,8.3515,8.3945,8.4765,8.5937,8.6172,8.664,8.789,8.8086,8.8359,8.9179,8.9336,8.9531,8.9844,8.9297,8.8945,8.9297,8.9648,9.0156,9.0547,9.0664,9.0937,9.1679,9.1953,9.2109,9.2539,9.2578,9.2578,9.2578,9.2578,9.2578,9.2578,9.2578,9.2734,9.3125,9.3242,9.3398,9.3008,9.2187,9.1679,8.4533,8.4533,8.4533,8.4108,8.3451,8.3451,8.3051,8.2355,0.0,0.0,0.0,8.2638,8.3025,8.3012,8.3167,8.3244,8.3206,8.2638,8.2793,8.3476,8.3463,8.4197,8.55,8.5539,8.5887,8.6571,8.661,8.6687,8.6842,8.7577,8.8002,8.8157,8.8273,8.8725,8.9383,8.9422,8.8648,8.7124,8.676,8.729,8.866,8.8442,8.763,8.6184,8.6842,8.6288,8.443,8.4933,8.4985,8.4352,8.4378,8.3808,8.2491,8.1646,8.0744,7.9572,7.868,7.8897,8.0434,8.1285,8.2109,8.3008,8.3164,8.1484,7.7344,7.9101,8.0664,8.1406,8.1601,8.1992,8.2695,8.3554,8.4062,8.4062,8.4961,8.5586,8.5586,8.5742,8.6445,8.7656,8.7929,8.8437,8.9687,8.9883,9.0078,9.0195,9.0234,9.0351,9.039,9.0312,9.0351,9.0781,9.1015,9.1094,9.1758,9.207,9.2344,9.3281,9.3398,9.332,9.3437,9.3476,9.3515,9.3789,9.3515,9.3633,9.3554,9.375,9.375,9.4414,9.457,9.5,9.6094,9.5039,9.3906,8.6124,8.6066,8.6066,8.5989,8.5873,8.5959,8.5937,8.5681,8.3592,8.2625,8.2664,8.3515,8.3902,8.394,8.4637,8.4946,8.4985,8.5591,8.5939,8.6056,8.6068,8.6223,8.6416,8.6416,8.6494,8.661,8.661,8.6996,8.7654,8.7847,8.8273,8.9008,8.9731,9.008,9.0223,9.0223,8.9758,8.8814,8.7383,8.6726,8.6919,8.5539,8.4688,8.4482,8.4637,8.4843,8.5109,8.5302,8.5264,8.5148,8.5148,8.5357,8.581,8.5075,8.5164,8.63,8.5604,8.5372,8.5707,8.5976,8.6289,8.6679,8.6758,8.5234,8.1836,8.2422,8.3125,8.3242,8.3945,8.4375,8.457,8.5351,8.5898,8.5976,8.7226,8.8164,8.8086,8.8672,8.9179,8.9531,8.9648,8.9687,9.0078,9.0117,9.0429,9.0937,9.1211,9.1406,9.1875,9.1562,9.1836,9.2969,9.3359,9.3711,9.4258,9.4609,9.4883,9.582,9.5859,9.5937,9.6445,9.6562,9.6562,9.6836,9.6601,9.6679,9.6758,9.6992,9.6758,9.6875,9.6836,9.7109,9.7422,9.6953,9.6836,8.6414,8.6384,8.6384,8.6384,8.6384,8.6414,8.6713,8.7012,8.5959,8.5175,8.4908,8.5294,8.5449,8.5449,8.5333,8.5294,8.5294,8.5282,8.5746,8.6584,8.6636,8.7074,8.7952,8.8002,8.8002,8.8002,8.8002,8.8196,8.8621,8.9047,8.9472,8.9859,9.0246,9.0168,8.9782,8.9743,8.9549,8.9174,8.8389,8.8029,8.8002,8.724,8.688,8.688,8.7255,8.7681,8.8052,8.8527,8.8759,8.8798,8.8798,8.8748,8.866,8.8312,8.8246,8.8555,8.8234,8.8079,8.8207,8.8433,8.8594,8.8828,8.8867,8.8242,8.664,8.5976,8.5898,8.6328,8.6758,8.7148,8.7617,8.8008,8.8242,8.8242,8.8984,8.9414,8.9453,8.9726,9.0156,9.0625,9.0703,9.0859,9.1367,9.1406,9.1523,9.1992,9.2344,9.2851,9.3242,9.3398,9.3476,9.3867,9.4297,9.4922,9.5703,9.5898,9.625,9.6992,9.7148,9.7304,9.7656,9.7695,9.7695,9.7695,9.7695,9.7695,9.7695,9.7695,9.7695,9.7695,9.7695,9.7695,9.7695,9.7695,9.7695,8.6932,8.6902,8.6902,8.6902,8.6932,8.6932,8.7318,8.7889,8.7889,8.7717,8.7445,8.724,8.7124,8.7086,8.6494,8.6184,8.6068,8.5526,8.5978,8.7126,8.7345,8.8079,8.9112,8.9356,8.9395,8.924,8.9395,8.9549,8.982,9.0594,9.1058,9.1213,9.1251,9.0953,9.0334,9.0334,9.0334,9.0334,9.0312,9.0041,8.9472,8.9472,8.9472,8.9538,9.0068,9.0378,9.0455,9.1058,9.1522,9.1677,9.1716,9.1406,9.0759,9.0671,9.04,8.9831,8.9782,8.982,8.9964,9.0178,9.039,9.0547,9.0586,9.0586,9.0469,8.9414,8.8711,8.8945,8.8906,8.9219,8.9726,9.0117,9.0273,9.0273,9.0508,9.0625,9.0586,9.0586,9.082,9.1484,9.1601,9.1875,9.2422,9.2578,9.2539,9.2617,9.3359,9.3867,9.3984,9.4765,9.5117,9.4883,9.5078,9.5781,9.6562,9.6758,9.7031,9.7617,9.7656,9.7656,9.7695,9.7695,9.7695,9.7695,9.7695,9.7695,9.7695,9.7695,9.7695,9.7695,9.7695,9.7695,9.7695,9.7695,9.7695,8.8502,8.8474,8.8435,8.8507,8.8496,8.8534,8.8605,8.8776,8.8815,8.9239,8.9733,8.9098,8.8818,8.8808,8.8787,8.8776,8.8776,8.8764,8.8829,8.9035,8.9704,8.9754,8.9444,9.0024,8.9908,8.9483,9.0063,9.0826,9.1484,9.2373,9.3108,9.3756,9.3833,9.3717,9.3678,9.364,9.3678,9.3727,9.3756,9.2633,9.0439,9.0295,9.0295,9.0284,9.0389,9.0389,9.0555,9.0489,9.0914,9.16,9.1754,9.1677,9.16,9.1561,9.1561,9.1445,9.1445,9.1561,9.1616,9.1827,9.1914,9.2148,9.2187,9.2226,9.2265,9.2148,9.1406,9.0312,8.9922,9.0,9.0039,9.0703,9.1172,9.1211,9.1797,9.2383,9.2226,9.2344,9.2383,9.2461,9.2383,9.2539,9.2578,9.2578,9.2617,9.2734,9.3515,9.414,9.4336,9.5429,9.6328,9.625,9.6367,9.6719,9.7344,9.7578,9.7578,9.7656,9.7695,9.7695,9.7695,9.7695,9.7695,9.7695,9.7695,9.7695,9.7695,9.7695,9.7695,9.7695,9.7695,9.7695,9.7695,9.7773,9.7812,8.8743,8.8671,8.8671,8.8743,8.8815,8.9244,8.947,8.958,9.0581,9.1236,9.1578,9.1798,9.1361,9.0427,9.0557,9.0615,9.0615,9.0671,9.097,9.1423,9.1821,9.1997,9.2229,9.2489,9.2451,9.219,9.2489,9.2837,9.3263,9.4037,9.4655,9.4916,9.4955,9.4955,9.4926,9.4462,9.4201,9.4201,9.4201,9.3921,9.3456,9.2925,9.2654,9.2644,9.2633,9.2633,9.2633,9.2672,9.2827,9.3137,9.275,9.2451,9.2451,9.1986,9.1716,9.1716,9.1716,9.1754,9.187,9.1975,9.2041,9.2217,9.2372,9.2461,9.2461,9.2539,9.2265,9.1719,9.1523,9.1523,9.1523,9.1875,9.207,9.2109,9.2422,9.2578,9.2578,9.2578,9.2578,9.2578,9.2578,9.2578,9.2578,9.2578,9.2812,9.3281,9.414,9.4844,9.539,9.6484,9.707,9.7265,9.7617,9.7812,9.7812,9.7695,9.7734,9.7695,9.7695,9.7695,9.7773,9.7695,9.7695,9.7734,9.7812,9.7812,9.7695,9.7695,9.7695,9.7812,9.7734,9.7695,9.7695,9.8125,9.8398,9.0056,9.0094,9.0325,9.0556,9.0825,9.1402,9.1672,9.1787,9.3018,9.3672,9.3941,9.459,9.439,9.3417,9.2697,9.2295,9.2295,9.2345,9.2866,9.3629,9.391,9.4346,9.4897,9.5158,9.5149,9.4965,9.5158,9.539,9.5623,9.6203,9.6551,9.6542,9.6542,9.6512,9.6474,9.5864,9.5593,9.5632,9.5593,9.5932,9.6358,9.5902,9.5245,9.4655,9.4568,9.4452,9.422,9.422,9.422,9.4181,9.3611,9.3302,9.3291,9.2721,9.2373,9.2373,9.2373,9.2412,9.2528,9.2605,9.2716,9.283,9.3025,9.3171,9.3164,9.3047,9.2969,9.2929,9.2969,9.2851,9.2617,9.2578,9.2578,9.2578,9.2578,9.2578,9.2578,9.2578,9.2578,9.2578,9.2578,9.2734,9.289,9.3008,9.3359,9.4492,9.539,9.6211,9.707,9.789,9.8437,9.8437,9.8984,9.8945,9.8281,9.8437,9.8359,9.8398,9.8515,9.8594,9.8437,9.8437,9.8437,9.8906,9.8554,9.8476,9.875,9.8594,9.8633,9.8711,9.8789,9.8906,9.9531,9.9765,9.9883,9.348,9.3557,9.4364,9.4941,9.5903,9.5865,9.5903,9.5595,9.6019,9.6519,9.698,9.7211,9.7711,9.7979,9.5296,9.4034,9.4072,9.421,9.4694,9.5497,9.6241,9.6628,9.6744,9.7548,9.7479,9.6792,9.7372,9.8068,9.8833,9.9027,9.9143,9.9065,9.8988,9.9065,9.8979,9.8825,9.9018,9.8717,9.8708,9.8941,9.9018,9.8949,9.775,9.5825,9.5477,9.5236,9.4501,9.4278,9.4317,9.4278,9.4201,9.4162,9.4143,9.4065,9.3988,9.3988,9.4026,9.4026,9.4037,9.422,9.4431,9.4497,9.4613,9.4951,9.4743,9.4219,9.3867,9.3828,9.3867,9.3554,9.2929,9.2929,9.2812,9.2773,9.2695,9.2734,9.2695,9.289,9.2617,9.2734,9.2929,9.332,9.3828,9.3828,9.4765,9.6015,9.707,9.7812,9.8633,9.9531,9.9922,10.0,10.0039,9.9922,9.9258,9.9297,9.9844,9.9844,9.9609,10.0,10.0156,10.0195,10.0117,10.0117,10.0039,10.0,10.0117,10.0312,10.0586,10.0742,10.0976,10.1211,10.1289,10.2265,10.2304,9.5365,9.5403,9.5711,9.6019,9.6326,9.6826,9.6788,9.6403,9.748,9.7711,9.7634,9.8096,9.8519,9.8711,9.7701,9.7225,9.733,9.7419,9.7634,9.7973,9.8253,9.8408,9.8455,9.8725,9.8764,9.8501,9.8725,9.8996,9.9336,9.9839,10.011,10.0148,10.0148,10.0148,10.0032,9.9607,9.9305,9.9305,9.9305,9.9297,9.9336,9.9305,9.8803,9.8029,9.7943,9.778,9.747,9.6976,9.6706,9.6706,9.567,9.5013,9.5004,9.451,9.423,9.422,9.4191,9.4201,9.4201,9.4278,9.4423,9.4558,9.4746,9.4971,9.4941,9.4844,9.4726,9.4726,9.4726,9.4531,9.4375,9.4258,9.4258,9.4258,9.4258,9.4219,9.4258,9.4258,9.4258,9.4336,9.4726,9.5234,9.5508,9.6015,9.6797,9.7851,9.8359,9.8945,9.9609,10.0156,10.039,10.0429,10.0742,10.1015,10.0781,10.0312,10.0273,10.0273,10.0273,10.0273,10.039,10.0625,10.0547,10.1367,10.1406,10.1601,10.1758,10.1992,10.2265,10.2422,10.2656,10.2929,10.2812,10.375,10.3789,9.7288,9.7519,9.7519,9.7711,9.798,9.8519,9.8442,9.8057,9.9096,9.9288,9.8904,9.9365,9.9596,9.9596,9.9709,9.9782,9.9776,9.9481,9.9452,9.9676,9.9684,9.9878,10.0117,10.0156,10.0117,10.0156,10.0156,10.0117,10.0187,10.0729,10.0999,10.0999,10.0999,10.1007,10.0891,10.0427,10.0156,10.0156,10.0156,10.0156,10.0148,10.0117,10.0156,10.0117,10.0148,9.9831,9.9366,9.8756,9.8485,9.8322,9.7363,9.6598,9.6289,9.5516,9.5042,9.5033,9.5042,9.5052,9.5052,9.509,9.5206,9.5371,9.5547,9.5641,9.5802,9.5684,9.5742,9.5898,9.6015,9.6054,9.6445,9.6679,9.6406,9.5586,9.5429,9.5586,9.5625,9.5859,9.5976,9.6054,9.6406,9.6875,9.7304,9.7773,9.8594,9.9648,9.9844,10.0195,10.0898,10.1133,10.1133,10.1172,10.1679,10.1953,10.1875,10.1601,10.1445,10.1406,10.1289,10.1133,10.1211,10.1328,10.1679,10.2461,10.2969,10.3203,10.3437,10.3672,10.3828,10.3984,10.4375,10.4765,10.4922,10.5195,10.5195,9.9288,9.9904,10.0096,10.0327,10.0827,10.0904,10.1173,10.0943,10.1096,10.0981,10.0827,10.1135,10.1019,10.1173,10.1096,10.1364,10.1054,9.9999,9.9893,10.0496,10.0604,10.0999,10.1657,10.1618,10.1618,10.1657,10.1773,10.1812,10.1696,10.1734,10.1773,10.185,10.1773,10.1734,10.185,10.1696,10.1734,10.1696,10.1618,10.1734,10.1889,10.1696,10.1657,10.1734,10.1696,10.0961,9.9491,9.9344,9.9297,9.9289,9.9143,9.8872,9.7982,9.7247,9.6822,9.6706,9.6744,9.6744,9.6667,9.6706,9.6744,9.6926,9.7265,9.7254,9.7176,9.6836,9.6797,9.7422,9.7617,9.7929,9.875,9.9375,9.875,9.6054,9.6406,9.6797,9.6836,9.7265,9.7695,9.7734,9.7929,9.8125,9.875,9.9258,9.9961,10.1054,10.1445,10.1679,10.2304,10.2461,10.2734,10.2734,10.2617,10.2539,10.2734,10.2851,10.2812,10.2773,10.2617,10.25,10.2929,10.3164,10.3594,10.4297,10.5,10.5273,10.5273,10.5508,10.5742,10.5937,10.6328,10.6445,10.6601,10.6719,10.6797,10.0673,10.0904,10.0943,10.1058,10.1289,10.1289,10.1289,10.1289,10.1289,10.1289,10.1289,10.1289,10.1289,10.1289,10.1366,10.1404,10.1441,10.0974,10.0998,10.1316,10.1425,10.1618,10.185,10.1889,10.1889,10.1889,10.1889,10.1889,10.1889,10.1889,10.1889,10.1889,10.1889,10.1889,10.1889,10.1889,10.1889,10.1889,10.1889,10.1889,10.1889,10.1889,10.1826,10.1765,10.1748,10.1425,10.0922,10.0388,10.0117,10.0148,9.9519,9.9023,9.8833,9.8592,9.8244,9.778,9.7702,9.7363,9.686,9.686,9.6976,9.7119,9.726,9.744,9.7578,9.7461,9.7695,9.8437,9.8594,9.8945,9.9726,10.0117,9.9804,9.8828,9.8945,9.9062,9.9062,9.9297,9.9453,9.957,10.0,10.0508,10.082,10.1133,10.1719,10.2226,10.2422,10.2617,10.2812,10.289,10.289,10.289,10.289,10.289,10.289,10.289,10.289,10.3008,10.3086,10.3476,10.4062,10.4648,10.5195,10.5859,10.6601,10.6953,10.7031,10.7109,10.7148,10.7304,10.7344,10.7539,10.789,10.7851,10.7656,10.1289,10.1289,10.1289,10.1289,10.1289,10.1289,10.1289,10.1289,10.1289,10.1289,10.1289,10.1289,10.1289,10.1289,10.1289,10.1328,10.1404,10.1442,10.1707,10.1997,10.1819,10.1812,10.1812,10.1812,10.1819,10.1826,10.1826,10.1819,10.1787,10.1826,10.1826,10.1889,10.185,10.185,10.1889,10.1889,10.1889,10.1889,10.1889,10.1889,10.185,10.1826,10.176,10.1693,10.165,10.1606,10.1561,10.1109,10.0848,10.0732,10.0049,9.9583,9.959,9.9344,9.8988,9.864,9.8515,9.8322,9.7789,9.7518,9.7325,9.7451,9.7324,9.7291,9.75,9.7812,9.8515,9.9297,9.9804,10.0312,10.1054,10.1289,10.1289,10.125,10.0898,10.0976,10.1133,10.1289,10.125,10.1367,10.1679,10.2031,10.2226,10.2461,10.289,10.289,10.289,10.289,10.289,10.289,10.289,10.289,10.289,10.289,10.289,10.289,10.289,10.3086,10.3281,10.3945,10.4648,10.5312,10.5898,10.6719,10.7461,10.75,10.7578,10.7695,10.7773,10.8008,10.8008,10.8008,10.8008,10.8008,10.7851,10.1366,10.1404,10.1443,10.1558,10.1597,10.1597,10.1673,10.152,10.1558,10.1635,10.1597,10.1712,10.1597,10.1558,10.175,10.1712,10.1481,10.1751,10.2212,10.2518,10.2237,10.1986,10.2064,10.2135,10.2147,10.2079,10.2036,10.1992,10.2147,10.2079,10.1881,10.2206,10.2199,10.1966,10.2237,10.2082,10.2206,10.2218,10.2174,10.2096,10.2012,10.1997,10.1932,10.1851,10.1781,10.1743,10.1743,10.1518,10.1443,10.1443,10.0712,10.0365,10.0277,9.9719,9.9474,9.9313,9.9336,9.9289,9.9104,9.8485,9.8214,9.8244,9.7799,9.7315,9.8008,9.8789,9.9609,10.0664,10.1328,10.2109,10.2812,10.3047,10.3047,10.2929,10.2226,10.2031,10.2695,10.2773,10.2578,10.2695,10.289,10.289,10.2773,10.2851,10.289,10.289,10.289,10.289,10.289,10.289,10.289,10.289,10.289,10.289,10.289,10.289,10.3008,10.3554,10.3828,10.4531,10.5273,10.5976,10.6601,10.7422,10.789,10.7969,10.8008,10.8008,10.8008,10.8008,10.8008,10.8008,10.8008,10.8008,10.8008,10.2251,10.2327,10.2943,10.3212,10.3212,10.3212,10.3174,10.3212,10.3174,10.3097,10.3174,10.3212,10.3135,10.3212,10.3174,10.3212,10.3135,10.3175,10.3368,10.3522,10.3445,10.3366,10.3442,10.3472,10.3395,10.3398,10.3283,10.3472,10.3472,10.3321,10.3395,10.3692,10.3404,10.3468,10.3623,10.3475,10.3537,10.3521,10.3522,10.3437,10.3411,10.3395,10.3482,10.3329,10.2749,10.2441,10.2251,10.1674,10.1366,10.1366,10.1212,10.1058,10.1096,10.0901,10.0586,10.0286,10.0156,9.9955,9.946,9.9189,9.9035,9.9027,9.8911,9.9211,9.9934,10.043,10.1406,10.2617,10.3359,10.3828,10.457,10.4765,10.4765,10.4609,10.3476,10.2734,10.2929,10.289,10.289,10.289,10.3008,10.3047,10.3086,10.3047,10.3047,10.3008,10.3008,10.2929,10.2929,10.289,10.289,10.289,10.289,10.289,10.289,10.289,10.3203,10.3945,10.4492,10.5156,10.5898,10.664,10.7265,10.7969,10.7929,10.8008,10.8008,10.8008,10.8008,10.8008,10.8008,10.8008,10.8008,10.8008,10.8008,10.3135,10.3174,10.3674,10.3905,10.3905,10.3905,10.3905,10.3905,10.3905,10.3905,10.3905,10.3905,10.3905,10.3905,10.3866,10.3866,10.3905,10.3905,10.4098,10.4483,10.4791,10.4597,10.4214,10.4061,10.4061,10.4061,10.4097,10.402,10.3981,10.4021,10.4097,10.409,10.4117,10.4117,10.4129,10.4129,10.4097,10.4057,10.4093,10.4099,10.4054,10.406,10.3984,10.3905,10.3406,10.306,10.2597,10.2097,10.1712,10.1404,10.1327,10.1366,10.1404,10.1481,10.1481,10.1427,10.1213,10.0929,10.0891,10.062,10.0233,9.9955,9.9955,10.0303,10.081,10.1389,10.2347,10.3594,10.4297,10.4883,10.5312,10.5508,10.5508,10.5312,10.457,10.3984,10.3984,10.4062,10.4023,10.3984,10.3984,10.3984,10.3984,10.3945,10.375,10.3594,10.3515,10.3281,10.3008,10.2969,10.2969,10.3008,10.2969,10.2929,10.3164,10.3281,10.3633,10.4336,10.539,10.5976,10.6562,10.7265,10.7617,10.8008,10.8008,10.8008,10.8008,10.8008,10.8008,10.8008,10.8008,10.8008,10.8008,10.8008,10.8008,10.402,10.402,10.4135,10.4135,10.4212,10.4174,10.4328,10.4212,10.4328,10.4289,10.4289,10.4212,10.4405,10.4135,10.4482,10.4212,10.4251,10.4405,10.4713,10.5291,10.5713,10.5636,10.4634,10.4557,10.4559,10.452,10.4292,10.4369,10.4523,10.4368,10.433,10.456,10.4481,10.4369,10.4638,10.452,10.4364,10.4557,10.4634,10.4595,10.456,10.4559,10.4559,10.448,10.4212,10.3637,10.3059,10.2713,10.2444,10.1635,10.152,10.1597,10.1635,10.175,10.2136,10.2712,10.2388,10.2392,10.2933,10.2438,10.1896,10.1348,10.1154,10.1154,10.1804,10.2533,10.3406,10.4607,10.5035,10.5664,10.5937,10.5898,10.5976,10.6015,10.582,10.5742,10.5703,10.5625,10.5508,10.5508,10.5469,10.5508,10.5508,10.5429,10.5156,10.4414,10.4336,10.414,10.3789,10.3554,10.3437,10.3281,10.3164,10.2969,10.332,10.3672,10.4219,10.4844,10.6133,10.6914,10.7304,10.7773,10.789,10.8008,10.8008,10.8008,10.8008,10.8008,10.8008,10.8008,10.8008,10.8008,10.8008,10.8008,10.8008,10.4828,10.4905,10.5597,10.5867,10.5867,10.5867,10.5828,10.579,10.5828,10.5713,10.5828,10.5828,10.579,10.579,10.5713,10.5867,10.5713,10.5713,10.602,10.6097,10.6251,10.629,10.5826,10.5749,10.5787,10.579,10.5828,10.5869,10.579,10.5674,10.5828,10.587,10.5678,10.5869,10.5867,10.571,10.5864,10.5864,10.5826,10.5749,10.571,10.5751,10.5751,10.5633,10.5133,10.4482,10.3789,10.3598,10.3521,10.3251,10.2751,10.2674,10.3059,10.3213,10.3406,10.3599,10.3665,10.3675,10.3978,10.3901,10.3784,10.3398,10.3359,10.3901,10.4636,10.4752,10.5534,10.6499,10.7031,10.7109,10.7226,10.7383,10.7304,10.7226,10.7265,10.7304,10.7226,10.6289,10.5742,10.5625,10.5625,10.5547,10.5586,10.5664,10.5508,10.5273,10.5195,10.5117,10.4687,10.4179,10.3867,10.3633,10.3437,10.332,10.375,10.4297,10.5117,10.5664,10.6758,10.7461,10.7851,10.8008,10.8008,10.8008,10.8008,10.8008,10.8008,10.8008,10.8008,10.8008,10.8008,10.8008,10.8008,10.8008,10.8008,10.5713,10.5751,10.6213,10.6405,10.6405,10.6405,10.6405,10.6405,10.6405,10.6405,10.6405,10.6405,10.6405,10.6405,10.6405,10.6367,10.6405,10.6405,10.6405,10.6367,10.6405,10.6405,10.6405,10.6405,10.6405,10.6405,10.6367,10.6405,10.6405,10.6405,10.6328,10.6444,10.6444,10.629,10.6444,10.6405,10.6367,10.6328,10.6405,10.6405,10.6405,10.6405,10.6405,10.6367,10.5903,10.5287,10.4559,10.4443,10.4482,10.4366,10.402,10.3712,10.3867,10.3905,10.4097,10.4483,10.4215,10.4434,10.4692,10.4945,10.479,10.4481,10.4752,10.5216,10.5603,10.5796,10.6376,10.7212,10.7558,10.7734,10.7969,10.7969,10.8008,10.8008,10.8008,10.8008,10.7851,10.7187,10.664,10.6679,10.6797,10.6758,10.6679,10.6445,10.625,10.6211,10.6054,10.5937,10.5117,10.4609,10.4219,10.3945,10.375,10.3789,10.4219,10.4961,10.6133,10.6719,10.7422,10.7773,10.7969,10.8008,10.8008,10.8008,10.8008,10.8008,10.8008,10.8008,10.8008,10.8008,10.8008,10.8008,10.8008,10.8008,10.8008,10.6405,10.6405,10.6405,10.6405,10.6405,10.6405,10.6405,10.6405,10.6405,10.6405,10.6405,10.6405,10.6405,10.6405,10.6405,10.6405,10.6405,10.6405,10.6405,10.6405,10.6405,10.6405,10.6405,10.6405,10.6405,10.6405,10.6405,10.6405,10.6405,10.6405,10.6405,10.6405,10.6405,10.6405,10.6405,10.6405,10.6405,10.6405,10.6405,10.6405,10.6405,10.6405,10.6405,10.6367,10.6328,10.602,10.5441,10.5287,10.5287,10.5287,10.5287,10.4903,10.452,10.4326,10.4554,10.5403,10.4905,10.5062,10.5554,10.573,10.5525,10.4829,10.5448,10.5873,10.5989,10.6067,10.6531,10.7076,10.7539,10.7734,10.7969,10.8008,10.8008,10.8008,10.8008,10.8008,10.8008,10.8008,10.7812,10.7812,10.7578,10.75,10.7617,10.7539,10.7344,10.7109,10.6953,10.664,10.5859,10.5156,10.4804,10.4492,10.4336,10.4687,10.5117,10.5859,10.6953,10.7304,10.7969,10.7969,10.8008,10.8008,10.8008,10.8008,10.8008,10.8008,10.8008,10.8008,10.8008,10.8008,10.8008,10.8008,10.8008,10.8008,10.8008,10.6405,10.6405,10.6405,10.6405,10.6405,10.6405,10.6405,10.6405,10.6405,10.6405,10.6405,10.6405,10.6405,10.6405,10.6405,10.6405,10.6405,10.6405,10.6405,10.6405,10.6405,10.6405,10.6405,10.6405,10.6405,10.6405,10.6405,10.6405,10.6405,10.6405,10.6405,10.6405,10.6405,10.6405,10.6405,10.6405,10.6405,10.6405,10.6405,10.6405,10.6405,10.6405,10.6405,10.6405,10.6405,10.629,10.6213,10.6136,10.6174,10.6174,10.6174,10.6097,10.5982,10.5944,10.6059,10.602,10.5982,10.5946,10.6218,10.6439,10.6498,10.6492,10.657,10.6686,10.6724,10.6724,10.684,10.7143,10.7578,10.7812,10.7969,10.8008,10.8008,10.8008,10.8008,10.8008,10.8008,10.8008,10.8008,10.8008,10.8008,10.8008,10.8008,10.8008,10.7773,10.7578,10.75,10.7461,10.7109,10.625,10.5547,10.5273,10.5,10.5547,10.6133,10.6914,10.7734,10.7656,10.8008,10.8008,10.8008,10.8008,10.8008,10.8008,10.8008,10.8008,10.8008,10.8008,10.8008,10.8008,10.8008,10.8008,10.8008,10.8008,10.8008,10.6405,10.6405,10.6405,10.6405,10.6405,10.6405,10.6405,10.6405,10.6405,10.6405,10.6405,10.6405,10.6405,10.6405,10.6405,10.6405,10.6405,10.6405,10.6405,10.6405,10.6405,10.6405,10.6405,10.6405,10.6405,10.6405,10.6405,10.6405,10.6405,10.6405,10.6405,10.6405,10.6405,10.6405,10.6405,10.6405,10.6405,10.6405,10.6405,10.6405,10.6405,10.6405,10.6405,10.6405,10.6405,10.6405,10.6405,10.6405,10.6405,10.6482,10.679,10.7021,10.7175,10.7328,10.729,10.6674,10.6482,10.6521,10.66,10.6716,10.6705,10.6879,10.6956,10.6995,10.6995,10.6995,10.7072,10.7231,10.7539,10.7812,10.789,10.7969,10.8008,10.8008,10.8008,10.8008,10.8008,10.8008,10.8008,10.8008,10.8008,10.8008,10.8008,10.8008,10.8008,10.8008,10.8008,10.7969,10.7929,10.7031,10.5937,10.6015,10.5859,10.6367,10.6875,10.7422,10.8008,10.8008,10.8008,10.8008,10.8008,10.8008,10.8008,10.8008,10.8008,10.8008,10.8008,10.8008,10.8008,10.8008,10.8008,10.8008,10.8008,10.8008,10.8008,10.6405,10.6405,10.6405,10.6405,10.6405,10.6405,10.6405,10.6405,10.6405,10.6405,10.6405,10.6405,10.6405,10.6405,10.6405,10.6405,10.6405,10.6405,10.6405,10.6405,10.6405,10.6405,10.6405,10.6405,10.6405,10.6405,10.6405,10.6405,10.6405,10.6405,10.6405,10.6405,10.6405,10.6405,10.6405,10.6405,10.6405,10.6405,10.6405,10.6405,10.6405,10.6405,10.6405,10.6405,10.6405,10.6405,10.6405,10.6405,10.6559,10.6828,10.7251,10.7754,10.7982,10.8562,10.8213,10.7175,10.679,10.6713,10.66,10.6642,10.6673,10.6817,10.6923,10.6962,10.6962,10.6962,10.7066,10.729,10.75,10.7773,10.7851,10.7929,10.8008,10.8008,10.8008,10.8008,10.8008,10.8008,10.8008,10.8008,10.8008,10.8008,10.8008,10.8008,10.8008,10.8008,10.8008,10.7617,10.75,10.6836,10.6172,10.6562,10.6797,10.7187,10.7539,10.7656,10.8008,10.8008,10.8008,10.8008,10.8008,10.8008,10.8008,10.8008,10.8008,10.8008,10.8008,10.8008,10.8008,10.8008,10.8008,10.8008,10.8008,10.8008,10.8008,10.6405,10.6405,10.6405,10.6405,10.6405,10.6405,10.6405,10.6405,10.6405,10.6405,10.6405,10.6405,10.6405,10.6405,10.6405,10.6405,10.6405,10.6405,10.6405,10.6405,10.6405,10.6405,10.6405,10.6405,10.6405,10.6405,10.6405,10.6405,10.6405,10.6405,10.6405,10.6405,10.6405,10.6405,10.6405,10.6405,10.6405,10.6405,10.6405,10.6405,10.6405,10.6405,10.6405,10.6405,10.6405,10.6405,10.6405,10.6444,10.6674,10.7405,10.76,10.8059,10.8633,10.8782,10.8859,10.8479,10.7941,10.7213,10.6754,10.6526,10.6564,10.6676,10.6747,10.6783,10.6856,10.6962,10.7111,10.7453,10.753,10.7675,10.7826,10.7969,10.8008,10.8008,10.8008,10.8008,10.8008,10.8008,10.8008,10.8008,10.8008,10.8008,10.8008,10.8008,10.8008,10.8008,10.7929,10.7578,10.7265,10.6836,10.6093,10.6367,10.7031,10.75,10.7226,10.75,10.7734,10.7812,10.7812,10.7851,10.8008,10.8008,10.8008,10.8008,10.8008,10.8008,10.8008,10.8008,10.8008,10.8008,10.8008,10.8008,10.8008,10.8008,10.8008,10.6405,10.6405,10.6405,10.6405,10.6405,10.6405,10.6405,10.6405,10.6405,10.6405,10.6405,10.6405,10.6405,10.6405,10.6405,10.6405,10.6405,10.6405,10.6405,10.6405,10.6405,10.6405,10.6405,10.6405,10.6405,10.6405,10.6405,10.6405,10.6405,10.6405,10.6405,10.6405,10.6405,10.6405,10.6405,10.6405,10.6405,10.6405,10.6405,10.6405,10.6405,10.6405,10.6405,10.6405,10.6405,10.6405,10.6405,10.6405,10.6825,10.7594,10.8056,10.8748,10.9556,11.0017,11.0209,10.9633,10.9325,10.8559,10.7446,10.6794,10.6603,10.6603,10.6679,10.6751,10.6821,10.6856,10.6962,10.715,10.7391,10.7597,10.7749,10.7878,10.7969,10.8008,10.8008,10.8008,10.8008,10.8008,10.8008,10.8008,10.8008,10.8008,10.8047,10.8164,10.8125,10.8008,10.8008,10.7851,10.7695,10.7578,10.6758,10.5898,10.6719,10.7578,10.6953,10.6719,10.7031,10.7148,10.7187,10.7344,10.789,10.8008,10.7969,10.7969,10.8008,10.8008,10.8008,10.8008,10.8008,10.8008,10.8008,10.8008,10.8008,10.8008,10.8008,10.6405,10.6405,10.6405,10.6405,10.6405,10.6405,10.6405,10.6405,10.6405,10.6405,10.6405,10.6405,10.6405,10.6405,10.6405,10.6405,10.6405,10.6405,10.6405,10.6405,10.6405,10.6405,10.6405,10.6405,10.6405,10.6405,10.6405,10.6405,10.6405,10.6405,10.6405,10.6405,10.6405,10.6405,10.6405,10.6405,10.6405,10.6405,10.6405,10.6405,10.6405,10.6405,10.6405,10.6405,10.6405,10.6405,10.6405,10.6405,10.6825,10.7975,10.8513,10.9244,11.0363,11.0902,11.1017,11.0517,11.0171,10.9402,10.8252,10.7367,10.6828,10.6638,10.6642,10.6678,10.6786,10.6821,10.6894,10.7072,10.7259,10.7438,10.7558,10.7775,10.789,10.7929,10.7969,10.8008,10.8008,10.8008,10.8008,10.8008,10.8008,10.8008,10.8086,10.8281,10.8242,10.8047,10.8008,10.7969,10.7812,10.7695,10.6953,10.5898,10.6093,10.6836,10.6406,10.6093,10.6367,10.6523,10.6523,10.6797,10.7304,10.7695,10.7851,10.7851,10.7851,10.8008,10.8008,10.8008,10.8008,10.8008,10.8008,10.8008,10.8008,10.8008,10.8008,10.6405,10.6405,10.6405,10.6405,10.6405,10.6405,10.6405,10.6405,10.6405,10.6405,10.6405,10.6405,10.6405,10.6405,10.6405,10.6405,10.6405,10.6405,10.6405,10.6405,10.6405,10.6405,10.6405,10.6405,10.6405,10.6405,10.6405,10.6405,10.6405,10.6405,10.6405,10.6405,10.6405,10.6405,10.6405,10.6405,10.6405,10.6405,10.6405,10.6405,10.6405,10.6405,10.6405,10.6405,10.6405,10.6405,10.6405,10.6521,10.7133,10.8552,10.8936,10.9748,11.0902,11.1368,11.1329,11.1175,11.0709,10.9902,10.894,10.7982,10.7175,10.6715,10.6487,10.6565,10.6751,10.6786,10.6894,10.7078,10.7183,10.7301,10.7477,10.7656,10.7812,10.7851,10.7929,10.8008,10.8008,10.8008,10.8008,10.8008,10.8008,10.8008,10.789,10.8047,10.7851,10.7656,10.7578,10.7539,10.7187,10.6992,10.6601,10.5976,10.5703,10.5781,10.5586,10.5547,10.5625,10.582,10.5976,10.625,10.6679,10.707,10.75,10.7539,10.75,10.7773,10.8008,10.7969,10.7929,10.8008,10.8008,10.8008,10.8008,10.8008,10.8008,10.6405,10.6405,10.6405,10.6405,10.6405,10.6405,10.6405,10.6405,10.6405,10.6405,10.6405,10.6405,10.6405,10.6405,10.6405,10.6405,10.6405,10.6405,10.6405,10.6405,10.6405,10.6405,10.6405,10.6405,10.6405,10.6405,10.6405,10.6405,10.6405,10.6405,10.6405,10.6405,10.6405,10.6405,10.6405,10.6405,10.6405,10.6405,10.6405,10.6405,10.6405,10.6405,10.6405,10.6405,10.6405,10.6405,10.6482,10.6944,10.7829,10.8671,10.9363,11.0325,11.1252,11.1483,11.1522,11.1522,11.1055,11.0517,10.9556,10.8482,10.729,10.6636,10.6446,10.6487,10.6602,10.6602,10.6751,10.6898,10.7078,10.7212,10.7313,10.7572,10.7812,10.7851,10.789,10.7969,10.8008,10.8008,10.8008,10.8008,10.8008,10.8008,10.7851,10.7695,10.7461,10.7187,10.7187,10.7031,10.6679,10.6289,10.5898,10.5508,10.5195,10.4648,10.4414,10.457,10.4804,10.5117,10.5351,10.5625,10.5937,10.664,10.6992,10.7031,10.7187,10.7539,10.7734,10.7812,10.7851,10.7812,10.789,10.8008,10.8008,10.8008,10.8008,10.6405,10.6405,10.6405,10.6405,10.6405,10.6405,10.6405,10.6405,10.6405,10.6405,10.6405,10.6405,10.6405,10.6405,10.6405,10.6405,10.6405,10.6405,10.6405,10.6405,10.6405,10.6405,10.6405,10.6405,10.6405,10.6405,10.6405,10.6405,10.6405,10.6405,10.6405,10.6405,10.6405,10.6405,10.6405,10.6405,10.6405,10.6405,10.6405,10.6405,10.6405,10.6405,10.6405,10.6405,10.6405,10.6405,10.6636,10.7136,10.7982,10.8825,10.9671,11.0555,11.1175,11.1522,11.1522,11.1522,11.1445,11.1094,11.0017,10.8713,10.7328,10.6559,10.6405,10.6448,10.6487,10.6488,10.6641,10.6751,10.6933,10.7039,10.7117,10.7415,10.7643,10.7695,10.789,10.8008,10.8008,10.8008,10.8008,10.8008,10.7969,10.7851,10.7031,10.6758,10.6367,10.6211,10.6367,10.625,10.6015,10.5625,10.5195,10.4804,10.4414,10.3828,10.3242,10.3633,10.4023,10.4531,10.4765,10.4765,10.5156,10.5898,10.6406,10.6367,10.664,10.7226,10.7461,10.7539,10.7578,10.7539,10.7734,10.8008,10.8008,10.8008,10.8008,10.6405,10.6405,10.6405,10.6405,10.6405,10.6405,10.6405,10.6405,10.6405,10.6405,10.6405,10.6405,10.6405,10.6405,10.6405,10.6405,10.6405,10.6405,10.6405,10.6405,10.6405,10.6405,10.6405,10.6405,10.6405,10.6405,10.6405,10.6405,10.6405,10.6405,10.6405,10.6405,10.6405,10.6405,10.6405,10.6405,10.6405,10.6405,10.6405,10.6405,10.6405,10.6405,10.6405,10.6405,10.6405,10.6405,10.6828,10.7523,10.8329,10.9171,10.9979,11.0748,11.1368,11.1522,11.1522,11.1522,11.1522,11.1098,11.0132,10.8559,10.7444,10.6597,10.6405,10.6407,10.6487,10.6526,10.6565,10.6678,10.6751,10.6821,10.6972,10.7189,10.7391,10.7617,10.7851,10.8008,10.8008,10.8008,10.8008,10.789,10.7812,10.7617,10.6484,10.5625,10.5234,10.5156,10.5429,10.539,10.5156,10.5039,10.4648,10.414,10.375,10.3476,10.3047,10.2969,10.3281,10.3828,10.4101,10.4062,10.4492,10.5273,10.5586,10.5664,10.6133,10.6679,10.6992,10.7226,10.6953,10.6758,10.7656,10.7969,10.8008,10.8008,10.8008,10.6405,10.6405,10.6405,10.6405,10.6405,10.6405,10.6405,10.6405,10.6405,10.6405,10.6405,10.6405,10.6405,10.6405,10.6405,10.6405,10.6405,10.6405,10.6405,10.6405,10.6405,10.6405,10.6405,10.6405,10.6405,10.6405,10.6405,10.6405,10.6405,10.6405,10.6405,10.6405,10.6405,10.6405,10.6405,10.6405,10.6405,10.6405,10.6405,10.6405,10.6405,10.6405,10.6405,10.6405,10.6405,10.6597,10.7098,10.787,10.8752,10.9556,11.0363,11.1137,11.1483,11.1522,11.1483,11.1483,11.1445,11.0791,10.979,10.8562,10.7831,10.6944,10.6405,10.6405,10.6407,10.6407,10.6487,10.6565,10.6641,10.6714,10.6825,10.7044,10.7248,10.7533,10.7734,10.789,10.7969,10.8008,10.7969,10.7734,10.7617,10.6484,10.5351,10.4804,10.4375,10.4179,10.4414,10.4219,10.3945,10.4258,10.414,10.3554,10.3164,10.3047,10.289,10.289,10.289,10.332,10.3398,10.3281,10.3867,10.4648,10.4844,10.4883,10.5508,10.6133,10.6093,10.6054,10.5859,10.5937,10.6875,10.7656,10.7773,10.789,10.8008,10.6405,10.6405,10.6405,10.6405,10.6405,10.6405,10.6405,10.6405,10.6405,10.6405,10.6405,10.6405,10.6405,10.6405,10.6405,10.6405,10.6405,10.6405,10.6405,10.6405,10.6405,10.6405,10.6405,10.6405,10.6405,10.6405,10.6405,10.6405,10.6405,10.6405,10.6405,10.6405,10.6405,10.6405,10.6405,10.6405,10.6405,10.6405,10.6405,10.6405,10.6405,10.6405,10.6405,10.6405,10.6444,10.6636,10.7367,10.8213,10.9175,10.994,11.0748,11.1483,11.1522,11.1522,11.1368,11.1214,11.0594,10.9979,10.9175,10.8524,10.7639,10.6597,10.6444,10.6405,10.6405,10.6405,10.6407,10.6448,10.6487,10.6603,10.6714,10.6898,10.7075,10.7344,10.7539,10.7695,10.7851,10.7851,10.789,10.7656,10.6992,10.5703,10.4492,10.3984,10.3594,10.3476,10.3398,10.3164,10.3008,10.3398,10.3711,10.3281,10.2929,10.289,10.289,10.289,10.289,10.289,10.289,10.289,10.3242,10.4023,10.4062,10.4297,10.5078,10.5469,10.5,10.4804,10.4922,10.539,10.6211,10.6875,10.7422,10.7617,10.7695,10.6405,10.6405,10.6405,10.6405,10.6405,10.6405,10.6405,10.6405,10.6405,10.6405,10.6405,10.6405,10.6405,10.6405,10.6405,10.6405,10.6405,10.6405,10.6405,10.6405,10.6405,10.6405,10.6405,10.6405,10.6405,10.6405,10.6405,10.6405,10.6405,10.6405,10.6405,10.6405,10.6405,10.6405,10.6405,10.6405,10.6405,10.6405,10.6405,10.6405,10.6405,10.6405,10.6405,10.6405,10.6444,10.6674,10.7328,10.8213,10.894,10.9748,11.0632,11.1252,11.1522,11.1522,11.094,11.0325,10.9594,10.9248,10.8675,10.8101,10.7444,10.6559,10.6405,10.6405,10.6405,10.6405,10.6405,10.6407,10.6448,10.6487,10.6565,10.6716,10.6902,10.7086,10.7293,10.7422,10.7617,10.7695,10.7773,10.7422,10.6719,10.5586,10.4219,10.3515,10.3203,10.3164,10.3125,10.3086,10.2969,10.2969,10.3203,10.3125,10.289,10.289,10.289,10.2851,10.289,10.289,10.289,10.2929,10.3242,10.3398,10.3594,10.3984,10.4765,10.4883,10.4297,10.4219,10.4375,10.4922,10.5195,10.5898,10.6367,10.6914,10.7148,10.6405,10.6405,10.6405,10.6405,10.6405,10.6405,10.6405,10.6405,10.6405,10.6405,10.6405,10.6405,10.6405,10.6405,10.6405,10.6405,10.6405,10.6405,10.6405,10.6405,10.6405,10.6405,10.6405,10.6405,10.6405,10.6405,10.6405,10.6405,10.6405,10.6405,10.6405,10.6405,10.6405,10.6405,10.6405,10.6405,10.6405,10.6405,10.6405,10.6405,10.6405,10.6405,10.6405,10.6405,10.6482,10.6867,10.7908,10.8482,10.9367,11.0632,11.1137,11.1522,11.1522,11.1483,11.1137,11.0329,10.9867,10.9402,10.829,10.7831,10.7331,10.6597,10.6405,10.6405,10.6405,10.6405,10.6405,10.6367,10.6446,10.6448,10.6487,10.6603,10.6756,10.6894,10.7037,10.7171,10.7377,10.7578,10.7578,10.6797,10.6093,10.4961,10.3633,10.3242,10.3008,10.2929,10.289,10.289,10.289,10.289,10.2851,10.2851,10.2792,10.2764,10.2788,10.2773,10.2812,10.2851,10.2851,10.2851,10.2969,10.3086,10.3242,10.3515,10.3945,10.3867,10.3476,10.3554,10.3789,10.3515,10.375,10.457,10.5351,10.5976,10.6601,10.6405,10.6405,10.6405,10.6405,10.6405,10.6405,10.6405,10.6405,10.6405,10.6405,10.6405,10.6405,10.6405,10.6405,10.6405,10.6405,10.6405,10.6405,10.6405,10.6405,10.6405,10.6405,10.6405,10.6405,10.6405,10.6405,10.6405,10.6405,10.6405,10.6405,10.6405,10.6405,10.6405,10.6405,10.6405,10.6405,10.6405,10.6405,10.6405,10.6405,10.6405,10.6405,10.6405,10.6482,10.6636,10.7562,10.8409,10.8832,11.0021,11.0983,11.1175,11.1522,11.1406,11.1214,11.0906,11.0098,10.929,10.8713,10.787,10.7328,10.6905,10.6559,10.6405,10.6405,10.6405,10.6405,10.6405,10.6405,10.6405,10.6405,10.6407,10.6448,10.6564,10.668,10.6834,10.6944,10.7164,10.742,10.6914,10.6093,10.5117,10.4023,10.3281,10.2969,10.2812,10.2773,10.2812,10.2812,10.2851,10.2851,10.2773,10.2734,10.2689,10.2642,10.264,10.264,10.2656,10.2656,10.2617,10.2656,10.2693,10.2734,10.2851,10.2851,10.289,10.289,10.3008,10.3008,10.3086,10.289,10.289,10.3554,10.4492,10.5312,10.5976,10.6405,10.6405,10.6405,10.6405,10.6405,10.6405,10.6405,10.6405,10.6405,10.6405,10.6405,10.6405,10.6405,10.6405,10.6405,10.6405,10.6405,10.6405,10.6405,10.6405,10.6405,10.6405,10.6405,10.6405,10.6405,10.6405,10.6405,10.6405,10.6405,10.6405,10.6405,10.6405,10.6405,10.6405,10.6405,10.6405,10.6405,10.6405,10.6405,10.6405,10.6405,10.6405,10.6405,10.6559,10.7059,10.7831,10.8252,10.9098,11.0248,11.0555,11.094,11.1483,11.1291,11.094,11.0555,10.9786,10.8906,10.8098,10.7485,10.6905,10.6636,10.6444,10.6405,10.6405,10.6405,10.6405,10.6405,10.6405,10.6405,10.6405,10.6407,10.6407,10.6484,10.6525,10.6603,10.6719,10.6856,10.6757,10.5958,10.5163,10.4226,10.3271,10.2969,10.2656,10.2617,10.2656,10.2656,10.2695,10.2695,10.2734,10.2695,10.2589,10.2511,10.2475,10.2461,10.244,10.2417,10.2422,10.2452,10.2474,10.253,10.2499,10.2461,10.2539,10.2617,10.2695,10.2773,10.2773,10.2812,10.2812,10.2851,10.289,10.3594,10.4531,10.539,10.6405,10.6405,10.6405,10.6405,10.6405,10.6405,10.6405,10.6405,10.6405,10.6405,10.6405,10.6405,10.6405,10.6405,10.6405,10.6405,10.6405,10.6405,10.6405,10.6405,10.6405,10.6405,10.6405,10.6405,10.6405,10.6405,10.6405,10.6405,10.6405,10.6405,10.6405,10.6405,10.6405,10.6405,10.6405,10.6405,10.6405,10.6405,10.6405,10.6405,10.6405,10.6405,10.6444,10.6674,10.7175,10.8059,10.8675,10.9556,11.0517,11.1137,11.1329,11.1522,11.1483,11.1252,11.0479,10.944,10.8713,10.7908,10.7059,10.6597,10.6444,10.6405,10.6405,10.6405,10.6405,10.6405,10.6405,10.6405,10.6405,10.6405,10.6405,10.6405,10.6405,10.6407,10.6448,10.6487,10.6565,10.5806,10.5044,10.4211,10.3393,10.2907,10.2616,10.2498,10.2468,10.246,10.2475,10.25,10.25,10.25,10.2578,10.2488,10.231,10.226,10.229,10.2272,10.2254,10.2293,10.2332,10.2359,10.2344,10.2357,10.2317,10.2395,10.2461,10.2538,10.2568,10.2617,10.2656,10.2695,10.2734,10.2773,10.3008,10.3828,10.4726,10.6405,10.6405,10.6405,10.6405,10.6405,10.6405,10.6405,10.6405,10.6405,10.6405,10.6405,10.6405,10.6405,10.6405,10.6405,10.6405,10.6405,10.6405,10.6405,10.6405,10.6405,10.6405,10.6405,10.6405,10.6405,10.6405,10.6405,10.6405,10.6405,10.6405,10.6405,10.6405,10.6405,10.6405,10.6405,10.6405,10.6405,10.6405,10.6405,10.6405,10.6405,10.6405,10.6405,10.6674,10.7482,10.8367,10.9094,10.9979,11.0902,11.1368,11.1483,11.1522,11.1406,11.1017,11.0209,10.9248,10.8444,10.7793,10.6828,10.6405,10.6405,10.6405,10.6405,10.6405,10.6405,10.6405,10.6405,10.6405,10.6405,10.6405,10.6405,10.6405,10.6405,10.6446,10.6369,10.6371,10.5987,10.5305,10.4644,10.3976,10.3199,10.2578,10.2359,10.232,10.2303,10.2279,10.2329,10.2299,10.2318,10.2264,10.2345,10.2339,10.2183,10.2082,10.2075,10.2075,10.2058,10.2144,10.2237,10.2183,10.2155,10.2144,10.2213,10.2251,10.2294,10.2332,10.2401,10.2426,10.248,10.2539,10.2578,10.2617,10.292,10.3155,10.3867,10.6405,10.6405,10.6405,10.6405,10.6405,10.6405,10.6405,10.6405,10.6405,10.6405,10.6405,10.6405,10.6405,10.6405,10.6405,10.6405,10.6405,10.6405,10.6405,10.6405,10.6405,10.6405,10.6405,10.6405,10.6405,10.6405,10.6405,10.6405,10.6405,10.6405,10.6405,10.6405,10.6405,10.6405,10.6405,10.6405,10.6405,10.6482,10.6521,10.6521,10.6482,10.6405,10.6405,10.6944,10.7908,10.8752,10.9402,11.0171,11.1175,11.1291,11.1175,11.1021,11.0906,11.0479,10.9709,10.8825,10.8175,10.7367,10.6636,10.6405,10.6405,10.6405,10.6405,10.6405,10.6405,10.6405,10.6405,10.6405,10.6405,10.6405,10.6405,10.6405,10.6405,10.6367,10.6369,10.6176,10.5524,10.49,10.4305,10.37,10.3003,10.2276,10.2121,10.2121,10.2121,10.2121,10.216,10.216,10.2144,10.2096,10.2145,10.2135,10.2075,10.1966,10.1928,10.1928,10.1966,10.1966,10.2044,10.1966,10.1928,10.2005,10.2044,10.2075,10.2097,10.2184,10.2233,10.2268,10.2295,10.2361,10.2477,10.2534,10.2534,10.2807,10.3079,10.6405,10.6405,10.6405,10.6405,10.6405,10.6405,10.6405,10.6405,10.6405,10.6405,10.6405,10.6405,10.6405,10.6405,10.6405,10.6405,10.6405,10.6405,10.6405,10.6405,10.6405,10.6405,10.6405,10.6405,10.6405,10.6405,10.6405,10.6405,10.6405,10.6405,10.6405,10.6405,10.6405,10.6405,10.6405,10.6405,10.6405,10.6559,10.6905,10.7059,10.6521,10.6444,10.6405,10.7021,10.8024,10.8598,10.921,10.9902,11.0286,11.044,11.0402,11.0137,10.9906,10.9748,10.9171,10.8402,10.7752,10.7175,10.6636,10.6444,10.6405,10.6405,10.6405,10.6405,10.6405,10.6405,10.6405,10.6405,10.6405,10.6405,10.6405,10.6405,10.6405,10.6405,10.6367,10.5986,10.5486,10.4752,10.4054,10.3314,10.2499,10.2108,10.1832,10.1864,10.1935,10.1935,10.2005,10.2005,10.2005,10.1966,10.1966,10.1966,10.1966,10.1928,10.1928,10.1928,10.1928,10.1928,10.1889,10.1889,10.1889,10.1889,10.1928,10.1966,10.1966,10.1989,10.2044,10.2121,10.2135,10.2203,10.2328,10.2417,10.2367,10.241,10.2642]},{"header":{"parameterUnit":"m.s-1","parameterCategory":1,"la1":31.0,"la2":29.5877,"lo1":-88.7671,"lo2":-86.6584,"dx":0.0162,"dy":0.0185,"nx":115,"ny":88,"refTime":"2022-11-11T18:00:00:Z","depth":0,"parameterNumber":3,"parameterNumberName":"V-component_of_WINDS"},"data":[0.0,0.0,0.0,0.0,0.0,0.0,0.0,0.0,0.0,0.0,0.0,0.0,0.0,0.0,0.0,0.0,0.0,0.0,0.0,0.0,0.0,0.0,0.0,0.0,0.0,0.0,0.0,0.0,0.0,0.0,0.0,0.0,0.0,0.0,0.0,0.0,0.0,0.0,0.0,0.0,0.0,0.0,0.0,0.0,0.0,0.0,0.0,0.0,0.0,0.0,0.0,0.0,0.0,0.0,0.0,0.0,0.0,0.0,0.0,0.0,0.0,0.0,0.0,0.0,0.0,0.0,0.0,0.0,0.0,0.0,0.0,0.0,0.0,0.0,0.0,0.0,0.0,0.0,0.0,0.0,0.0,0.0,0.0,0.0,0.0,0.0,0.0,0.0,0.0,0.0,0.0,0.0,0.0,0.0,0.0,0.0,0.0,0.0,0.0,0.0,0.0,0.0,0.0,0.0,0.0,0.0,0.0,0.0,0.0,0.0,0.0,0.0,0.0,0.0,0.0,0.0,0.0,0.0,0.0,0.0,0.0,0.0,0.0,0.0,0.0,0.0,0.0,0.0,0.0,0.0,0.0,0.0,0.0,0.0,0.0,0.0,0.0,0.0,0.0,0.0,0.0,0.0,0.0,0.0,0.0,0.0,0.0,0.0,0.0,0.0,0.0,0.0,0.0,0.0,0.0,0.0,0.0,0.0,0.0,0.0,0.0,0.0,0.0,0.0,0.0,0.0,0.0,0.0,0.0,0.0,0.0,0.0,0.0,0.0,0.0,0.0,0.0,0.0,0.0,0.0,0.0,0.0,0.0,0.0,0.0,0.0,0.0,0.0,0.0,0.0,0.0,0.0,0.0,0.0,0.0,0.0,0.0,0.0,0.0,0.0,0.0,0.0,0.0,0.0,0.0,0.0,0.0,0.0,0.0,0.0,0.0,0.0,0.0,0.0,0.0,0.0,0.0,0.0,0.0,0.0,0.0,0.0,0.0,0.0,0.0,0.0,0.0,0.0,0.0,0.0,0.0,0.0,0.0,0.0,0.0,0.0,0.0,0.0,0.0,0.0,0.0,0.0,0.0,0.0,0.0,0.0,0.0,0.0,0.0,0.0,0.0,0.0,0.0,0.0,0.0,0.0,0.0,0.0,0.0,0.0,0.0,0.0,0.0,0.0,0.0,0.0,0.0,0.0,0.0,0.0,0.0,0.0,0.0,0.0,0.0,0.0,0.0,0.0,0.0,0.0,0.0,0.0,0.0,0.0,0.0,0.0,0.0,0.0,0.0,0.0,0.0,0.0,0.0,0.0,0.0,0.0,0.0,0.0,0.0,0.0,0.0,0.0,0.0,0.0,0.0,0.0,0.0,0.0,0.0,0.0,0.0,0.0,0.0,0.0,0.0,0.0,0.0,0.0,0.0,0.0,0.0,0.0,0.0,0.0,0.0,0.0,0.0,0.0,0.0,0.0,0.0,0.0,0.0,0.0,0.0,0.0,0.0,0.0,0.0,0.0,0.0,0.0,0.0,0.0,0.0,0.0,0.0,0.0,0.0,0.0,0.0,0.0,0.0,0.0,0.0,0.0,0.0,0.0,0.0,0.0,0.0,0.0,0.0,0.0,0.0,0.0,0.0,0.0,0.0,0.0,0.0,0.0,0.0,0.0,0.0,0.0,0.0,0.0,0.0,0.0,0.0,0.0,0.0,0.0,0.0,0.0,0.0,0.0,0.0,0.0,0.0,0.0,0.0,0.0,0.0,0.0,0.0,0.0,0.0,0.0,0.0,0.0,0.0,0.0,0.0,0.0,0.0,0.0,0.0,0.0,0.0,0.0,0.0,0.0,0.0,0.0,0.0,0.0,0.0,0.0,0.0,0.0,0.0,0.0,0.0,0.0,0.0,0.0,0.0,0.0,0.0,0.0,0.0,0.0,0.0,0.0,0.0,0.0,0.0,0.0,0.0,0.0,0.0,0.0,0.0,0.0,0.0,0.0,0.0,0.0,0.0,0.0,0.0,0.0,0.0,0.0,0.0,0.0,0.0,0.0,0.0,0.0,0.0,0.0,0.0,0.0,0.0,0.0,0.0,0.0,0.0,0.0,0.0,0.0,0.0,0.0,0.0,0.0,0.0,0.0,0.0,0.0,0.0,0.0,0.0,0.0,0.0,0.0,0.0,0.0,0.0,0.0,0.0,0.0,0.0,0.0,0.0,0.0,0.0,0.0,0.0,0.0,0.0,0.0,0.0,0.0,0.0,0.0,0.0,0.0,0.0,0.0,0.0,0.0,0.0,0.0,0.0,0.0,0.0,0.0,0.0,0.0,0.0,0.0,0.0,0.0,0.0,0.0,0.0,0.0,0.0,0.0,0.0,0.0,0.0,0.0,0.0,0.0,0.0,0.0,0.0,0.0,0.0,0.0,0.0,0.0,0.0,0.0,0.0,0.0,0.0,0.0,0.0,0.0,0.0,0.0,0.0,0.0,0.0,0.0,0.0,0.0,0.0,0.0,0.0,0.0,0.0,0.0,0.0,0.0,0.0,0.0,0.0,0.0,0.0,0.0,0.0,0.0,0.0,0.0,0.0,0.0,0.0,0.0,0.0,0.0,0.0,0.0,0.0,0.0,0.0,0.0,0.0,0.0,0.0,0.0,0.0,0.0,0.0,0.0,0.0,0.0,0.0,0.0,0.0,0.0,0.0,0.0,0.0,0.0,0.0,0.0,0.0,0.0,0.0,0.0,0.0,0.0,0.0,0.0,0.0,0.0,0.0,0.0,0.0,0.0,0.0,0.0,0.0,0.0,0.0,0.0,0.0,0.0,0.0,0.0,0.0,0.0,0.0,0.0,0.0,0.0,0.0,0.0,0.0,0.0,0.0,0.0,0.0,0.0,0.0,0.0,0.0,0.0,0.0,0.0,0.0,0.0,0.0,0.0,0.0,0.0,0.0,0.0,0.0,0.0,0.0,0.0,0.0,0.0,0.0,0.0,0.0,0.0,0.0,0.0,0.0,0.0,0.0,0.0,0.0,0.0,0.0,0.0,0.0,0.0,0.0,0.0,0.0,0.0,0.0,0.0,0.0,0.0,0.0,0.0,0.0,0.0,0.0,0.0,0.0,0.0,0.0,0.0,0.0,0.0,0.0,0.0,0.0,0.0,0.0,0.0,0.0,0.0,0.0,0.0,0.0,0.0,0.0,0.0,0.0,0.0,0.0,0.0,0.0,0.0,0.0,0.0,0.0,0.0,0.0,0.0,0.0,0.0,0.0,0.0,0.0,0.0,0.0,0.0,0.0,0.0,0.0,0.0,0.0,0.0,0.0,0.0,0.0,0.0,0.0,0.0,0.0,0.0,0.0,0.0,0.0,0.0,0.0,0.0,0.0,0.0,0.0,0.0,0.0,0.0,0.0,0.0,0.0,0.0,0.0,0.0,0.0,0.0,0.0,0.0,0.0,0.0,0.0,0.0,0.0,0.0,0.0,0.0,0.0,0.0,0.0,0.0,0.0,0.0,0.0,0.0,0.0,0.0,0.0,0.0,0.0,0.0,0.0,0.0,0.0,0.0,0.0,0.0,0.0,0.0,0.0,0.0,0.0,0.0,0.0,0.0,0.0,0.0,0.0,0.0,0.0,0.0,0.0,0.0,0.0,0.0,0.0,0.0,0.0,0.0,0.0,0.0,0.0,0.0,0.0,0.0,0.0,0.0,0.0,0.0,0.0,0.0,0.0,0.0,0.0,0.0,0.0,0.0,0.0,0.0,0.0,0.0,0.0,0.0,0.0,0.0,0.0,0.0,0.0,0.0,0.0,0.0,0.0,0.0,0.0,0.0,0.0,0.0,0.0,0.0,0.0,0.0,0.0,0.0,0.0,0.0,0.0,0.0,0.0,0.0,0.0,0.0,0.0,0.0,0.0,0.0,0.0,0.0,0.0,0.0,0.0,0.0,0.0,0.0,0.0,0.0,0.0,0.0,0.0,0.0,0.0,0.0,0.0,0.0,0.0,0.0,0.0,0.0,0.0,0.0,0.0,0.0,0.0,0.0,0.0,0.0,0.0,0.0,0.0,0.0,0.0,0.0,0.0,0.0,0.0,0.0,0.0,0.0,0.0,0.0,0.0,0.0,0.0,0.0,0.0,0.0,0.0,0.0,0.0,0.0,0.0,0.0,0.0,0.0,0.0,0.0,0.0,0.0,0.0,0.0,0.0,0.0,0.0,0.0,0.0,0.0,0.0,0.0,0.0,0.0,0.0,0.0,0.0,0.0,0.0,0.0,-0.4937,0.0,0.0,0.0,-0.4479,0.0,0.0,0.0,0.0,0.0,0.0,0.0,0.0,0.0,0.0,0.0,0.0,0.0,0.0,0.0,0.0,0.0,0.0,0.0,0.0,0.0,0.0,0.0,0.0,0.0,0.0,0.0,0.0,0.0,0.0,0.0,0.0,0.0,0.0,0.0,0.0,0.0,0.0,0.0,0.0,0.0,0.0,0.0,0.0,0.0,0.0,0.0,0.0,0.0,0.0,0.0,0.0,0.0,0.0,0.0,0.0,0.0,0.0,0.0,0.0,0.0,0.0,0.0,0.0,0.0,0.0,0.0,0.0,0.0,0.0,0.0,0.0,0.0,0.0,0.0,0.0,0.0,0.0,0.0,0.0,0.0,0.0,0.0,0.0,0.0,0.0,0.0,0.0,0.0,0.0,0.0,0.0,0.0,0.0,0.0,0.0,0.0,0.0,0.0,0.0,0.0,0.0,0.0,0.0,0.0,0.0,0.0,0.0,0.0,0.0,-0.4368,-0.4435,-0.4001,-0.412,-0.4964,0.0,0.0,0.0,0.0,0.0,0.0,0.0,0.0,0.0,0.0,0.0,0.0,0.0,0.0,0.0,0.0,0.0,0.0,0.0,0.0,0.0,0.0,0.0,0.0,0.0,0.0,0.0,0.0,0.0,0.0,0.0,0.0,0.0,0.0,0.0,0.0,0.0,0.0,0.0,0.0,0.0,0.0,0.0,0.0,0.0,0.0,0.0,0.0,0.0,0.0,0.0,0.0,0.0,0.0,0.0,0.0,0.0,0.0,0.0,0.0,0.0,0.0,0.0,0.0,0.0,0.0,0.0,0.0,0.0,0.0,0.0,0.0,0.0,0.0,0.0,0.0,0.0,0.0,0.0,0.0,0.0,0.0,0.0,0.0,0.0,0.0,0.0,0.0,0.0,0.0,0.0,0.0,0.0,0.0,0.0,0.0,0.0,0.0,0.0,0.0,0.0,0.0,0.0,0.0,0.0,0.0,0.0,0.0,0.0,0.0,0.0,0.0,-0.3015,-0.3589,-0.5299,0.0,0.0,0.0,0.0,0.0,0.0,0.0,0.0,0.0,0.0,0.0,0.0,0.0,0.0,0.0,0.0,0.0,0.0,0.0,0.0,0.0,0.0,0.0,0.0,0.0,0.0,0.0,0.0,0.0,0.0,0.0,0.0,0.0,0.0,0.0,0.0,0.0,0.0,0.0,0.0,0.0,0.0,0.0,0.0,0.0,0.0,0.0,0.0,0.0,0.0,0.0,0.0,0.0,0.0,0.0,0.0,0.0,0.0,0.0,0.0,0.0,0.0,0.0,0.0,0.0,0.0,0.0,0.0,0.0,0.0,0.0,0.0,0.0,0.0,0.0,0.0,0.0,0.0,0.0,0.0,0.0,0.0,0.0,0.0,0.0,0.0,0.0,0.0,0.0,0.0,0.0,0.0,0.0,0.0,0.0,0.0,0.0,0.0,0.0,0.0,0.0,0.0,0.0,0.0,0.0,0.0,0.0,0.0,0.0,0.0,-0.3064,-0.2676,-0.2596,0.0,-0.5252,0.0,0.0,0.0,0.0,0.0,0.0,0.0,0.0,0.0,0.0,0.0,0.0,0.0,0.0,0.0,0.0,0.0,0.0,0.0,0.0,0.0,0.0,0.0,0.0,0.0,0.0,0.0,0.0,0.0,0.0,0.0,0.0,0.0,0.0,0.0,0.0,0.0,0.0,0.0,0.0,0.0,0.0,0.0,0.0,0.0,0.0,0.0,0.0,0.0,0.0,0.0,0.0,0.0,0.0,0.0,0.0,0.0,0.0,0.0,0.0,0.0,0.0,0.0,0.0,0.0,0.0,0.0,0.0,0.0,0.0,0.0,0.0,0.0,0.0,0.0,0.0,0.0,0.0,0.0,0.0,0.0,0.0,0.0,0.0,0.0,0.0,0.0,0.0,0.0,0.0,0.0,0.0,0.0,0.0,0.0,0.0,0.0,0.0,0.0,0.0,0.0,0.0,0.0,0.0,0.0,0.0,0.0,0.0,0.0,0.0,-0.2278,-0.1674,-0.1674,-0.2078,0.0,0.0,0.0,0.0,0.0,0.0,0.0,0.0,0.0,0.0,0.0,0.0,0.0,0.0,0.0,0.0,0.0,0.0,0.0,0.0,0.0,0.0,0.0,0.0,0.0,0.0,0.0,0.0,0.0,0.0,0.0,0.0,0.0,0.0,0.0,0.0,0.0,0.0,0.0,0.0,0.0,0.0,0.0,0.0,0.0,0.0,0.0,0.0,0.0,0.0,0.0,0.0,0.0,0.0,0.0,0.0,0.0,0.0,0.0,0.0,0.0,0.0,0.0,0.0,0.0,0.0,0.0,0.0,0.0,0.0,0.0,0.0,0.0,0.0,0.0,0.0,0.0,0.0,0.0,0.0,0.0,0.0,0.0,0.0,0.0,0.0,0.0,0.0,0.0,0.0,0.0,0.0,0.0,0.0,0.0,0.0,0.0,0.0,0.0,0.0,0.0,0.0,0.0,0.0,0.0,0.0,0.0,0.0,0.0,0.0,-0.244,-0.1648,-0.1166,-0.1097,-0.1095,-0.1087,0.0,0.0,0.0,0.0,0.0,0.0,0.0,0.0,0.0,0.0,0.0,0.0,0.0,0.0,0.0,0.0,0.0,0.0,0.0,0.0,0.0,0.0,0.0,0.0,0.0,0.0,0.0,0.0,0.0,0.0,0.0,0.0,0.0,0.0,0.0,0.0,0.0,0.0,0.0,0.0,0.0,0.0,0.0,0.0,0.0,0.0,0.0,0.0,0.0,0.0,0.0,0.0,0.0,0.0,0.0,0.0,0.0,0.0,0.0,0.0,0.0,0.0,0.0,0.0,0.0,0.0,0.0,0.0,0.0,0.0,0.0,0.0,0.0,0.0,0.0,0.0,0.0,0.0,0.0,0.0,0.0,0.0,0.0,0.0,0.0,0.0,0.0,0.0,0.0,0.0,0.0,0.0,0.0,0.0,0.0,0.0,0.0,0.0,0.0,0.0,0.0,0.0,0.0,0.0,0.0,0.0,0.0,0.0,-0.1256,-0.1218,-0.1234,-0.116,-0.1161,-0.1076,0.0,0.0,0.0,0.0,0.0,0.0,0.0,0.0,0.0,0.0,0.0,0.0,0.0,0.0,0.0,0.0,0.0,0.0,0.0,0.0,0.0,0.0,0.0,0.0,0.0,0.0,0.0,0.0,0.0,0.0,0.0,0.0,0.0,0.0,0.0,0.0,0.0,0.0,0.0,0.0,0.0,0.0,0.0,0.0,0.0,0.0,0.0,0.0,0.0,0.0,0.0,0.0,0.0,0.0,0.0,0.0,0.0,0.0,0.0,0.0,0.0,0.0,0.0,0.0,0.0,0.0,0.0,0.0,0.0,0.0,0.0,0.0,0.0,0.0,0.0,0.0,0.0,0.0,0.0,0.0,0.0,0.0,0.0,0.0,0.0,0.0,0.0,0.0,0.0,0.0,0.0,0.0,0.0,0.0,0.0,0.0,0.0,0.0,0.0,0.0,0.0,0.0,0.0,0.0,0.0,0.0,0.0,0.0,0.0,-0.1221,-0.1234,-0.1238,-0.1166,-0.1166,-0.1161,0.0,0.0,0.0,0.0,0.0,0.0,0.0,0.0,0.0,0.0,0.0,0.0,0.0,0.0,0.0,0.0,0.0,0.0,0.0,0.0,0.0,0.0,0.0,0.0,0.0,0.0,0.0,0.0,0.0,0.0,0.0,0.0,0.0,0.0,0.0,0.0,0.0,0.0,0.0,0.0,0.0,0.0,0.0,0.0,0.0,0.0,0.0,0.0,0.0,0.0,0.0,0.0,0.0,0.0,0.0,0.0,0.0,0.0,0.0,0.0,0.0,0.0,0.0,0.0,0.0,0.0,0.0,0.0,0.0,0.0,0.0,0.0,0.0,0.0,0.0,0.0,0.0,0.0,0.0,0.0,0.0,0.0,0.0,0.0,0.0,0.0,0.0,0.0,0.0,0.0,0.0,0.0,0.0,0.0,0.0,0.0,0.0,0.0,0.0,0.0,0.0,0.0,0.0,0.0,0.0,0.0,0.0,0.0,0.0,-0.1301,-0.1302,-0.1302,-0.1226,-0.1226,-0.1216,0.0,0.0,0.0,0.0,0.0,0.0,0.0,0.0,0.0,0.0,0.0,0.0,0.0,0.0,0.0,0.0,0.0,0.0,0.0,0.0,0.0,0.0,0.0,0.0,0.0,0.0,0.0,0.0,0.0,0.0,0.0,0.0,0.0,0.0,0.0,0.0,0.0,0.0,0.0,0.0,0.0,0.0,0.0,0.0,0.0,0.0,0.0,0.0,0.0,0.0,0.0,0.0,0.0,0.0,0.0,0.0,0.0,0.0,0.0,0.0,0.0,0.0,0.0,0.0,0.0,0.0,0.0,0.0,0.0,0.0,0.0,0.0,0.0,0.0,0.0,0.0,0.0,0.0,0.0,0.0,0.0,0.0,0.0,0.0,0.0,0.0,0.0,0.0,0.0,0.0,0.0,0.0,0.0,0.0,0.0,0.0,0.0,0.0,0.0,0.0,0.0,0.0,0.0,0.0,0.0,0.0,0.0,0.0,-0.1287,-0.1343,-0.126,-0.1256,-0.1263,-0.1343,-0.1317,0.0,0.0,0.0,0.0,0.0,0.0,0.0,0.0,0.0,0.0,0.0,0.0,0.0,0.0,0.0,0.0,0.0,0.0,0.0,0.0,0.0,0.0,0.0,0.0,0.0,0.0,0.0,0.0,0.0,0.0,0.0,0.0,0.0,0.0,0.0,0.0,0.0,0.0,0.0,0.0,0.0,0.0,0.0,0.0,0.0,0.0,0.0,0.0,0.0,0.0,0.0,0.0,0.0,0.0,0.0,0.0,0.0,0.0,0.0,0.0,0.0,0.0,0.0,0.0,0.0,0.0,0.0,0.0,0.0,0.0,0.0,0.0,0.0,0.0,0.0,0.0,0.0,0.0,0.0,0.0,0.0,0.0,0.0,0.0,0.0,0.0,0.0,0.0,0.0,0.0,0.0,0.0,0.0,0.0,0.0,0.0,0.0,0.0,0.0,0.0,0.0,0.0,0.0,0.0,0.0,0.0,0.0,0.0,0.0,-0.1264,-0.0758,-0.0674,-0.1264,-0.1348,-0.134,0.0,0.0,0.0,0.0,0.0,0.0,0.0,0.0,0.0,0.0,0.0,0.0,0.0,0.0,0.0,0.0,0.0,0.0,0.0,0.0,0.0,0.0,0.0,0.0,0.0,0.0,0.0,0.0,0.0,0.0,0.0,0.0,0.0,0.0,0.0,0.0,0.0,0.0,0.0,0.0,0.0,0.0,0.0,0.0,0.0,0.0,0.0,0.0,0.0,0.0,0.0,0.0,0.0,0.0,0.0,0.0,0.0,0.0,0.0,0.0,0.0,0.0,0.0,0.0,0.0,0.0,0.0,0.0,0.0,0.0,0.0,0.0,0.0,0.0,0.0,0.0,0.0,0.0,0.0,0.0,0.0,0.0,0.0,0.0,0.0,0.0,0.0,0.0,0.0,0.0,0.0,0.0,0.0,0.0,0.0,0.0,0.0,0.0,0.0,0.0,0.0,0.0,0.0,0.0,0.0,0.0,0.0,0.0,0.0,-0.11,-0.0732,-0.0638,-0.0814,-0.0821,-0.0985,-0.1282,0.0,0.0,0.0,0.0,0.0,0.0,0.0,0.0,0.0,0.0,0.0,0.0,0.0,0.0,0.0,0.0,0.0,0.0,0.0,0.0,0.0,0.0,0.0,0.0,0.0,0.0,0.0,0.0,0.0,0.0,0.0,0.0,0.0,0.0,0.0,0.0,0.0,0.0,0.0,0.0,0.0,0.0,0.0,0.0,0.0,0.0,0.0,0.0,0.0,0.0,0.0,0.0,0.0,0.0,0.0,0.0,0.0,0.0,0.0,0.0,0.0,0.0,0.0,0.0,0.0,0.0,0.0,0.0,0.0,0.0,0.0,0.0,0.0,0.0,0.0,0.0,0.0,0.0,0.0,0.0,0.0,0.0,0.0,0.0,0.0,0.0,0.0,0.0,0.0,0.0,0.0,0.0,0.0,0.0,0.0,0.0,0.0,0.0,0.0,0.0,0.0,0.0,0.0,0.0,0.0,0.0,0.0,0.0,-0.0733,-0.1154,-0.0936,-0.0102,-0.0,-0.0395,0.0,0.0,0.0,0.0,0.0,0.0,0.0,0.0,0.0,0.0,0.0,0.0,0.0,0.0,0.0,0.0,0.0,0.0,0.0,0.0,0.0,0.0,0.0,0.0,0.0,0.0,0.0,0.0,0.0,0.0,0.0,0.0,0.0,0.0,0.0,0.0,0.0,0.0,0.0,0.0,0.0,0.0,0.0,0.0,0.0,0.0,0.0,0.0,0.0,0.0,0.0,0.0,0.0,0.0,0.0,0.0,0.0,0.0,0.0,0.0,0.0,0.0,0.0,0.0,0.0,0.0,0.0,0.0,0.0,0.0,0.0,0.0,0.0,0.0,0.0,0.0,0.0,0.0,0.0,0.0,0.0,0.0,0.0,0.0,0.0,0.0,0.0,0.0,0.0,0.0,0.0,0.0,0.0,0.0,0.0,0.0,0.0,0.0,0.0,0.0,0.0,0.0,0.0,0.0,0.0,0.0,0.0,0.0,0.0,-0.1368,-0.071,-0.0584,-0.0986,-0.0423,-0.0102,0.0,0.0,0.0,0.0,0.0,0.0,0.0,0.0,0.0,0.0,0.0,0.0,0.0,0.0,0.0,0.0,0.0,0.0,0.0,0.0,0.0,0.0,0.0,0.0,0.0,0.0,0.0,0.0,0.0,0.0,0.0,0.0,0.0,0.0,0.0,0.0,0.0,0.0,0.0,0.0,0.0,0.0,0.0,0.0,0.0,0.0,0.0,0.0,0.0,0.0,0.0,0.0,0.0,0.0,0.0,0.0,0.0,0.0,0.0,0.0,0.0,0.0,0.0,0.0,0.0,0.0,0.0,0.0,0.0,0.0,0.0,0.0,0.0,0.0,0.0,0.0,0.0,0.0,0.0,0.0,0.0,0.0,0.0,0.0,0.0,0.0,0.0,0.0,0.0,0.0,0.0,0.0,0.0,0.0,0.0,0.0,0.0,0.0,0.0,0.0,0.0,0.0,0.0,0.0,0.0,0.0,0.0,0.0,-0.1134,-0.1532,-0.0628,-0.0254,-0.0731,-0.0228,0.0,0.0,0.0,0.0,0.0,0.0,0.0,0.0,0.0,0.0,0.0,0.0,0.0,0.0,0.0,0.0,0.0,0.0,0.0,0.0,0.0,0.0,0.0,0.0,0.0,0.0,0.0,0.0,0.0,0.0,0.0,0.0,0.0,0.0,0.0,0.0,0.0,0.0,0.0,0.0,0.0,0.0,0.0,0.0,0.0,0.0,0.0,0.0,0.0,0.0,0.0,0.0,0.0,0.0,0.0,0.0,0.0,0.0,0.0,0.0,0.0,0.0,0.0,0.0,0.0,0.0,0.0,0.0,0.0,0.0,0.0,0.0,0.0,0.0,0.0,0.0,0.0,0.0,0.0,0.0,0.0,0.0,0.0,0.0,0.0,0.0,0.0,0.0,0.0,0.0,0.0,0.0,0.0,0.0,0.0,0.0,0.0,0.0,0.0,0.0,0.0,0.0,0.0,0.0,0.0,0.0,0.0,0.0,0.0,-0.0474,-0.143,-0.0518,0.0,0.0,0.0,0.0,0.0,0.0,0.0,0.0,0.0,0.0,0.0,0.0,0.0,0.0,0.0,0.0,0.0,0.0,0.0,0.0,0.0,0.0,0.0,0.0,0.0,0.0,0.0,0.0,0.0,0.0,0.0,0.0,0.0,0.0,0.0,0.0,0.0,0.0,0.0,0.0,0.0,0.0,0.0,0.0,0.0,0.0,0.0,0.0,0.0,0.0,0.0,0.0,0.0,0.0,0.0,0.0,0.0,0.0,0.0,0.0,0.0,0.0,0.0,0.0,0.0,0.0,0.0,0.0,0.0,0.0,0.0,0.0,0.0,0.0,0.0,0.0,0.0,0.0,0.0,0.0,0.0,0.0,0.0,0.0,0.0,0.0,0.0,0.0,0.0,0.0,0.0,0.0,0.0,0.0,0.0,0.0,0.0,0.0,0.0,0.0,0.0,0.0,0.0,0.0,0.0,0.0,0.0,0.0,0.0,0.0,0.0,0.0,-0.0122,-0.038,-0.0135,0.0,0.0,0.0,0.0,0.0,0.0,0.0,0.0,0.0,0.0,0.0,0.0,0.0,0.0,0.0,0.0,0.0,0.0,0.0,0.0,0.0,0.0,0.0,0.0,0.0,0.0,0.0,0.0,0.0,0.0,0.0,0.0,0.0,0.0,0.0,0.0,0.0,0.0,0.0,0.0,0.0,0.0,0.0,0.0,0.0,0.0,0.0,0.0,0.0,0.0,0.0,0.0,-0.5795,0.0,0.0,0.0,0.0,0.0,0.0,0.0,0.0,0.0,0.0,0.0,0.0,0.0,0.0,0.0,0.0,0.0,0.0,0.0,0.0,0.0,0.0,0.0,0.0,0.0,0.0,0.0,0.0,0.0,0.0,0.0,0.0,0.0,0.0,0.0,0.0,0.0,0.0,0.0,0.0,0.0,0.0,0.0,0.0,0.0,0.0,0.0,0.0,0.0,0.0,0.0,0.0,0.0,0.0,0.0,0.0,0.0,0.0,0.0,0.0,0.0,0.0,0.0,0.0,0.0,0.0,0.0,0.0,0.0,0.0,0.0,0.0,0.0,0.0,0.0,0.0,0.0,0.0,0.0,0.0,0.0,0.0,0.0,0.0,0.0,0.0,0.0,0.0,0.0,0.0,0.0,0.0,0.0,0.0,0.0,0.0,0.0,0.0,0.0,0.0,0.0,0.0,0.0,0.0,0.0,0.0,0.0,0.0,0.0,0.0,0.0,0.0,0.0,0.0,0.0,0.0,0.0,0.0,0.0,0.0,0.0,0.0,0.0,0.0,0.0,0.0,0.0,0.0,0.0,0.0,0.0,0.0,0.0,0.0,0.0,0.0,0.0,0.0,0.0,0.0,0.0,0.0,0.0,0.0,0.0,0.0,0.0,0.0,0.0,0.0,0.0,0.0,0.0,0.0,0.0,0.0,0.0,0.0,0.0,0.0,0.0,0.0,0.0,0.0,0.0,0.0,0.0,0.0,0.0,0.0,0.0,0.0,0.0,0.0,0.0,0.0,0.0,0.0,0.0,0.0,0.0,0.0,0.0,0.0,0.0,0.0,0.0,0.0,0.0,0.0,0.0,0.0,0.0,0.0,0.0,0.0,0.0,0.0,0.0,0.0,0.0,0.0,0.0,0.0,0.0,0.0,0.0,0.0,0.0,0.0,0.0,0.0,0.0,0.0,0.0,0.0,0.0,0.0,0.0,0.0,-0.6381,-0.6479,0.0,0.0,0.0,0.0,0.0,0.0,0.0,0.0,-0.5489,0.0,0.0,0.0,0.0,0.0,0.0,0.0,0.0,0.0,0.0,0.0,0.0,0.0,0.0,0.0,0.0,0.0,0.0,0.0,0.0,0.0,0.0,0.0,0.0,0.0,0.0,0.0,0.0,0.0,0.0,0.0,0.0,0.0,0.0,0.0,0.0,0.0,0.0,0.0,0.0,0.0,0.0,0.0,0.0,0.0,0.0,0.0,0.0,0.0,0.0,0.0,0.0,0.0,0.0,0.0,0.0,0.0,0.0,0.0,0.0,0.0,0.0,0.0,0.0,0.0,0.0,0.0,0.0,0.0,0.0,0.0,0.0,0.0,0.0,0.0,0.0,0.0,0.0,0.0,0.0,0.0,0.0,0.0,0.0,0.0,0.0,0.0,0.0,0.0,0.0,0.0,0.0,0.0,0.0,0.0,0.0,0.0,0.0,0.0,0.0,0.0,0.0,0.0,0.0,0.0,-0.5748,-0.5871,0.0,0.0,0.0,0.0,0.0,0.0,0.0,0.0,-0.4243,0.0,0.0,0.0,0.0,0.0,0.0,0.0,0.0,0.0,0.0,0.0,0.0,0.0,0.0,0.0,0.0,0.0,0.0,0.0,0.0,0.0,0.0,0.0,0.0,0.0,0.0,0.0,0.0,0.0,0.0,0.0,0.0,0.0,0.0,0.0,0.0,0.0,0.0,0.0,0.0,0.0,0.0,0.0,0.0,0.0,0.0,0.0,0.0,0.0,0.0,0.0,0.0,0.0,0.0,0.0,0.0,0.0,0.0,0.0,0.0,0.0,0.0,0.0,0.0,0.0,0.0,0.0,0.0,0.0,0.0,0.0,0.0,0.0,0.0,0.0,0.0,0.0,0.0,0.0,0.0,0.0,0.0,0.0,0.0,0.0,0.0,0.0,0.0,0.0,0.0,0.0,0.0,0.0,0.0,0.0,0.0,0.0,0.0,0.0,0.0,0.0,0.0,0.0,0.0,-0.6316,-0.6481,-0.6378,0.0,0.0,0.0,0.0,0.0,0.0,-0.3988,-0.4191,0.0,0.0,0.0,0.0,0.0,0.0,0.0,0.0,0.0,0.0,0.0,0.0,0.0,0.0,0.0,0.0,0.0,0.0,0.0,0.0,0.0,0.0,0.0,0.0,0.0,0.0,0.0,0.0,0.0,0.0,0.0,0.0,0.0,0.0,0.0,0.0,0.0,0.0,0.0,0.0,0.0,0.0,0.0,0.0,0.0,0.0,0.0,0.0,0.0,0.0,0.0,0.0,0.0,0.0,0.0,0.0,0.0,0.0,0.0,0.0,0.0,0.0,0.0,0.0,0.0,0.0,0.0,0.0,0.0,0.0,0.0,0.0,0.0,0.0,0.0,0.0,0.0,0.0,0.0,0.0,0.0,0.0,0.0,0.0,0.0,0.0,0.0,0.0,0.0,0.0,0.0,0.0,0.0,0.0,0.0,0.0,0.0,0.0,0.0,0.0,0.0,0.0,0.0,0.0,0.0,-0.6738,-0.6075,-0.5278,0.0,0.0,0.0,0.0,-0.327,-0.3681,0.0,0.0,0.0,0.0,0.0,0.0,0.0,0.0,0.0,0.0,0.0,0.0,0.0,0.0,0.0,0.0,0.0,0.0,0.0,0.0,0.0,0.0,0.0,0.0,0.0,0.0,0.0,0.0,0.0,0.0,0.0,0.0,0.0,0.0,0.0,0.0,0.0,0.0,0.0,0.0,0.0,0.0,0.0,0.0,0.0,0.0,0.0,0.0,0.0,0.0,0.0,0.0,0.0,0.0,0.0,0.0,0.0,0.0,0.0,0.0,0.0,0.0,0.0,0.0,0.0,0.0,0.0,0.0,0.0,0.0,0.0,0.0,0.0,0.0,0.0,0.0,0.0,0.0,0.0,0.0,0.0,0.0,0.0,0.0,0.0,0.0,0.0,0.0,0.0,0.0,0.0,0.0,0.0,0.0,0.0,0.0,0.0,0.0,0.0,0.0,0.0,0.0,0.0,0.0,0.0,0.0,-0.5465,-0.4381,-0.2764,-0.2133,0.0,0.0,-0.2329,-0.2231,-0.2257,0.0,0.0,0.0,0.0,0.0,0.0,0.0,0.0,0.0,0.0,0.0,0.0,0.0,0.0,0.0,0.0,0.0,0.0,0.0,0.0,0.0,0.0,0.0,0.0,0.0,0.0,0.0,0.0,0.0,0.0,0.0,0.0,0.0,0.0,0.0,0.0,0.0,0.0,0.0,0.0,0.0,0.0,0.0,0.0,0.0,0.0,0.0,0.0,0.0,0.0,0.0,0.0,0.0,0.0,0.0,0.0,0.0,0.0,0.0,0.0,0.0,0.0,0.0,0.0,0.0,0.0,0.0,0.0,0.0,0.0,0.0,0.0,0.0,0.0,0.0,0.0,0.0,0.0,0.0,0.0,0.0,0.0,0.0,0.0,0.0,0.0,0.0,0.0,0.0,0.0,0.0,0.0,0.0,0.0,0.0,0.0,0.0,0.0,0.0,0.0,0.0,0.0,0.0,0.0,0.0,0.0,0.0,-0.2396,-0.1564,0.0,0.0,0.0,-0.2027,-0.2077,0.0,0.0,0.0,0.0,0.0,0.0,0.0,0.0,0.0,0.0,0.0,0.0,0.0,0.0,0.0,0.0,0.0,0.0,0.0,0.0,0.0,0.0,0.0,0.0,0.0,0.0,0.0,0.0,0.0,0.0,0.0,0.0,0.0,0.0,0.0,0.0,0.0,0.0,0.0,0.0,0.0,0.0,0.0,0.0,0.0,0.0,0.0,0.0,0.0,0.0,0.0,0.0,0.0,0.0,0.0,0.0,0.0,0.0,0.0,0.0,0.0,0.0,0.0,0.0,0.0,0.0,0.0,0.0,0.0,0.0,0.0,0.0,0.0,0.0,0.0,0.0,0.0,0.0,0.0,0.0,0.0,0.0,0.0,0.0,0.0,0.0,0.0,0.0,0.0,0.0,0.0,0.0,-0.1112,0.0,0.0,0.0,0.0,0.0,0.0,0.0,0.0,0.0,0.0,0.0,0.0,0.0,0.0,-0.3953,-0.1339,-0.0875,-0.1016,0.0,0.0,-0.1826,-0.2116,-0.2239,-0.2142,0.0,0.0,0.0,0.0,0.0,0.0,0.0,0.0,0.0,0.0,0.0,0.0,0.0,0.0,0.0,0.0,0.0,0.0,0.0,0.0,0.0,0.0,0.0,0.0,0.0,0.0,0.0,0.0,0.0,0.0,0.0,0.0,0.0,0.0,0.0,0.0,0.0,0.0,0.0,0.0,0.0,0.0,0.0,0.0,0.0,0.0,0.0,0.0,0.0,0.0,0.0,0.0,0.0,0.0,0.0,0.0,0.0,0.0,0.0,0.0,0.0,0.0,0.0,0.0,0.0,0.0,0.0,0.0,0.0,0.0,0.0,0.0,0.0,0.0,0.0,0.0,0.0,0.0,0.0,0.0,0.0,0.0,0.0,0.0,0.0,0.0,0.0,0.0,0.0,0.0,0.0,0.0,0.0,0.0,0.0,0.0,0.0,0.0,0.0,0.0,0.0,0.0,0.0,0.0,0.0,-0.408,-0.1885,-0.0638,-0.0523,0.0,-0.1353,-0.1219,-0.2074,-0.23,-0.2301,-0.212,0.0,0.0,0.0,0.0,0.0,0.0,0.0,0.0,0.0,0.0,0.0,0.0,0.0,0.0,0.0,0.0,0.0,0.0,0.0,0.0,0.0,0.0,0.0,0.0,0.0,0.0,0.0,0.0,0.0,0.0,0.0,0.0,0.0,0.0,0.0,0.0,0.0,0.0,0.0,0.0,0.0,0.0,0.0,0.0,0.0,0.0,0.0,0.0,0.0,0.0,0.0,0.0,0.0,0.0,0.0,0.0,0.0,0.0,0.0,0.0,0.0,0.0,0.0,0.0,0.0,0.0,0.0,0.0,0.0,0.0,0.0,0.0,0.0,0.0,0.0,0.0,0.0,0.0,0.0,0.0,0.0,0.0,0.0,0.0,0.0,0.0,0.0,0.0,0.0,0.0,0.0,-0.1067,-0.139,-0.1592,0.0,0.0,0.0,0.0,0.0,0.0,0.0,0.0,0.0,0.0,-0.2542,-0.1854,-0.0674,0.0,0.0,-0.0853,-0.0855,-0.0844,-0.1449,-0.1882,-0.1737,-0.1968,0.0,0.0,0.0,0.0,0.0,0.0,0.0,0.0,0.0,0.0,0.0,0.0,0.0,0.0,0.0,0.0,0.0,0.0,0.0,0.0,0.0,0.0,0.0,0.0,0.0,0.0,0.0,0.0,0.0,0.0,0.0,0.0,0.0,0.0,0.0,0.0,0.0,0.0,0.0,0.0,0.0,0.0,0.0,0.0,0.0,0.0,0.0,0.0,0.0,0.0,0.0,0.0,0.0,0.0,0.0,0.0,0.0,0.0,0.0,0.0,0.0,0.0,0.0,0.0,0.0,0.0,0.0,0.0,0.0,0.0,0.0,0.0,0.0,0.0,0.0,0.0,0.0,0.0,0.0,0.0,0.0,0.0,0.0,0.0,0.0,0.0,0.0,0.0,0.0,0.0,-0.073,-0.1168,-0.1573,0.0,0.0,0.0,0.0,0.0,0.0,0.0,0.0,0.0,0.0,-0.1587,-0.1369,-0.0974,-0.0705,-0.0714,-0.0866,-0.0867,-0.0142,-0.0581,-0.1306,-0.1648,0.0,0.0,0.0,0.0,0.0,0.0,0.0,0.0,0.0,0.0,0.0,0.0,0.0,0.0,0.0,0.0,0.0,0.0,0.0,0.0,0.0,0.0,0.0,0.0,0.0,0.0,0.0,0.0,0.0,0.0,0.0,0.0,0.0,0.0,0.0,0.0,0.0,0.0,0.0,0.0,0.0,0.0,0.0,0.0,0.0,0.0,0.0,0.0,0.0,0.0,0.0,0.0,0.0,0.0,0.0,0.0,0.0,0.0,0.0,0.0,0.0,0.0,0.0,0.0,0.0,0.0,0.0,0.0,0.0,0.0,0.0,0.0,0.0,0.0,0.0,0.0,0.0,0.0,0.0,0.0,0.0,0.0,0.0,0.0,0.0,0.0,0.0,0.0,0.0,0.0,-0.0089,-0.0496,-0.0854,0.0,0.0,0.0,0.0,0.0,0.0,0.0,0.0,0.0,0.0,-0.1729,-0.1393,-0.0276,-0.1252,-0.2118,-0.2147,-0.1544,-0.0839,-0.0145,-0.0,-0.0584,0.0,0.0,0.0,0.0,0.0,0.0,0.0,0.0,0.0,0.0,0.0,0.0,0.0,0.0,0.0,0.0,0.0,0.0,0.0,0.0,0.0,0.0,0.0,0.0,0.0,0.0,0.0,0.2994,0.0,0.0,0.0,0.0,0.0,0.0,0.0,0.0,0.0,0.0,0.0,0.0,0.0,0.0,0.0,0.0,0.0,0.0,0.0,0.0,0.0,0.0,0.0,0.0,0.0,0.0,0.0,0.0,0.0,0.0,0.0,0.0,0.0,0.0,0.0,0.0,0.0,0.0,0.0,0.0,0.0,0.0,0.0,0.0,0.0,0.0,0.0,0.0,0.0,0.0,0.0,0.0,0.0,0.0,0.0,0.0,0.0,0.0,0.0,0.0,0.0,0.0,-0.0304,0.0,0.0,0.0,0.0,0.0,0.0,0.0,0.0,0.0,0.0,0.0,-0.1659,-0.174,-0.1086,-0.0413,-0.0,-0.0425,-0.1009,0.0,0.0,0.0,0.0,0.0,0.0,0.0,0.0,0.0,0.0,0.0,0.0,0.0,0.0,-0.1187,-0.1109,-0.1121,-0.1271,-0.1653,0.0,0.0,0.0,0.0,0.0,0.0,0.0,0.0,0.0,0.0,0.0,0.0,0.0,0.0,0.5946,0.0,0.1834,0.0,0.0,0.0,0.0,0.0,0.0,0.0,0.0,0.1995,0.0,0.0,0.0,0.0,0.0,0.0,0.133,0.0,0.0,0.0,0.0,0.0,0.0,0.0,0.0,0.0,0.0,0.0,0.0,0.0,0.0,0.1333,0.3834,0.1323,0.0,0.0,0.0,0.0,0.0,0.0,0.0,0.0,0.0,0.0,0.0,0.0,0.0,0.0,0.0,0.0,0.0,0.0,0.0,0.0,0.0,0.0,0.0,0.0,0.0,0.0,0.0,0.0,0.0,0.0,0.0,0.0,0.0,0.0,0.0,0.0,0.0,-0.1635,-0.1689,-0.1488,-0.1273,-0.0424,0.0,0.0,0.0,0.0,0.0,0.0,0.0,0.0,0.0,-0.0732,-0.0723,-0.073,-0.0738,-0.0744,-0.1047,-0.1499,-0.1948,0.0,0.0,-0.0542,-0.0544,-0.0693,-0.1108,-0.1535,-0.1685,-0.1264,-0.0848,-0.0572,0.0,0.0,0.0,0.0,0.0,0.0,0.0,0.0,0.7617,0.852,0.0,0.5418,0.0,0.0,0.0,0.0,0.0,0.0,0.0,0.0,0.0606,0.0,0.0,0.0,0.0,0.0,0.0,0.3696,0.9804,0.3692,0.0,0.0,0.0,0.0,0.0,0.0,0.0,0.0,0.0,0.0,0.0,0.0,0.3481,1.0309,0.4087,0.0,0.0,0.0,0.0,0.0,0.0,0.0,0.0,0.0,0.0,0.0,0.0,0.0,0.0,0.0,0.0,0.0,0.0,0.0,0.0,0.0,0.0,0.0,0.0,0.0,0.0,0.0,0.0,0.0,0.0,0.0,0.0,0.0,0.0,0.0,0.0,0.0,-0.157,-0.1632,-0.1276,-0.0145,0.0,0.0,0.0,0.0,0.0,0.0,-0.0569,-0.1277,-0.2018,-0.2209,-0.1663,-0.0313,0.0,0.0,0.0,0.0,-0.0473,-0.1893,-0.0972,0.0,0.0,0.0,0.0,0.0,-0.1034,-0.1912,-0.1765,-0.089,0.0,0.8228,0.0,0.0,0.0,0.0,0.8596,0.8552,0.8097,0.8866,0.9267,0.9041,0.821,0.0,0.0,0.0,0.0,0.0,0.0,0.2794,0.7575,0.7629,0.5003,0.0158,0.5316,0.7617,0.7549,0.5079,0.4905,0.7152,0.7525,0.5061,0.0,0.0,0.0,0.0,0.0,0.0,0.0,0.0,0.0,0.0,0.0,0.1064,0.3344,0.6563,0.8029,0.7684,0.7558,0.7673,0.7677,0.7582,0.0,0.0,0.0,0.0,0.0,0.0,0.0,0.0,0.0,0.0,0.0,0.0,0.0,0.0,0.0,0.0,0.0,0.0,0.0,0.0,0.0,0.0,0.0,0.0,0.0,0.0,0.0,0.0,0.0,0.0,0.0,-0.1742,-0.1004,-0.043,0.0,0.0,0.0,0.0,0.0,0.0,0.0,-0.0155,0.0,-0.0649,-0.0643,-0.0478,-0.0,0.0,0.0,0.0,0.0,-0.0169,0.0,-0.0341,0.0,0.0,0.0,0.0,0.0,-0.0332,-0.0498,-0.0498,-0.0166,0.0,1.0,0.9821,0.9282,0.9065,0.926,0.9765,0.9877,0.9574,0.9652,0.9641,0.9562,0.949,0.9456,0.9729,0.8267,0.0,0.0,0.0,0.6251,1.0342,1.0493,0.8211,0.4732,0.8632,1.0655,1.0547,0.8543,0.7585,0.7813,0.9652,0.7758,0.2292,0.0,0.0,0.0,0.0,0.0,0.0,0.0,0.0,0.0,0.0,0.0,0.0,0.4586,0.8213,1.0857,0.8101,0.7913,1.093,1.0837,0.8673,0.0,0.0,0.0,0.0,0.0,0.0,0.0,0.0,0.0,0.0,0.0,0.0,0.0,0.0,0.0,0.0,0.0,0.0,0.0,0.0,0.0,0.0,0.0,0.0,0.0,0.0,0.0,0.0,-0.1161,-0.1834,-0.1228,-0.0454,0.0,0.0,0.0,0.0,0.0,0.0,0.0,0.0,0.0,0.0,0.0,0.0,0.0,0.0,0.0,0.0,0.0,0.0,0.0,0.0,0.0,0.0,0.0,0.0,0.0,0.0,0.0,0.0,0.0,0.0,0.0,1.0215,1.0172,0.9617,0.9443,0.953,0.9546,0.9748,1.0047,1.0068,1.0079,1.0052,0.9731,0.9966,1.0545,1.0625,0.0,1.0448,1.0112,0.9998,1.007,1.0085,1.0372,1.0766,1.0799,1.076,1.0812,1.065,1.0766,1.0959,1.0755,0.8921,0.5888,0.2533,0.0669,0.0,0.0,0.0,0.0,0.0,0.0,0.0,0.0744,0.0928,0.1111,0.0363,0.3583,1.0942,0.4694,0.3926,1.0073,1.06,1.0716,1.052,0.0,0.0,0.0,0.0,0.0,0.0,0.0,0.0,0.0,0.0,0.0,0.0,0.0,0.0,0.0,0.0,0.0,0.0,0.0,0.0,0.0,0.0,0.0,0.0,0.0,0.0,0.0,0.0,0.0,0.0,0.0,0.0,0.0,0.0,0.0,0.0,0.0,0.0,0.0,0.0,0.0,0.0,0.0,0.0,0.0,0.0,0.0,0.0,0.0,0.0,0.0,0.0,0.0,0.0,0.0,0.0,0.0,0.0,0.0,0.0,0.0,0.0,1.0346,1.0329,1.0188,1.0036,0.9911,1.0095,1.0221,1.0313,1.0487,1.0568,1.0558,1.0476,1.0509,1.0793,1.0902,1.0777,1.071,1.0447,1.0251,1.0282,1.0456,1.0819,1.1225,1.1069,1.0971,1.0944,1.0944,1.1014,1.1145,1.1107,1.0631,1.0054,0.9193,0.5891,0.0,0.0,0.0,0.0,0.0,0.0,0.0,0.635,0.9755,0.9294,0.3171,0.3675,1.1097,0.9724,0.6921,0.3136,0.7878,1.0693,1.0616,0.904,0.0,0.0,0.0,0.0,0.0,0.0,0.0,0.0,0.0,0.0,0.0,0.0,0.0,0.0,0.0,0.0,0.0,0.0,0.0,0.0,0.0,0.0,0.0,0.0,0.0,0.0,-0.0322,-0.0332,-0.0,0.0,0.0,0.0,0.0,0.0,0.0,0.0,0.0,0.0,0.0,0.0,0.0,0.0,0.0,0.0,0.0,0.0,0.0,0.0,0.0,0.0,0.0,0.0,0.0,0.0,0.0,0.0,0.0,0.0,0.0,0.0,0.0,1.0623,1.0617,1.0563,1.0433,1.0264,1.0351,1.0384,1.04,1.0525,1.0579,1.0585,1.0693,1.0775,1.0846,1.0954,1.1003,1.0992,1.0758,1.0693,1.064,1.0646,1.1041,1.1504,1.1524,1.1439,1.1439,1.1259,1.1319,1.1427,1.1444,1.1514,1.1634,1.1507,0.9375,0.5255,0.4936,0.4834,0.4761,0.1671,0.095,0.2936,0.9383,1.2621,1.2053,0.7913,0.7405,1.1612,1.1849,0.9545,0.5196,0.8774,0.9459,0.6198,0.8562,0.8498,0.0,0.0,0.0,0.0,0.0,0.0,0.0,0.0,0.0,0.0,0.0,0.0,0.0,0.0,0.0,0.0,0.0,0.0,0.0,0.0,0.0,0.0,0.0,0.0,0.0,0.0,0.0,0.0,0.0,0.0,0.0,0.0,0.0,0.0,0.0,0.0,0.0,0.0,0.0,0.0,0.0,0.0,0.0,0.0,0.0,0.0,0.0,0.0,0.0,0.0,0.0,0.0,0.0,0.0,0.0,0.0,0.0,0.0,0.0,0.0,1.0992,1.0976,1.0873,1.0764,1.0666,1.0563,1.0481,1.0405,1.0422,1.0438,1.0471,1.0704,1.0808,1.0819,1.1063,1.1172,1.1172,1.1183,1.1183,1.1177,1.093,1.0978,1.15,1.1804,1.1866,1.1866,1.1682,1.1558,1.1656,1.1661,1.1716,1.1635,1.1557,1.1562,1.1473,1.1211,1.1049,1.0976,0.4721,0.346,0.7049,1.0773,1.2632,1.221,1.2267,1.2236,1.2269,1.2033,1.1658,1.0822,1.1233,0.7893,0.0661,0.6029,0.6907,0.0,0.1144,0.0,0.0,0.0,0.0,0.0,0.0,0.0,0.0,0.0,0.0,0.0,0.0,0.0,0.0,0.0,0.0,0.0,0.0,0.0,0.0,0.0,0.0,0.0,0.0,0.0,0.0,0.0,0.0,0.0,0.0,0.0,0.0,0.0,0.0,0.0,0.0,0.0,0.0,0.0,0.0,0.0,0.0,0.0,0.0,0.0,0.0,0.0,0.0,0.0,0.0,0.0,0.0,0.0,0.0,0.0,0.0,0.0,0.0,1.1351,1.1351,1.133,1.1308,1.1281,1.1264,1.0976,1.053,1.0628,1.0726,1.0835,1.124,1.1345,1.1188,1.1427,1.1536,1.1542,1.1453,1.1448,1.1357,1.1294,1.1475,1.158,1.1881,1.2124,1.2124,1.1936,1.1764,1.1786,1.1786,1.1797,1.1824,1.1742,1.1796,1.1785,0.0,0.0,0.0,1.1161,1.075,1.1187,1.1797,1.221,1.1882,1.202,0.0,1.2135,1.1432,1.0936,1.0641,1.0814,0.0,0.0,0.0,0.0,0.0,0.0,0.0,0.0,0.0,0.0,0.0,0.0,0.0,0.0,0.0,0.0,0.0,0.0,0.0,0.0,0.0,0.0,0.0,0.0,0.0,0.0,0.0,0.0,0.0,0.0,0.0,0.0,0.0,0.0,0.0,0.0,0.0,0.0,0.0,0.0,0.0,0.0,0.0,0.0,0.0,0.0,0.0,0.0,0.0,0.0,0.0,0.0,0.0,0.0,0.0,0.0,0.0,0.0,0.0,0.0,0.0,0.0,0.0,0.0,1.1634,1.1634,1.1634,1.1601,0.0,1.1547,1.134,1.1003,1.1063,1.1128,1.1194,1.1555,1.1632,1.146,1.158,1.1634,1.1634,1.1639,1.1639,1.1639,1.1705,1.1759,1.1813,1.2063,1.2124,1.2184,1.1993,1.1993,1.1998,1.2053,1.2085,1.2085,1.1951,1.201,1.208,1.2455,1.2595,1.2676,1.2858,1.2632,1.2352,1.2042,1.2085,1.1919,1.2145,0.0,0.0,0.0,0.0,0.0,0.0,0.0,0.0,0.0,0.0,1.0493,1.006,0.9962,1.0256,0.7308,0.3836,0.0,0.0,0.0,0.0,0.0,0.0,0.0,0.0,0.0,0.0,0.0,0.0,0.0,0.0,0.0,0.0,0.0,0.0,0.0,0.0,0.0,0.0,0.0,0.0,0.0,0.0,0.0,0.0,0.0,0.0,0.0,0.0,0.0,0.0,0.0,0.0,0.0,0.0,0.0,0.0,0.0,0.0,0.0,0.0,0.0,0.0,0.0,0.0,0.0,0.0,0.0,0.0,0.0,0.0,1.2069,1.2069,1.2069,1.2008,1.1914,1.1914,1.1672,1.1574,0.0,0.0,0.0,1.1798,1.1853,1.1667,1.1688,1.1699,1.1694,1.1798,1.182,1.1732,1.2102,1.2208,1.2207,1.2212,1.2262,1.2167,1.2172,1.2183,1.2205,1.2308,1.2368,1.239,1.2406,1.2272,1.2363,1.2369,1.2262,1.2438,1.2773,1.2656,1.246,1.2036,1.1926,1.2112,1.2205,1.1935,1.1678,1.1748,1.1944,1.223,1.1483,1.1034,1.086,1.1838,1.2067,1.1715,1.1058,1.0913,1.1483,0.4438,0.0,0.0,0.0,0.0,0.0,0.0,0.0,0.0,0.0,0.0,0.0,0.0,0.0,0.0,0.0,0.0,0.0,0.0,0.0,0.0,0.0,0.0,0.0,0.0,0.0,0.0,0.0,0.0,0.0,0.0,0.0,0.0,0.0,0.0,0.0,0.0,0.0,0.0,0.0,0.0,0.0,0.0,0.0,0.0,0.0,0.0,0.0,0.0,0.0,0.0,0.0,0.0,0.0,0.0,0.0,1.3063,1.3439,1.3439,1.3427,1.3409,1.2847,1.246,1.2042,1.1748,1.1612,1.1618,1.1737,1.1792,1.1797,1.1895,1.1938,1.1944,1.1839,1.1887,1.1903,1.2096,1.2118,1.2145,1.2145,1.2156,1.2172,1.2172,1.2227,1.2319,1.2346,1.2406,1.2509,1.2411,1.246,1.2279,1.2279,1.2216,1.2482,1.2281,1.2188,1.2216,1.2212,1.2091,1.1873,1.1895,1.2113,1.272,1.2749,1.2743,1.2725,1.2725,1.2376,1.1678,1.2146,1.2348,1.2129,1.2031,1.1998,1.1855,0.4506,0.0,0.0,0.0,0.0,0.0,0.0,0.0,0.0,0.0,0.0,0.0,0.0,0.0,0.0,0.0,0.0,0.0,0.0,0.0,0.0,0.0,0.0,0.0,0.0,0.0,0.0,0.0,0.0,0.0,0.0,0.0,0.0,0.0,0.0,0.0,0.0,0.0,0.0,0.0,0.0,0.0,0.0,0.0,0.0,0.0,0.0,0.0,0.0,0.0,0.0,0.0,0.0,0.0,0.0,0.0,1.3493,1.3682,1.3682,1.3682,1.3682,1.3493,1.3346,1.3198,1.2847,1.254,1.1933,1.1987,1.2009,1.2009,1.1993,1.1987,1.1987,1.1796,1.186,1.1784,1.1983,1.2237,1.2165,1.2368,1.2368,1.2368,1.2368,1.2395,1.2455,1.2515,1.2574,1.2629,1.2683,1.2672,1.2618,1.2613,1.2585,1.2731,1.2422,1.2176,1.2368,1.2455,1.221,1.221,1.2069,1.2128,1.2571,1.2836,1.2869,1.2875,1.2875,1.267,1.246,1.2411,1.2598,1.2643,1.2401,1.2379,1.2593,0.4635,0.0,0.0,0.0,0.0,0.0,0.0,0.0,0.0,0.0,0.0,0.0,0.0,0.0,0.0,0.0,0.0,0.0,0.0,0.0,0.0,0.0,0.0,0.0,0.0,0.0,0.0,0.0,0.0,0.0,0.0,0.0,0.0,0.0,0.0,0.0,0.0,0.0,0.0,0.0,0.0,0.0,0.0,0.0,0.0,0.0,0.0,0.0,0.0,0.0,0.0,0.0,0.0,0.0,0.0,0.0,1.3963,1.4153,1.4153,1.4153,1.3963,1.3963,1.4025,1.392,1.392,1.3501,1.2679,1.2455,1.2438,1.2433,1.2156,1.2112,1.2096,1.202,1.1892,1.1857,1.2275,1.2379,1.2326,1.2558,1.2564,1.2542,1.2564,1.2585,1.2623,1.2732,1.2797,1.2819,1.2825,1.2985,1.2897,1.2897,1.2897,1.2897,1.2492,1.2454,1.2574,1.2574,1.2574,1.2385,1.2258,1.23,1.231,1.2797,1.2863,1.2884,1.289,1.2846,1.2957,1.2743,1.2705,1.2825,1.2618,1.2623,1.2443,0.4923,0.0,0.0,0.0,0.0,0.0,0.0,0.0,0.0,0.0,0.0,0.0,0.0,0.0,0.0,0.0,0.0,0.0,0.0,0.0,0.0,0.0,0.0,0.0,0.0,0.0,0.0,0.0,0.0,0.0,0.0,0.0,0.0,0.0,0.0,0.0,0.0,0.0,0.0,0.0,0.0,0.0,0.0,0.0,0.0,0.0,0.0,0.0,0.0,0.0,0.0,0.0,0.0,0.0,0.0,0.0,1.5009,1.5401,1.5395,1.5208,1.4809,1.4816,1.4629,1.4061,1.4067,1.4134,1.4012,1.3515,1.3274,1.3074,1.2676,1.2477,1.2477,1.2278,1.2089,1.2315,1.2607,1.2814,1.277,1.2852,1.2836,1.2775,1.2858,1.2765,1.2857,1.2982,1.3086,1.2968,1.2979,1.2963,1.2957,1.2952,1.2957,1.3172,1.2968,1.2813,1.271,1.2891,1.2891,1.2689,1.2502,1.2502,1.2727,1.2919,1.2979,1.2873,1.2895,1.2884,1.2873,1.2868,1.2868,1.2852,1.2852,1.2868,1.2468,0.4812,0.0,0.0,0.0,0.0,0.0,0.0,0.0,0.0,0.0,0.0,0.0,0.0,0.0,0.0,0.0,0.0,0.0,0.0,0.0,0.0,0.0,0.0,0.0,0.0,0.0,0.0,0.0,0.0,0.0,0.0,0.0,0.0,0.0,0.0,0.0,0.0,0.0,0.0,0.0,0.0,0.0,0.0,0.0,0.0,0.0,0.0,0.0,0.0,0.0,0.0,0.0,0.0,0.0,0.0,0.0,1.5448,1.5635,1.5635,1.5448,1.5261,1.5535,1.5374,1.5192,1.5361,1.5472,1.5325,1.495,1.447,1.412,1.3534,1.3139,1.3139,1.2743,1.2583,1.2442,1.27,1.3134,1.3167,1.2999,1.2993,1.3162,1.2999,1.3047,1.3107,1.3216,1.3303,1.3129,1.3134,1.3134,1.3341,1.3276,1.3449,1.3449,1.3449,1.32,1.3134,1.3267,1.3228,1.302,1.2813,1.2813,1.2813,1.2818,1.284,1.2882,1.2829,1.2993,1.2993,1.2928,1.289,1.289,1.289,1.2895,1.2912,0.9464,0.6436,0.4026,0.1411,0.0,0.0,0.0,0.0,0.0,0.0,0.0,0.0,0.0,0.0,0.0,0.0,0.0,0.0,0.0,0.0,0.0,0.0,0.0,0.0,0.0,0.0,0.0,0.0,0.0,0.0,0.0,0.0,0.0,0.0,0.0,0.0,0.0,0.0,0.0,0.0,0.0,0.0,0.0,0.0,0.0,0.0,0.0,0.0,0.0,0.0,0.0,0.0,0.0,0.0,0.0,0.0,1.5879,1.5886,1.5927,1.5967,1.6015,1.6117,1.6164,1.6185,1.6402,1.6517,1.6564,1.6254,1.5796,1.5214,1.4267,1.3794,1.3794,1.3184,1.2845,1.2742,1.2989,1.3259,1.3548,1.3374,1.3161,1.3346,1.3374,1.3406,1.3439,1.352,1.3569,1.3353,1.3353,1.3564,1.3558,1.3686,1.3647,1.3653,1.3647,1.3482,1.3542,1.3692,1.3598,1.3303,1.308,1.3064,1.3032,1.3032,1.3032,1.3027,1.3156,1.3113,1.2904,1.3031,1.2982,1.2982,1.2982,1.2988,1.3004,1.3015,1.1589,0.8326,0.5079,0.244,0.0,0.0,0.0,0.0,0.0,0.0,0.0,0.0,0.0,0.0,0.0,0.0,0.0,0.0,0.0,0.0,0.0,0.0,0.0,0.0,0.0,0.0,0.0,0.0,0.0,0.0,0.0,0.0,0.0,0.0,0.0,0.0,0.0,0.0,0.0,0.0,0.0,0.0,0.0,0.0,0.0,0.0,0.0,0.0,0.0,0.0,0.0,0.0,0.0,0.0,0.0,1.6483,1.6497,1.6639,1.6741,1.691,1.6904,1.691,1.6856,1.6931,1.7019,1.71,1.7141,1.7229,1.7056,1.5093,1.4053,1.4059,1.366,1.3308,1.3209,1.3526,1.358,1.3597,1.3492,1.37,1.3819,1.3901,1.4001,1.389,1.3917,1.3934,1.3923,1.3912,1.3923,1.369,1.3669,1.3696,1.3874,1.3653,1.3685,1.3696,1.3906,1.3738,1.3681,1.3631,1.3385,1.3281,1.346,1.3465,1.346,1.3449,1.3443,1.3021,1.3011,1.3,1.3,1.3005,1.3005,1.3216,1.3032,1.2642,1.2441,1.1198,0.8725,0.2067,0.0,0.0,0.0,0.0,0.0,0.0,0.0,0.0,0.0,0.0,0.0,0.0,0.0,0.0,0.0,0.0,0.0,0.0,0.0,0.0,0.0,0.0,0.0,0.0,0.0,0.0,0.0,0.0,0.0,0.0,0.0,0.0,0.0,0.0,0.0,0.0,0.0,0.0,0.0,0.0,0.0,0.0,0.0,0.0,0.0,0.0,0.0,0.0,0.0,0.0,1.6815,1.6822,1.6876,1.6931,1.6985,1.7073,1.7066,1.6998,1.7188,1.7229,1.7216,1.7297,1.7372,1.7405,1.613,1.5399,1.4981,1.4125,1.3722,1.3551,1.3809,1.383,1.4056,1.4095,1.41,1.4282,1.4095,1.4133,1.3961,1.4031,1.4069,1.4075,1.4075,1.4075,1.4059,1.3999,1.4177,1.4177,1.4177,1.3955,1.3961,1.4177,1.4106,1.3995,1.3765,1.3525,1.3482,1.3629,1.3591,1.3591,1.3658,1.3565,1.3352,1.3493,1.3243,1.3032,1.3238,1.3449,1.3449,1.346,1.327,1.2869,1.0376,0.8936,0.7472,0.0,0.0,0.0,0.0,0.0,0.0,0.0,0.0,0.0,0.0,0.0,0.0,0.0,0.0,0.0,0.0,0.0,0.0,0.0,0.0,0.0,0.0,0.0,0.0,0.0,0.0,0.0,0.0,0.0,0.0,0.0,0.0,0.0,0.0,0.0,0.0,0.0,0.0,0.0,0.0,0.0,0.0,0.0,0.0,0.0,0.0,0.0,0.0,0.0,0.0,1.7154,1.7195,1.7195,1.7229,1.7277,1.7372,1.7358,1.729,1.7473,1.7507,1.7439,1.7521,1.7561,1.7561,1.6909,1.6474,1.6026,1.4868,1.3977,1.3787,1.401,1.4037,1.4293,1.4299,1.4293,1.4299,1.4299,1.4293,1.408,1.4156,1.4195,1.4195,1.4195,1.442,1.4404,1.4338,1.4299,1.4299,1.4299,1.4299,1.4075,1.4293,1.4299,1.4293,1.4075,1.3808,1.3744,1.3879,1.3841,1.36,1.3684,1.3791,1.3747,1.3636,1.3357,1.3145,1.3357,1.357,1.357,1.3576,1.3592,1.2979,0.7729,0.585,0.7961,0.3341,0.0,0.0,0.0,0.0,0.0,0.0,0.0,0.0,0.0,0.0,0.0,0.0,0.0,0.0,0.0,0.0,0.0,0.0,0.0,0.0,0.0,0.0,0.0,0.0,0.0,0.0,0.0,0.0,0.0,0.0,0.0,0.0,0.0,0.0,0.0,0.0,0.0,0.0,0.0,0.0,0.0,0.0,0.0,0.0,0.0,0.0,0.0,0.0,0.0,1.7507,1.7616,1.765,1.769,1.7779,1.7792,1.784,1.7799,1.7826,1.7806,1.7779,1.7833,1.7812,1.784,1.7372,1.6962,1.6684,1.5615,1.4484,1.4124,1.3915,1.4195,1.4287,1.4282,1.4282,1.4287,1.4303,1.4309,1.4292,1.4298,1.4303,1.4314,1.4303,1.4298,1.4314,1.4292,1.4298,1.4292,1.4282,1.4298,1.432,1.4292,1.4287,1.4298,1.4292,1.4189,1.3983,1.4183,1.3955,1.3733,1.3934,1.3896,1.377,1.3667,1.3607,1.3591,1.3597,1.3597,1.3586,1.3591,1.3597,1.2545,0.5523,0.1485,0.1484,0.0,0.0,0.0,0.0,0.0,0.0,0.0,0.0,0.0,0.0,0.0,0.0,0.0,0.0,0.0,0.0,0.0,0.0,0.0,0.0,0.0,0.0,0.0,0.0,0.0,0.0,0.0,0.0,0.0,0.0,0.0,0.0,0.0,0.0,0.0,0.0,0.0,0.0,0.0,0.0,0.0,0.0,0.0,0.0,0.0,0.0,0.0,0.0,0.0,0.0,1.7751,1.7792,1.7799,1.7819,1.786,1.786,1.786,1.786,1.786,1.786,1.786,1.786,1.786,1.786,1.7646,1.7424,1.6975,1.6445,1.5545,1.4465,1.4254,1.4282,1.4314,1.432,1.432,1.432,1.432,1.432,1.432,1.432,1.432,1.432,1.432,1.432,1.432,1.432,1.432,1.432,1.432,1.432,1.432,1.432,1.4764,1.5436,1.4753,1.4254,1.4184,1.4332,1.4293,1.4075,1.4873,1.502,1.389,1.3637,1.3589,1.3525,1.3514,1.3684,1.3613,1.3613,1.3629,1.2571,0.7868,0.3403,0.0,0.0,0.0,0.0,0.0,0.0,0.0,0.0,0.0,0.0,0.0,0.0,0.0,0.0,0.0,0.0,0.0,0.0,0.0,0.0,0.0,0.0,0.0,0.0,0.0,0.0,0.0,0.0,0.0,0.0,0.0,0.0,0.0,0.0,0.0,0.0,0.0,0.0,0.0,0.0,0.0,0.0,0.0,0.0,0.0,0.0,0.0,0.0,0.0,0.0,0.0,1.786,1.786,1.786,1.786,1.786,1.786,1.786,1.786,1.786,1.786,1.786,1.786,1.786,1.786,1.786,1.7639,1.7424,1.7203,1.6564,1.5471,1.4536,1.4309,1.4309,1.4309,1.4536,1.4764,1.4764,1.4536,1.4758,1.4764,1.4764,1.432,1.4314,1.4314,1.432,1.432,1.432,1.432,1.432,1.432,1.4314,1.4764,1.5208,1.5652,1.5418,1.5185,1.4952,1.5336,1.5747,1.5729,1.6294,1.5995,1.4662,1.4183,1.3912,1.3863,1.3626,1.36,1.3743,1.3705,1.3678,1.3046,1.0874,0.6377,0.0,0.0,0.0,0.0,0.0,0.0,0.0,0.0,0.0,0.0,0.0,0.0,0.0,0.0,0.0,0.0,0.0,0.0,0.0,0.0,0.0,0.0,0.0,0.0,0.0,0.0,0.0,0.0,0.0,0.0,0.0,0.0,0.0,0.0,0.0,0.0,0.0,0.0,0.0,0.0,0.0,0.0,0.0,0.0,0.0,0.0,0.0,0.0,0.0,0.0,0.0,1.7874,1.788,1.7887,1.7907,1.7914,1.7914,1.7928,1.7901,1.7907,1.7921,1.7914,1.7935,1.7914,1.7907,1.7941,1.7935,1.7894,1.7484,1.7334,1.6926,1.5964,1.5015,1.5026,1.4809,1.5266,1.5711,1.5477,1.5243,1.5266,1.5711,1.5454,1.4592,1.4363,1.433,1.4369,1.4347,1.4592,1.5049,1.4814,1.4803,1.4564,1.5471,1.6144,1.5904,1.6348,1.6342,1.6342,1.6988,1.7659,1.7887,1.7758,1.7246,1.6107,1.5126,1.4645,1.44,1.3961,1.3733,1.3928,1.3841,1.3803,1.3589,1.3093,1.0228,0.0,0.0,0.0,0.0,0.0,0.0,0.0,0.0,0.0,0.0,0.0,0.0,0.0,0.0,0.0,0.0,0.0,0.0,0.0,0.0,0.0,0.0,0.0,0.0,0.0,0.0,0.0,0.0,0.0,0.0,0.0,0.0,0.0,0.0,0.0,0.0,0.0,0.0,0.0,0.0,0.0,0.0,0.0,0.0,0.0,0.0,0.0,0.0,0.0,0.0,0.0,1.803,1.8043,1.8152,1.8199,1.8199,1.8199,1.8192,1.8199,1.8192,1.8179,1.8192,1.8199,1.8186,1.8199,1.8192,1.8199,1.8186,1.796,1.7762,1.7788,1.7543,1.7066,1.6847,1.6157,1.6145,1.6377,1.6358,1.6157,1.6157,1.6364,1.6145,1.5497,1.4763,1.4311,1.4333,1.4542,1.5474,1.7324,1.7556,1.6383,1.4994,1.6145,1.7085,1.7523,1.6964,1.6913,1.734,1.7699,1.7874,1.7874,1.7846,1.7819,1.7372,1.6885,1.6156,1.4764,1.4299,1.4048,1.42,1.4161,1.4139,1.3917,1.3901,1.2841,1.0724,0.3946,0.0,0.0,0.0,0.0,0.0,0.0,0.0,0.0,0.0,0.0,0.0,0.0,0.0,0.0,0.0,0.0,0.0,0.0,0.0,0.0,0.0,0.0,0.0,0.0,0.0,0.0,0.0,0.0,0.0,0.0,0.0,0.0,0.0,0.0,0.0,0.0,0.0,0.0,0.0,0.0,0.0,0.0,0.0,0.0,0.0,0.0,0.0,0.0,0.0,1.8186,1.8192,1.828,1.8321,1.8321,1.8321,1.8321,1.8321,1.8321,1.8321,1.8321,1.8321,1.8321,1.8321,1.8314,1.8314,1.8321,1.8321,1.8121,1.8188,1.8242,1.8443,1.8141,1.7647,1.7414,1.7414,1.6953,1.6941,1.6934,1.7174,1.6953,1.6254,1.556,1.556,1.626,1.626,1.6953,1.8582,1.8823,1.7888,1.6481,1.718,1.7868,1.8321,1.7768,1.7709,1.786,1.8002,1.7935,1.788,1.7867,1.7874,1.788,1.7894,1.721,1.5838,1.4901,1.4409,1.4404,1.4365,1.431,1.4048,1.4048,1.4097,1.3272,0.8648,0.5588,0.0,0.0,0.0,0.0,0.0,0.0,0.0,0.0,0.0,0.0,0.0,0.0,0.0,0.0,0.0,0.0,0.0,0.0,0.0,0.0,0.0,0.0,0.0,0.0,0.0,0.0,0.0,0.0,0.0,0.0,0.0,0.0,0.0,0.0,0.0,0.0,0.0,0.0,0.0,0.0,0.0,0.0,0.0,0.0,0.0,0.0,0.0,0.0,1.8342,1.8342,1.8362,1.8362,1.8375,1.8369,1.8396,1.8375,1.8396,1.8389,1.8389,1.8375,1.8409,1.8362,1.8423,1.8375,1.8382,1.8409,1.8464,1.8329,1.864,1.8626,1.8685,1.8671,1.8437,1.843,1.7921,1.77,1.7726,1.8168,1.7693,1.7029,1.6782,1.7465,1.798,1.843,1.8637,1.8671,1.8685,1.8678,1.8202,1.8437,1.8437,1.8658,1.8375,1.8041,1.794,1.788,1.7833,1.7921,1.7901,1.7914,1.7921,1.7941,1.778,1.7188,1.5759,1.439,1.4466,1.4625,1.4547,1.4243,1.4216,1.4216,1.4081,1.3044,1.0185,0.411,0.0917,0.0,0.0,0.0,0.0,0.0,0.0,0.0,0.0,0.0,0.0,0.0,0.0,0.0,0.0,0.0,0.0,0.0,0.0,0.0,0.0,0.0,0.0,0.0,0.0,0.0,0.0,0.0,0.0,0.0,0.0,0.0,0.0,0.0,0.0,0.0,0.0,0.0,0.0,0.0,0.0,0.0,0.0,0.0,0.0,0.0,0.0,1.8484,1.8498,1.862,1.8667,1.8667,1.8667,1.866,1.8654,1.866,1.864,1.866,1.866,1.8654,1.8654,1.864,1.8667,1.864,1.864,1.8694,1.8708,1.8735,1.8742,1.8898,1.8884,1.8891,1.8654,1.866,1.8429,1.8654,1.8633,1.866,1.8192,1.8159,1.8429,1.8667,1.8877,1.8905,1.8905,1.8898,1.8884,1.8877,1.8647,1.8647,1.8864,1.8774,1.8423,1.8301,1.8034,1.8021,1.8206,1.8118,1.7873,1.794,1.7967,1.8001,1.7569,1.6187,1.4801,1.4613,1.4602,1.4586,1.4532,1.4526,1.4602,1.4706,1.4722,1.3894,1.0255,0.0,0.0,0.0,0.0,0.0,0.0,0.0,0.0,0.0,0.0,0.0,0.0,0.0,0.0,0.0,0.0,0.0,0.0,0.0,0.0,0.0,0.0,0.0,0.0,0.0,0.0,0.0,0.0,0.0,0.0,0.0,0.0,0.0,0.0,0.0,0.0,0.0,0.0,0.0,0.0,0.0,0.0,0.0,0.0,0.0,0.0,0.0,1.864,1.8647,1.8728,1.8762,1.8762,1.8762,1.8762,1.8762,1.8762,1.8762,1.8762,1.8762,1.8762,1.8762,1.8762,1.8755,1.8762,1.8762,1.8762,1.8755,1.8762,1.8762,1.8762,1.8762,1.8762,1.8762,1.8755,1.8762,1.8762,1.8762,1.8749,1.8769,1.8769,1.8742,1.8769,1.8762,1.8755,1.8749,1.8762,1.8762,1.8762,1.8762,1.8762,1.8755,1.8912,1.8802,1.8437,1.8416,1.8423,1.8403,1.8342,1.8287,1.8081,1.8321,1.8355,1.8188,1.744,1.6074,1.5413,1.4749,1.4727,1.4684,1.4722,1.4787,1.4841,1.4869,1.495,1.3402,0.8465,0.0,0.0,0.0,0.0,0.0,0.0,0.0,0.0,0.0,0.0,0.0,0.0,0.0,0.0,0.0,0.0,0.0,0.0,0.0,0.0,0.0,0.0,0.0,0.0,0.0,0.0,0.0,0.0,0.0,0.0,0.0,0.0,0.0,0.0,0.0,0.0,0.0,0.0,0.0,0.0,0.0,0.0,0.0,0.0,0.0,0.0,1.8762,1.8762,1.8762,1.8762,1.8762,1.8762,1.8762,1.8762,1.8762,1.8762,1.8762,1.8762,1.8762,1.8762,1.8762,1.8762,1.8762,1.8762,1.8762,1.8762,1.8762,1.8762,1.8762,1.8762,1.8762,1.8762,1.8762,1.8762,1.8762,1.8762,1.8762,1.8762,1.8762,1.8762,1.8762,1.8762,1.8762,1.8762,1.8762,1.8762,1.8762,1.8762,1.8762,1.8755,1.8749,1.8694,1.8829,1.8802,1.8802,1.8802,1.8802,1.8733,1.843,1.863,1.8906,1.8823,1.8498,1.7581,1.6246,1.533,1.4831,1.4733,1.482,1.488,1.4896,1.4907,1.4972,1.291,0.9172,0.0,0.0,0.0,0.0,0.0,0.0,0.0,0.0,0.0,0.0,0.0,0.0,0.0,0.0,0.0,0.0,0.0,0.0,0.0,0.0,0.0,0.0,0.0,0.0,0.0,0.0,0.0,0.0,0.0,0.0,0.0,0.0,0.0,0.0,0.0,0.0,0.0,0.0,0.0,0.0,0.0,0.0,0.0,0.0,0.0,0.0,1.8762,1.8762,1.8762,1.8762,1.8762,1.8762,1.8762,1.8762,1.8762,1.8762,1.8762,1.8762,1.8762,1.8762,1.8762,1.8762,1.8762,1.8762,1.8762,1.8762,1.8762,1.8762,1.8762,1.8762,1.8762,1.8762,1.8762,1.8762,1.8762,1.8762,1.8762,1.8762,1.8762,1.8762,1.8762,1.8762,1.8762,1.8762,1.8762,1.8762,1.8762,1.8762,1.8762,1.8762,1.8762,1.8742,1.8728,1.8715,1.8721,1.8721,1.8721,1.8708,1.8687,1.8681,1.8701,1.8694,1.8687,1.8443,1.7775,1.6145,1.5204,1.4967,1.4977,1.4994,1.4999,1.4999,1.5015,1.2681,0.0,0.0,0.0,0.0,0.0,0.0,0.0,0.0,0.0,0.0,0.0,0.0,0.0,0.0,0.0,0.0,0.0,0.0,0.0,0.0,0.0,0.0,0.0,0.0,0.0,0.0,0.0,0.0,0.0,0.0,0.0,0.0,0.0,0.0,0.0,0.0,0.0,0.0,0.0,0.0,0.0,0.0,0.0,0.0,0.0,0.0,0.0,1.8762,1.8762,1.8762,1.8762,1.8762,1.8762,1.8762,1.8762,1.8762,1.8762,1.8762,1.8762,1.8762,1.8762,1.8762,1.8762,1.8762,1.8762,1.8762,1.8762,1.8762,1.8762,1.8762,1.8762,1.8762,1.8762,1.8762,1.8762,1.8762,1.8762,1.8762,1.8762,1.8762,1.8762,1.8762,1.8762,1.8762,1.8762,1.8762,1.8762,1.8762,1.8762,1.8762,1.8762,1.8762,1.8762,1.8762,1.8762,1.8762,1.8776,1.883,1.8871,1.8898,1.8925,1.8918,1.881,1.8776,1.8782,1.8557,1.6902,1.5947,1.5021,1.5032,1.5037,1.5037,1.5037,1.5048,1.2929,0.0,0.0,0.0,0.0,0.0,0.0,0.0,0.0,0.0,0.0,0.0,0.0,0.0,0.0,0.0,0.0,0.0,0.0,0.0,0.0,0.0,0.0,0.0,0.0,0.0,0.0,0.0,0.0,0.0,0.0,0.0,0.0,0.0,0.0,0.0,0.0,0.0,0.0,0.0,0.0,0.0,0.0,0.0,0.0,0.0,0.0,0.0,1.8762,1.8762,1.8762,1.8762,1.8762,1.8762,1.8762,1.8762,1.8762,1.8762,1.8762,1.8762,1.8762,1.8762,1.8762,1.8762,1.8762,1.8762,1.8762,1.8762,1.8762,1.8762,1.8762,1.8762,1.8762,1.8762,1.8762,1.8762,1.8762,1.8762,1.8762,1.8762,1.8762,1.8762,1.8762,1.8762,1.8762,1.8762,1.8762,1.8762,1.8762,1.8762,1.8762,1.8762,1.8762,1.8762,1.8762,1.8762,1.8789,1.8837,1.8911,1.8758,1.904,1.8898,1.9081,1.8898,1.883,1.8816,1.8557,1.7607,1.6419,1.5726,1.5265,1.5271,1.5271,1.5271,1.4809,1.3411,0.0,0.0,0.0,0.0,0.0,0.0,0.0,0.0,0.0,0.0,0.0,0.0,0.0,0.0,0.0,0.0,0.0,0.0,0.0,0.0,0.0,0.0,0.0,0.0,0.0,0.0,0.0,0.0,0.0,0.0,0.0,0.0,0.0,0.0,0.0,0.0,0.0,0.0,0.0,0.0,0.0,0.0,0.0,0.0,0.0,0.0,0.0,1.8762,1.8762,1.8762,1.8762,1.8762,1.8762,1.8762,1.8762,1.8762,1.8762,1.8762,1.8762,1.8762,1.8762,1.8762,1.8762,1.8762,1.8762,1.8762,1.8762,1.8762,1.8762,1.8762,1.8762,1.8762,1.8762,1.8762,1.8762,1.8762,1.8762,1.8762,1.8762,1.8762,1.8762,1.8762,1.8762,1.8762,1.8762,1.8762,1.8762,1.8762,1.8762,1.8762,1.8762,1.8762,1.8762,1.8762,1.8769,1.881,1.8938,1.8731,1.9054,1.9399,1.9671,1.9685,1.9372,1.9276,1.8905,1.8584,1.7826,1.7116,1.6657,1.6192,1.5959,1.5731,1.5271,1.5053,1.4863,1.2727,0.8474,0.2353,0.0,0.0,0.0,0.0,0.0,0.0,0.0,0.0,0.0,0.0,0.0,0.0,0.0,0.0,0.0,0.0,0.0,0.0,0.0,0.0,0.0,0.0,0.0,0.0,0.0,0.0,0.0,0.0,0.0,0.0,0.0,0.0,0.0,0.0,0.0,0.0,0.0,0.0,0.0,0.0,0.0,0.0,0.0,0.0,1.8762,1.8762,1.8762,1.8762,1.8762,1.8762,1.8762,1.8762,1.8762,1.8762,1.8762,1.8762,1.8762,1.8762,1.8762,1.8762,1.8762,1.8762,1.8762,1.8762,1.8762,1.8762,1.8762,1.8762,1.8762,1.8762,1.8762,1.8762,1.8762,1.8762,1.8762,1.8762,1.8762,1.8762,1.8762,1.8762,1.8762,1.8762,1.8762,1.8762,1.8762,1.8762,1.8762,1.8762,1.8762,1.8762,1.8762,1.8762,1.9077,1.9214,1.9296,1.942,1.9564,1.9647,1.9681,1.9578,1.9523,1.9142,1.8704,1.8351,1.8078,1.76,1.7135,1.643,1.5965,1.5731,1.5271,1.5059,1.2236,0.8468,0.4704,0.1648,0.0,0.0,0.0,0.0,0.0,0.0,0.0,0.0,0.0,0.0,0.0,0.0,0.0,0.0,0.0,0.0,0.0,0.0,0.0,0.0,0.0,0.0,0.0,0.0,0.0,0.0,0.0,0.0,0.0,0.0,0.0,0.0,0.0,0.0,0.0,0.0,0.0,0.0,0.0,0.0,0.0,0.0,0.0,1.8762,1.8762,1.8762,1.8762,1.8762,1.8762,1.8762,1.8762,1.8762,1.8762,1.8762,1.8762,1.8762,1.8762,1.8762,1.8762,1.8762,1.8762,1.8762,1.8762,1.8762,1.8762,1.8762,1.8762,1.8762,1.8762,1.8762,1.8762,1.8762,1.8762,1.8762,1.8762,1.8762,1.8762,1.8762,1.8762,1.8762,1.8762,1.8762,1.8762,1.8762,1.8762,1.8762,1.8762,1.8762,1.8762,1.8762,1.8762,1.9077,1.9525,1.9622,1.9754,1.9708,1.9805,1.9825,1.9736,1.9674,1.9537,1.9088,1.8932,1.8837,1.8563,1.7846,1.6896,1.6198,1.5965,1.5737,1.5048,1.2695,0.9872,0.6814,0.2822,0.0,0.0,0.0,0.0,0.0,0.0,0.0,0.0,0.0,0.0,0.0,0.0,0.0,0.0,0.0,0.0,0.0,0.0,0.0,0.0,0.0,0.0,0.0,0.0,0.0,0.0,0.0,0.0,0.0,0.0,0.0,0.0,0.0,0.0,0.0,0.0,0.0,0.0,0.0,0.0,0.0,0.0,0.0,1.8762,1.8762,1.8762,1.8762,1.8762,1.8762,1.8762,1.8762,1.8762,1.8762,1.8762,1.8762,1.8762,1.8762,1.8762,1.8762,1.8762,1.8762,1.8762,1.8762,1.8762,1.8762,1.8762,1.8762,1.8762,1.8762,1.8762,1.8762,1.8762,1.8762,1.8762,1.8762,1.8762,1.8762,1.8762,1.8762,1.8762,1.8762,1.8762,1.8762,1.8762,1.8762,1.8762,1.8762,1.8762,1.8762,1.8762,1.8782,1.9132,1.9629,1.9699,1.9598,1.9805,1.9637,1.963,1.9603,1.977,1.9626,1.9454,1.904,1.8898,1.8577,1.8059,1.7355,1.643,1.6198,1.5737,1.5287,1.3635,1.1988,0.7987,0.0,0.0,0.0,0.0,0.0,0.0,0.0,0.0,0.0,0.0,0.0,0.0,0.0,0.0,0.0,0.0,0.0,0.0,0.0,0.0,0.0,0.0,0.0,0.0,0.0,0.0,0.0,0.0,0.0,0.0,0.0,0.0,0.0,0.0,0.0,0.0,0.0,0.0,0.0,0.0,0.0,0.0,0.0,0.0,1.8762,1.8762,1.8762,1.8762,1.8762,1.8762,1.8762,1.8762,1.8762,1.8762,1.8762,1.8762,1.8762,1.8762,1.8762,1.8762,1.8762,1.8762,1.8762,1.8762,1.8762,1.8762,1.8762,1.8762,1.8762,1.8762,1.8762,1.8762,1.8762,1.8762,1.8762,1.8762,1.8762,1.8762,1.8762,1.8762,1.8762,1.8762,1.8762,1.8762,1.8762,1.8762,1.8762,1.8762,1.8762,1.8762,1.8776,1.8857,1.9013,1.9406,1.953,1.9701,1.9617,1.9657,1.9664,1.9664,1.9832,1.9736,1.9564,1.9128,1.8918,1.8803,1.853,1.8059,1.7123,1.7123,1.643,1.5976,1.5287,1.3402,1.2227,1.0121,0.0,0.0,0.0,0.0,0.0,0.0,0.0,0.0,0.0,0.0,0.0,0.0,0.0,0.0,0.0,0.0,0.0,0.0,0.0,0.0,0.0,0.0,0.0,0.0,0.0,0.0,0.0,0.0,0.0,0.0,0.0,0.0,0.0,0.0,0.0,0.0,0.0,0.0,0.0,0.0,0.0,0.0,0.0,1.8762,1.8762,1.8762,1.8762,1.8762,1.8762,1.8762,1.8762,1.8762,1.8762,1.8762,1.8762,1.8762,1.8762,1.8762,1.8762,1.8762,1.8762,1.8762,1.8762,1.8762,1.8762,1.8762,1.8762,1.8762,1.8762,1.8762,1.8762,1.8762,1.8762,1.8762,1.8762,1.8762,1.8762,1.8762,1.8762,1.8762,1.8762,1.8762,1.8762,1.8762,1.8762,1.8762,1.8762,1.8762,1.8762,1.8803,1.8891,1.904,1.9434,1.9585,1.9743,1.9603,1.9664,1.9664,1.9664,1.9651,1.9839,1.9647,1.9169,1.8925,1.8789,1.8762,1.8291,1.8059,1.782,1.7129,1.643,1.5743,1.5282,1.5293,1.3665,1.0602,0.0,0.0,0.0,0.0,0.0,0.0,0.0,0.0,0.0,0.0,0.0,0.0,0.0,0.0,0.0,0.0,0.0,0.0,0.0,0.0,0.0,0.0,0.0,0.0,0.0,0.0,0.0,0.0,0.0,0.0,0.0,0.0,0.0,0.0,0.0,0.0,0.0,0.0,0.0,0.0,0.0,0.0,1.8762,1.8762,1.8762,1.8762,1.8762,1.8762,1.8762,1.8762,1.8762,1.8762,1.8762,1.8762,1.8762,1.8762,1.8762,1.8762,1.8762,1.8762,1.8762,1.8762,1.8762,1.8762,1.8762,1.8762,1.8762,1.8762,1.8762,1.8762,1.8762,1.8762,1.8762,1.8762,1.8762,1.8762,1.8762,1.8762,1.8762,1.8762,1.8762,1.8762,1.8762,1.8762,1.8762,1.8762,1.8762,1.8762,1.8837,1.8717,1.9101,1.9495,1.964,1.9777,1.9637,1.9664,1.9664,1.9664,1.9664,1.959,1.9667,1.9142,1.8945,1.8796,1.8762,1.8523,1.8059,1.7826,1.7594,1.6896,1.643,1.5965,1.5749,1.5064,1.1524,0.0,0.0,0.0,0.0,0.0,0.0,0.0,0.0,0.0,0.0,0.0,0.0,0.0,0.0,0.0,0.0,0.0,0.0,0.0,0.0,0.0,0.0,0.0,0.0,0.0,0.0,0.0,0.0,0.0,0.0,0.0,0.0,0.0,0.0,0.0,0.0,0.0,0.0,0.0,0.0,0.0,0.0,1.8762,1.8762,1.8762,1.8762,1.8762,1.8762,1.8762,1.8762,1.8762,1.8762,1.8762,1.8762,1.8762,1.8762,1.8762,1.8762,1.8762,1.8762,1.8762,1.8762,1.8762,1.8762,1.8762,1.8762,1.8762,1.8762,1.8762,1.8762,1.8762,1.8762,1.8762,1.8762,1.8762,1.8762,1.8762,1.8762,1.8762,1.8762,1.8762,1.8762,1.8762,1.8762,1.8762,1.8762,1.8762,1.8796,1.8884,1.8778,1.9176,1.9564,1.9708,1.9596,1.9657,1.9664,1.9657,1.9657,1.9651,1.9535,1.9359,1.8898,1.8771,1.8857,1.8762,1.8762,1.8523,1.8523,1.8059,1.7594,1.7129,1.6663,1.6203,1.5521,1.2456,0.7755,0.0,0.0,0.0,0.0,0.0,0.0,0.0,0.0,0.0,0.0,0.0,0.0,0.0,0.0,0.0,0.0,0.0,0.0,0.0,0.0,0.0,0.0,0.0,0.0,0.0,0.0,0.0,0.0,0.0,0.0,0.0,0.0,0.0,0.0,0.0,0.0,0.0,0.0,0.0,0.0,0.0,1.8762,1.8762,1.8762,1.8762,1.8762,1.8762,1.8762,1.8762,1.8762,1.8762,1.8762,1.8762,1.8762,1.8762,1.8762,1.8762,1.8762,1.8762,1.8762,1.8762,1.8762,1.8762,1.8762,1.8762,1.8762,1.8762,1.8762,1.8762,1.8762,1.8762,1.8762,1.8762,1.8762,1.8762,1.8762,1.8762,1.8762,1.8762,1.8762,1.8762,1.8762,1.8762,1.8762,1.8762,1.8769,1.8803,1.8932,1.9081,1.925,1.9633,1.9777,1.9657,1.9664,1.9664,1.9637,1.961,1.975,1.964,1.925,1.8892,1.8738,1.8796,1.8769,1.8762,1.8762,1.8762,1.8523,1.8291,1.8059,1.7361,1.6663,1.5976,1.3859,0.9155,0.0,0.0,0.0,0.0,0.0,0.0,0.0,0.0,0.0,0.0,0.0,0.0,0.0,0.0,0.0,0.0,0.0,0.0,0.0,0.0,0.0,0.0,0.0,0.0,0.0,0.0,0.0,0.0,0.0,0.0,0.0,0.0,0.0,0.0,0.0,0.0,0.0,0.0,0.0,0.0,0.0,1.8762,1.8762,1.8762,1.8762,1.8762,1.8762,1.8762,1.8762,1.8762,1.8762,1.8762,1.8762,1.8762,1.8762,1.8762,1.8762,1.8762,1.8762,1.8762,1.8762,1.8762,1.8762,1.8762,1.8762,1.8762,1.8762,1.8762,1.8762,1.8762,1.8762,1.8762,1.8762,1.8762,1.8762,1.8762,1.8762,1.8762,1.8762,1.8762,1.8762,1.8762,1.8762,1.8762,1.8762,1.8769,1.881,1.8925,1.9081,1.9454,1.9598,1.9756,1.9617,1.9664,1.9664,1.9811,1.9701,1.9571,1.9509,1.9162,1.8818,1.8945,1.8789,1.8762,1.8762,1.8762,1.8762,1.8762,1.8523,1.8291,1.8059,1.7594,1.6902,1.6215,1.3149,1.0567,0.0,0.0,0.0,0.0,0.0,0.0,0.0,0.0,0.0,0.0,0.0,0.0,0.0,0.0,0.0,0.0,0.0,0.0,0.0,0.0,0.0,0.0,0.0,0.0,0.0,0.0,0.0,0.0,0.0,0.0,0.0,0.0,0.0,0.0,0.0,0.0,0.0,0.0,0.0,0.0,1.8762,1.8762,1.8762,1.8762,1.8762,1.8762,1.8762,1.8762,1.8762,1.8762,1.8762,1.8762,1.8762,1.8762,1.8762,1.8762,1.8762,1.8762,1.8762,1.8762,1.8762,1.8762,1.8762,1.8762,1.8762,1.8762,1.8762,1.8762,1.8762,1.8762,1.8762,1.8762,1.8762,1.8762,1.8762,1.8762,1.8762,1.8762,1.8762,1.8762,1.8762,1.8762,1.8762,1.8762,1.8776,1.8843,1.8784,1.9128,1.9284,1.9756,1.9596,1.9664,1.9664,1.9657,1.9596,1.9454,1.9373,1.9537,1.9094,1.8771,1.8684,1.8796,1.8762,1.8762,1.8762,1.8762,1.8762,1.8755,1.853,1.8291,1.8059,1.76,1.7147,1.5737,1.3854,1.1737,0.7744,0.0,0.0,0.0,0.0,0.0,0.0,0.0,0.0,0.0,0.0,0.0,0.0,0.0,0.0,0.0,0.4488,0.5835,0.2243,0.0,0.0,0.0,0.0,0.0,0.0,0.0,0.0,0.0,0.0,0.0,0.0,0.0,0.0,0.0,0.0,0.0,0.0,0.0,0.0,1.8762,1.8762,1.8762,1.8762,1.8762,1.8762,1.8762,1.8762,1.8762,1.8762,1.8762,1.8762,1.8762,1.8762,1.8762,1.8762,1.8762,1.8762,1.8762,1.8762,1.8762,1.8762,1.8762,1.8762,1.8762,1.8762,1.8762,1.8762,1.8762,1.8762,1.8762,1.8762,1.8762,1.8762,1.8762,1.8762,1.8762,1.8762,1.8762,1.8762,1.8762,1.8762,1.8762,1.8776,1.8803,1.8724,1.8872,1.8945,1.94,1.9569,1.9603,1.9664,1.9644,1.961,1.9556,1.9413,1.9271,1.9169,1.8778,1.8925,1.885,1.8789,1.8762,1.8762,1.8762,1.8762,1.8762,1.8762,1.8762,1.8762,1.8523,1.8291,1.8072,1.7852,1.716,1.646,1.3158,0.9634,0.0,0.0,0.0,0.0,0.0,0.0,0.0,0.0,0.0,0.0,0.0,0.0,0.0,0.0,0.9888,1.1468,0.7177,0.336,0.0,0.0,0.0,0.0,0.2913,0.0,0.0,0.0,0.0,0.0,0.0,0.0,0.0,0.0,0.0,0.0,0.0,0.0,0.0,1.8762,1.8762,1.8762,1.8762,1.8762,1.8762,1.8762,1.8762,1.8762,1.8762,1.8762,1.8762,1.8762,1.8762,1.8762,1.8762,1.8762,1.8762,1.8762,1.8762,1.8762,1.8762,1.8762,1.8762,1.8762,1.8762,1.8762,1.8762,1.8762,1.8762,1.8762,1.8762,1.8762,1.8762,1.8762,1.8762,1.8762,1.8762,1.8762,1.8762,1.8762,1.8762,1.8762,1.8789,1.8877,1.8771,1.9088,1.9237,1.9688,1.9743,1.9811,1.9657,1.9624,1.9811,1.9743,1.9605,1.9203,1.9061,1.8711,1.885,1.8803,1.8769,1.8762,1.8762,1.8762,1.8762,1.8762,1.8762,1.8762,1.8762,1.8523,1.8523,1.8537,1.8304,1.7839,1.738,1.5731,1.1928,0.7874,0.4821,0.4778,0.5864,0.0,0.0,0.0,0.0,0.0,0.0,0.0,0.0,0.0,1.1235,1.2587,1.3491,1.2354,0.9188,0.806,0.0,0.7613,0.784,0.7619,0.6943,0.0,0.0,0.0,0.0,0.0,0.0,0.0,0.0,0.0,0.0,0.0,0.0,0.0,1.8762,1.8762,1.8762,1.8762,1.8762,1.8762,1.8762,1.8762,1.8762,1.8762,1.8762,1.8762,1.8762,1.8762,1.8762,1.8762,1.8762,1.8762,1.8762,1.8762,1.8762,1.8762,1.8762,1.8762,1.8762,1.8762,1.8762,1.8762,1.8762,1.8762,1.8762,1.8762,1.8762,1.8762,1.8762,1.8762,1.8762,1.8762,1.8762,1.8762,1.8762,1.8762,1.8769,1.881,1.8898,1.9054,1.9162,1.9564,1.9736,1.9596,1.963,1.9664,1.9657,1.9617,1.9729,1.9544,1.9169,1.8784,1.8877,1.8796,1.8769,1.8762,1.8762,1.8762,1.8762,1.8762,1.8762,1.8762,1.8762,1.8762,1.8762,1.8762,1.8762,1.8523,1.8291,1.8059,1.7594,1.393,0.9883,0.9117,0.8591,0.8777,0.8978,0.8517,0.739,0.8964,1.1902,0.0,0.0,0.0,0.0,1.213,1.3242,1.3917,1.3694,1.3237,1.1424,1.1429,1.1433,1.1889,1.234,1.121,1.0077,1.0085,0.0,0.6945,0.4254,0.0,0.0,0.0,0.0,0.0,0.0,0.0,0.0,1.8762,1.8762,1.8762,1.8762,1.8762,1.8762,1.8762,1.8762,1.8762,1.8762,1.8762,1.8762,1.8762,1.8762,1.8762,1.8762,1.8762,1.8762,1.8762,1.8762,1.8762,1.8762,1.8762,1.8762,1.8762,1.8762,1.8762,1.8762,1.8762,1.8762,1.8762,1.8762,1.8762,1.8762,1.8762,1.8762,1.8762,1.8762,1.8762,1.8762,1.8762,1.8762,1.8762,1.881,1.8952,1.9108,1.9482,1.964,1.9805,1.9637,1.9657,1.9664,1.9644,1.9825,1.9681,1.9509,1.9122,1.8764,1.8837,1.8762,1.8762,1.8762,1.8762,1.8762,1.8762,1.8762,1.8762,1.8762,1.8762,1.8762,1.8762,1.8762,1.8762,1.853,1.8517,1.8278,1.7498,1.5268,1.2849,1.1847,1.1758,1.1687,1.1889,1.1884,1.0978,1.1201,1.3699,1.3922,1.1206,0.9397,1.1661,1.3019,1.3906,1.4347,1.4119,1.4119,1.3663,1.3901,1.4369,1.3906,1.3222,1.3901,1.3684,1.2781,1.2107,1.1433,0.8734,0.6265,0.4474,0.0,0.0,0.0,0.3145,0.3152,0.0,1.8762,1.8762,1.8762,1.8762,1.8762,1.8762,1.8762,1.8762,1.8762,1.8762,1.8762,1.8762,1.8762,1.8762,1.8762,1.8762,1.8762,1.8762,1.8762,1.8762,1.8762,1.8762,1.8762,1.8762,1.8762,1.8762,1.8762,1.8762,1.8762,1.8762,1.8762,1.8762,1.8762,1.8762,1.8762,1.8762,1.8762,1.8776,1.8782,1.8782,1.8776,1.8762,1.8762,1.8857,1.8784,1.9176,1.9537,1.9674,1.9603,1.9624,1.9603,1.9576,1.9556,1.9729,1.9592,1.9434,1.9074,1.8932,1.8803,1.8762,1.8762,1.8762,1.8762,1.8762,1.8762,1.8762,1.8762,1.8762,1.8762,1.8762,1.8762,1.8762,1.8762,1.8755,1.8517,1.8483,1.7422,1.638,1.5356,1.4343,1.4247,1.4374,1.4352,1.4352,1.4352,1.4352,1.4358,1.4358,1.3901,1.2762,1.2995,1.3673,1.4119,1.433,1.4325,1.4325,1.433,1.433,1.4341,1.433,1.4325,1.4336,1.4341,1.4119,1.3668,1.2999,1.3232,1.1652,1.0301,0.8281,0.829,0.807,0.807,0.8091,0.8113,1.8762,1.8762,1.8762,1.8762,1.8762,1.8762,1.8762,1.8762,1.8762,1.8762,1.8762,1.8762,1.8762,1.8762,1.8762,1.8762,1.8762,1.8762,1.8762,1.8762,1.8762,1.8762,1.8762,1.8762,1.8762,1.8762,1.8762,1.8762,1.8762,1.8762,1.8762,1.8762,1.8762,1.8762,1.8762,1.8762,1.8762,1.8789,1.885,1.8877,1.8782,1.8769,1.8762,1.8871,1.8805,1.9149,1.9502,1.9626,1.9695,1.9722,1.9715,1.942,1.9379,1.9598,1.9495,1.9358,1.9,1.8898,1.8803,1.8769,1.8762,1.8762,1.8762,1.8762,1.8762,1.8762,1.8762,1.8762,1.8762,1.8762,1.8762,1.8762,1.8762,1.8762,1.8755,1.8212,1.7416,1.706,1.6481,1.5902,1.5547,1.526,1.4992,1.477,1.4553,1.4553,1.4336,1.4336,1.4336,1.433,1.433,1.433,1.433,1.4325,1.4325,1.4325,1.4325,1.4325,1.432,1.432,1.432,1.432,1.4325,1.433,1.433,1.388,1.4341,1.4352,1.3673,1.1871,1.2791,1.3029,1.2796,1.2121,1.1468]}]]